Wetterdaten: Montag, 06.02.2017
Datum Zeit Temp. A. Feuchte A. Luftdruck Regen Wind Richtung Richtung Sonnenschein ET UV Solar Taupunkt Windchill Windben Empfang
06.02.2017 00:00 2,4 C 87 % 1002,6 hPa 0,0 l/m 10,5 km/h (2 Bft) NO 50 0 min 0,000 mm 0,0 UV-I 0 W/m 0,5 C -1,2 C 14,5 km/h (3 Bft) 100,00 %
06.02.2017 00:02 2,4 C 87 % 1002,6 hPa 0,0 l/m 11,4 km/h (2 Bft) O-NO 75 0 min 0,000 mm 0,0 UV-I 0 W/m 0,5 C -1,8 C 14,5 km/h (3 Bft) 97,50 %
06.02.2017 00:04 2,5 C 88 % 1002,7 hPa 0,0 l/m 13,7 km/h (3 Bft) O-NO 64 0 min 0,000 mm 0,0 UV-I 0 W/m 0,7 C -3,2 C 19,3 km/h (3 Bft) 100,00 %
06.02.2017 00:06 2,5 C 88 % 1002,6 hPa 0,0 l/m 12,5 km/h (3 Bft) N-NO 26 0 min 0,000 mm 0,0 UV-I 0 W/m 0,7 C -2,5 C 19,3 km/h (3 Bft) 100,00 %
06.02.2017 00:08 2,6 C 88 % 1002,6 hPa 0,0 l/m 12,8 km/h (3 Bft) O-NO 69 0 min 0,000 mm 0,0 UV-I 0 W/m 0,8 C -2,5 C 19,3 km/h (3 Bft) 100,00 %
06.02.2017 00:10 2,6 C 88 % 1002,6 hPa 0,0 l/m 13,1 km/h (3 Bft) O-NO 61 0 min 0,000 mm 0,0 UV-I 0 W/m 0,8 C -2,7 C 19,3 km/h (3 Bft) 100,00 %
06.02.2017 00:12 2,6 C 88 % 1002,7 hPa 0,0 l/m 15,1 km/h (3 Bft) O-NO 63 0 min 0,000 mm 0,0 UV-I 0 W/m 0,8 C -3,9 C 20,9 km/h (4 Bft) 100,00 %
06.02.2017 00:14 2,6 C 88 % 1002,6 hPa 0,0 l/m 14,5 km/h (3 Bft) NO 54 0 min 0,000 mm 0,0 UV-I 0 W/m 0,8 C -3,5 C 19,3 km/h (3 Bft) 97,56 %
06.02.2017 00:16 2,6 C 88 % 1002,5 hPa 0,0 l/m 16,1 km/h (3 Bft) NO 36 0 min 0,000 mm 0,0 UV-I 0 W/m 0,8 C -4,4 C 22,5 km/h (4 Bft) 98,00 %
06.02.2017 00:18 2,6 C 88 % 1002,5 hPa 0,0 l/m 16,0 km/h (3 Bft) NO 51 0 min 0,000 mm 0,0 UV-I 0 W/m 0,8 C -4,4 C 22,5 km/h (4 Bft) 100,00 %
06.02.2017 00:20 2,7 C 89 % 1002,5 hPa 0,0 l/m 15,6 km/h (3 Bft) O-NO 64 0 min 0,000 mm 0,0 UV-I 0 W/m 1,1 C -4,0 C 22,5 km/h (4 Bft) 97,37 %
06.02.2017 00:22 2,7 C 89 % 1002,5 hPa 0,0 l/m 15,9 km/h (3 Bft) NO 52 0 min 0,000 mm 0,0 UV-I 0 W/m 1,1 C -4,2 C 22,5 km/h (4 Bft) 100,00 %
06.02.2017 00:24 2,7 C 89 % 1002,6 hPa 0,0 l/m 14,5 km/h (3 Bft) NO 56 0 min 0,000 mm 0,0 UV-I 0 W/m 1,1 C -3,4 C 19,3 km/h (3 Bft) 100,00 %
06.02.2017 00:26 2,6 C 89 % 1002,6 hPa 0,0 l/m 15,0 km/h (3 Bft) O 81 0 min 0,000 mm 0,0 UV-I 0 W/m 1,0 C -3,8 C 19,3 km/h (3 Bft) 100,00 %
06.02.2017 00:28 2,6 C 89 % 1002,6 hPa 0,0 l/m 16,8 km/h (3 Bft) O-NO 68 0 min 0,000 mm 0,0 UV-I 0 W/m 1,0 C -4,8 C 20,9 km/h (4 Bft) 98,25 %
06.02.2017 00:30 2,7 C 89 % 1002,6 hPa 0,0 l/m 17,0 km/h (3 Bft) O-NO 74 0 min 0,000 mm 0,0 UV-I 0 W/m 1,1 C -4,8 C 22,5 km/h (4 Bft) 100,00 %
06.02.2017 00:32 2,7 C 89 % 1002,6 hPa 0,0 l/m 18,3 km/h (3 Bft) O-NO 69 0 min 0,000 mm 0,0 UV-I 0 W/m 1,1 C -5,4 C 25,7 km/h (4 Bft) 97,73 %
06.02.2017 00:34 2,7 C 90 % 1002,6 hPa 0,0 l/m 18,2 km/h (3 Bft) NO 40 0 min 0,000 mm 0,0 UV-I 0 W/m 1,2 C -5,3 C 24,1 km/h (4 Bft) 96,23 %
06.02.2017 00:36 2,7 C 90 % 1002,6 hPa 0,0 l/m 18,3 km/h (3 Bft) NO 53 0 min 0,000 mm 0,0 UV-I 0 W/m 1,2 C -5,4 C 25,7 km/h (4 Bft) 97,87 %
06.02.2017 00:38 2,8 C 90 % 1002,7 hPa 0,0 l/m 14,7 km/h (3 Bft) NO 56 0 min 0,000 mm 0,0 UV-I 0 W/m 1,3 C -3,4 C 20,9 km/h (4 Bft) 96,00 %
06.02.2017 00:40 2,8 C 90 % 1002,8 hPa 0,0 l/m 14,7 km/h (3 Bft) NO 55 0 min 0,000 mm 0,0 UV-I 0 W/m 1,3 C -3,4 C 20,9 km/h (4 Bft) 95,12 %
06.02.2017 00:42 2,8 C 90 % 1002,7 hPa 0,0 l/m 14,2 km/h (3 Bft) O 91 0 min 0,000 mm 0,0 UV-I 0 W/m 1,3 C -3,1 C 19,3 km/h (3 Bft) 98,11 %
06.02.2017 00:44 2,8 C 90 % 1002,8 hPa 0,0 l/m 15,7 km/h (3 Bft) O-NO 70 0 min 0,000 mm 0,0 UV-I 0 W/m 1,3 C -4,0 C 25,7 km/h (4 Bft) 97,73 %
06.02.2017 00:46 2,8 C 90 % 1002,8 hPa 0,0 l/m 14,2 km/h (3 Bft) O 82 0 min 0,000 mm 0,0 UV-I 0 W/m 1,3 C -3,1 C 19,3 km/h (3 Bft) 97,62 %
06.02.2017 00:48 2,8 C 90 % 1002,9 hPa 0,0 l/m 16,0 km/h (3 Bft) O-NO 76 0 min 0,000 mm 0,0 UV-I 0 W/m 1,3 C -4,1 C 24,1 km/h (4 Bft) 96,00 %
06.02.2017 00:50 2,8 C 90 % 1002,8 hPa 0,0 l/m 14,8 km/h (3 Bft) O 85 0 min 0,000 mm 0,0 UV-I 0 W/m 1,3 C -3,5 C 19,3 km/h (3 Bft) 98,00 %
06.02.2017 00:52 2,8 C 90 % 1002,9 hPa 0,0 l/m 16,7 km/h (3 Bft) NO 56 0 min 0,000 mm 0,0 UV-I 0 W/m 1,3 C -4,5 C 22,5 km/h (4 Bft) 97,87 %
06.02.2017 00:54 2,8 C 90 % 1002,9 hPa 0,0 l/m 17,7 km/h (3 Bft) O 92 0 min 0,000 mm 0,0 UV-I 0 W/m 1,3 C -5,0 C 25,7 km/h (4 Bft) 97,37 %
06.02.2017 00:56 2,8 C 90 % 1002,9 hPa 0,0 l/m 16,3 km/h (3 Bft) O 79 0 min 0,000 mm 0,0 UV-I 0 W/m 1,3 C -4,3 C 22,5 km/h (4 Bft) 97,78 %
06.02.2017 00:58 2,8 C 90 % 1003,0 hPa 0,0 l/m 16,3 km/h (3 Bft) O-NO 68 0 min 0,000 mm 0,0 UV-I 0 W/m 1,3 C -4,3 C 20,9 km/h (4 Bft) 96,23 %
06.02.2017 01:00 2,8 C 90 % 1003,0 hPa 0,0 l/m 13,0 km/h (3 Bft) O-NO 63 0 min 0,025 mm 0,0 UV-I 0 W/m 1,3 C -2,4 C 17,7 km/h (3 Bft) 98,21 %
06.02.2017 01:02 2,8 C 90 % 1003,0 hPa 0,0 l/m 12,9 km/h (3 Bft) O-NO 70 0 min 0,000 mm 0,0 UV-I 0 W/m 1,3 C -2,4 C 20,9 km/h (4 Bft) 95,74 %
06.02.2017 01:04 2,8 C 90 % 1003,0 hPa 0,0 l/m 14,3 km/h (3 Bft) O-NO 70 0 min 0,000 mm 0,0 UV-I 0 W/m 1,3 C -3,2 C 20,9 km/h (4 Bft) 97,14 %
06.02.2017 01:06 2,8 C 91 % 1003,0 hPa 0,0 l/m 15,8 km/h (3 Bft) NO 53 0 min 0,000 mm 0,0 UV-I 0 W/m 1,5 C -4,0 C 22,5 km/h (4 Bft) 98,00 %
06.02.2017 01:08 2,8 C 91 % 1003,1 hPa 0,0 l/m 15,3 km/h (3 Bft) O-NO 65 0 min 0,000 mm 0,0 UV-I 0 W/m 1,5 C -3,8 C 20,9 km/h (4 Bft) 98,11 %
06.02.2017 01:10 2,8 C 91 % 1003,1 hPa 0,0 l/m 13,3 km/h (3 Bft) O-NO 61 0 min 0,000 mm 0,0 UV-I 0 W/m 1,5 C -2,6 C 17,7 km/h (3 Bft) 97,56 %
06.02.2017 01:12 2,7 C 91 % 1003,0 hPa 0,0 l/m 14,2 km/h (3 Bft) O-NO 59 0 min 0,000 mm 0,0 UV-I 0 W/m 1,4 C -3,3 C 17,7 km/h (3 Bft) 98,11 %
06.02.2017 01:14 2,7 C 91 % 1003,0 hPa 0,0 l/m 15,5 km/h (3 Bft) O-NO 67 0 min 0,000 mm 0,0 UV-I 0 W/m 1,4 C -4,0 C 19,3 km/h (3 Bft) 97,37 %
06.02.2017 01:16 2,7 C 91 % 1003,1 hPa 0,0 l/m 14,8 km/h (3 Bft) O-NO 57 0 min 0,000 mm 0,0 UV-I 0 W/m 1,4 C -3,6 C 20,9 km/h (4 Bft) 98,11 %
06.02.2017 01:18 2,7 C 91 % 1003,1 hPa 0,0 l/m 13,4 km/h (3 Bft) O-NO 60 0 min 0,000 mm 0,0 UV-I 0 W/m 1,4 C -2,8 C 19,3 km/h (3 Bft) 97,87 %
06.02.2017 01:20 2,7 C 91 % 1003,1 hPa 0,0 l/m 14,9 km/h (3 Bft) O-NO 65 0 min 0,000 mm 0,0 UV-I 0 W/m 1,4 C -3,7 C 19,3 km/h (3 Bft) 100,00 %
06.02.2017 01:22 2,7 C 91 % 1003,2 hPa 0,0 l/m 14,1 km/h (3 Bft) NO 48 0 min 0,000 mm 0,0 UV-I 0 W/m 1,4 C -3,2 C 20,9 km/h (4 Bft) 97,44 %
06.02.2017 01:24 2,7 C 91 % 1003,2 hPa 0,0 l/m 13,7 km/h (3 Bft) NO 47 0 min 0,000 mm 0,0 UV-I 0 W/m 1,4 C -3,0 C 19,3 km/h (3 Bft) 100,00 %
06.02.2017 01:26 2,7 C 91 % 1003,2 hPa 0,0 l/m 14,9 km/h (3 Bft) NO 56 0 min 0,000 mm 0,0 UV-I 0 W/m 1,4 C -3,7 C 22,5 km/h (4 Bft) 100,00 %
06.02.2017 01:28 2,7 C 91 % 1003,2 hPa 0,0 l/m 15,5 km/h (3 Bft) O-NO 69 0 min 0,000 mm 0,0 UV-I 0 W/m 1,4 C -4,0 C 20,9 km/h (4 Bft) 100,00 %
06.02.2017 01:30 2,7 C 91 % 1003,3 hPa 0,0 l/m 15,3 km/h (3 Bft) O-NO 59 0 min 0,000 mm 0,0 UV-I 0 W/m 1,4 C -3,9 C 20,9 km/h (4 Bft) 100,00 %
06.02.2017 01:32 2,7 C 91 % 1003,3 hPa 0,0 l/m 14,9 km/h (3 Bft) O-NO 59 0 min 0,000 mm 0,0 UV-I 0 W/m 1,4 C -3,7 C 24,1 km/h (4 Bft) 97,87 %
06.02.2017 01:34 2,7 C 91 % 1003,3 hPa 0,0 l/m 15,0 km/h (3 Bft) NO 51 0 min 0,000 mm 0,0 UV-I 0 W/m 1,4 C -3,7 C 22,5 km/h (4 Bft) 100,00 %
06.02.2017 01:36 2,7 C 91 % 1003,3 hPa 0,0 l/m 13,2 km/h (3 Bft) NO 53 0 min 0,000 mm 0,0 UV-I 0 W/m 1,4 C -2,7 C 17,7 km/h (3 Bft) 98,21 %
06.02.2017 01:38 2,7 C 91 % 1003,3 hPa 0,0 l/m 12,9 km/h (3 Bft) NO 55 0 min 0,000 mm 0,0 UV-I 0 W/m 1,4 C -2,5 C 16,1 km/h (3 Bft) 100,00 %
06.02.2017 01:40 2,7 C 91 % 1003,3 hPa 0,0 l/m 10,4 km/h (2 Bft) NO 55 0 min 0,000 mm 0,0 UV-I 0 W/m 1,4 C -0,8 C 14,5 km/h (3 Bft) 98,00 %
06.02.2017 01:42 2,6 C 91 % 1003,3 hPa 0,0 l/m 8,9 km/h (2 Bft) O-NO 74 0 min 0,000 mm 0,0 UV-I 0 W/m 1,3 C 0,3 C 14,5 km/h (3 Bft) 100,00 %
06.02.2017 01:44 2,6 C 91 % 1003,4 hPa 0,0 l/m 8,7 km/h (2 Bft) NO 51 0 min 0,000 mm 0,0 UV-I 0 W/m 1,3 C 0,5 C 14,5 km/h (3 Bft) 100,00 %
06.02.2017 01:46 2,6 C 91 % 1003,5 hPa 0,0 l/m 12,7 km/h (3 Bft) NO 56 0 min 0,000 mm 0,0 UV-I 0 W/m 1,3 C -2,5 C 17,7 km/h (3 Bft) 100,00 %
06.02.2017 01:48 2,6 C 91 % 1003,5 hPa 0,0 l/m 11,6 km/h (2 Bft) O-NO 58 0 min 0,000 mm 0,0 UV-I 0 W/m 1,3 C -1,7 C 16,1 km/h (3 Bft) 97,87 %
06.02.2017 01:50 2,6 C 91 % 1003,5 hPa 0,0 l/m 10,9 km/h (2 Bft) O 89 0 min 0,000 mm 0,0 UV-I 0 W/m 1,3 C -1,2 C 16,1 km/h (3 Bft) 100,00 %
06.02.2017 01:52 2,6 C 92 % 1003,5 hPa 0,0 l/m 12,4 km/h (3 Bft) O-NO 59 0 min 0,000 mm 0,0 UV-I 0 W/m 1,4 C -2,3 C 16,1 km/h (3 Bft) 100,00 %
06.02.2017 01:54 2,6 C 92 % 1003,6 hPa 0,0 l/m 10,4 km/h (2 Bft) O-NO 58 0 min 0,000 mm 0,0 UV-I 0 W/m 1,4 C -0,9 C 14,5 km/h (3 Bft) 100,00 %
06.02.2017 01:56 2,6 C 92 % 1003,6 hPa 0,0 l/m 11,4 km/h (2 Bft) O-NO 57 0 min 0,000 mm 0,0 UV-I 0 W/m 1,4 C -1,6 C 16,1 km/h (3 Bft) 96,23 %
06.02.2017 01:58 2,6 C 92 % 1003,7 hPa 0,0 l/m 9,1 km/h (2 Bft) O 92 0 min 0,000 mm 0,0 UV-I 0 W/m 1,4 C 0,1 C 14,5 km/h (3 Bft) 100,00 %
06.02.2017 02:00 2,6 C 92 % 1003,7 hPa 0,0 l/m 10,0 km/h (2 Bft) O-NO 68 0 min 0,000 mm 0,0 UV-I 0 W/m 1,4 C -0,6 C 16,1 km/h (3 Bft) 100,00 %
06.02.2017 02:02 2,6 C 92 % 1003,7 hPa 0,0 l/m 8,0 km/h (2 Bft) O-NO 78 0 min 0,000 mm 0,0 UV-I 0 W/m 1,4 C 1,1 C 12,9 km/h (3 Bft) 100,00 %
06.02.2017 02:04 2,6 C 92 % 1003,8 hPa 0,0 l/m 7,4 km/h (2 Bft) O-NO 60 0 min 0,000 mm 0,0 UV-I 0 W/m 1,4 C 1,6 C 12,9 km/h (3 Bft) 100,00 %
06.02.2017 02:06 2,6 C 92 % 1003,8 hPa 0,0 l/m 6,7 km/h (2 Bft) O-NO 72 0 min 0,000 mm 0,0 UV-I 0 W/m 1,4 C 2,3 C 9,7 km/h (2 Bft) 98,00 %
06.02.2017 02:08 2,6 C 92 % 1003,8 hPa 0,0 l/m 7,3 km/h (2 Bft) O 79 0 min 0,000 mm 0,0 UV-I 0 W/m 1,4 C 1,7 C 11,3 km/h (2 Bft) 100,00 %
06.02.2017 02:10 2,6 C 92 % 1003,9 hPa 0,0 l/m 7,1 km/h (2 Bft) O-NO 58 0 min 0,000 mm 0,0 UV-I 0 W/m 1,4 C 1,9 C 8,0 km/h (2 Bft) 100,00 %
06.02.2017 02:12 2,6 C 92 % 1003,8 hPa 0,0 l/m 6,6 km/h (2 Bft) O-NO 67 0 min 0,000 mm 0,0 UV-I 0 W/m 1,4 C 2,4 C 8,0 km/h (2 Bft) 100,00 %
06.02.2017 02:14 2,6 C 92 % 1003,9 hPa 0,0 l/m 6,2 km/h (2 Bft) O-NO 62 0 min 0,000 mm 0,0 UV-I 0 W/m 1,4 C 2,6 C 9,7 km/h (2 Bft) 97,56 %
06.02.2017 02:16 2,6 C 92 % 1004,0 hPa 0,0 l/m 5,6 km/h (1 Bft) O-NO 63 0 min 0,000 mm 0,0 UV-I 0 W/m 1,4 C 2,6 C 8,0 km/h (2 Bft) 97,87 %
06.02.2017 02:18 2,5 C 92 % 1004,0 hPa 0,0 l/m 3,9 km/h (1 Bft) NO 55 0 min 0,000 mm 0,0 UV-I 0 W/m 1,3 C 2,5 C 6,4 km/h (2 Bft) 100,00 %
06.02.2017 02:20 2,5 C 92 % 1004,0 hPa 0,0 l/m 5,2 km/h (1 Bft) O-NO 59 0 min 0,000 mm 0,0 UV-I 0 W/m 1,3 C 2,5 C 6,4 km/h (2 Bft) 97,87 %
06.02.2017 02:22 2,5 C 92 % 1004,0 hPa 0,0 l/m 4,3 km/h (1 Bft) O-NO 57 0 min 0,000 mm 0,0 UV-I 0 W/m 1,3 C 2,5 C 6,4 km/h (2 Bft) 100,00 %
06.02.2017 02:24 2,5 C 92 % 1004,1 hPa 0,0 l/m 3,4 km/h (1 Bft) O-NO 57 0 min 0,000 mm 0,0 UV-I 0 W/m 1,3 C 2,5 C 4,8 km/h (1 Bft) 100,00 %
06.02.2017 02:26 2,4 C 92 % 1004,1 hPa 0,0 l/m 2,9 km/h (1 Bft) O-NO 57 0 min 0,000 mm 0,0 UV-I 0 W/m 1,2 C 2,4 C 4,8 km/h (1 Bft) 100,00 %
06.02.2017 02:28 2,4 C 92 % 1004,2 hPa 0,0 l/m 1,5 km/h (1 Bft) O-NO 57 0 min 0,000 mm 0,0 UV-I 0 W/m 1,2 C 2,4 C 3,2 km/h (1 Bft) 94,74 %
06.02.2017 02:30 2,4 C 92 % 1004,3 hPa 0,0 l/m 0,7 km/h (0 Bft) O-NO 57 0 min 0,000 mm 0,0 UV-I 0 W/m 1,2 C 2,4 C 3,2 km/h (1 Bft) 100,00 %
06.02.2017 02:32 2,4 C 92 % 1004,3 hPa 0,0 l/m 1,1 km/h (1 Bft) O-NO 57 0 min 0,000 mm 0,0 UV-I 0 W/m 1,2 C 2,4 C 3,2 km/h (1 Bft) 97,87 %
06.02.2017 02:34 2,3 C 92 % 1004,3 hPa 0,0 l/m 0,4 km/h (0 Bft) O-NO 57 0 min 0,000 mm 0,0 UV-I 0 W/m 1,1 C 2,3 C 1,6 km/h (1 Bft) 97,87 %
06.02.2017 02:36 2,3 C 92 % 1004,3 hPa 0,0 l/m 0,0 km/h (0 Bft) O-NO 57 0 min 0,000 mm 0,0 UV-I 0 W/m 1,1 C 2,3 C 0,0 km/h (0 Bft) 100,00 %
06.02.2017 02:38 2,3 C 92 % 1004,3 hPa 0,0 l/m 0,0 km/h (0 Bft) O-NO 57 0 min 0,000 mm 0,0 UV-I 0 W/m 1,1 C 2,3 C 0,0 km/h (0 Bft) 95,74 %
06.02.2017 02:40 2,3 C 92 % 1004,4 hPa 0,0 l/m 0,0 km/h (0 Bft) O-NO 57 0 min 0,000 mm 0,0 UV-I 0 W/m 1,1 C 2,3 C 0,0 km/h (0 Bft) 95,24 %
06.02.2017 02:42 2,3 C 93 % 1004,4 hPa 0,0 l/m 0,0 km/h (0 Bft) O-NO 57 0 min 0,000 mm 0,0 UV-I 0 W/m 1,3 C 2,3 C 0,0 km/h (0 Bft) 97,87 %
06.02.2017 02:44 2,3 C 93 % 1004,5 hPa 0,0 l/m 0,0 km/h (0 Bft) O-NO 57 0 min 0,000 mm 0,0 UV-I 0 W/m 1,3 C 2,3 C 0,0 km/h (0 Bft) 97,87 %
06.02.2017 02:46 2,3 C 93 % 1004,5 hPa 0,0 l/m 0,0 km/h (0 Bft) O-NO 57 0 min 0,000 mm 0,0 UV-I 0 W/m 1,3 C 2,3 C 0,0 km/h (0 Bft) 95,74 %
06.02.2017 02:48 2,3 C 93 % 1004,6 hPa 0,0 l/m 0,0 km/h (0 Bft) O-NO 57 0 min 0,000 mm 0,0 UV-I 0 W/m 1,3 C 2,3 C 0,0 km/h (0 Bft) 98,00 %
06.02.2017 02:50 2,3 C 93 % 1004,5 hPa 0,0 l/m 0,0 km/h (0 Bft) O-NO 57 0 min 0,000 mm 0,0 UV-I 0 W/m 1,3 C 2,3 C 0,0 km/h (0 Bft) 95,74 %
06.02.2017 02:52 2,3 C 93 % 1004,5 hPa 0,0 l/m 0,4 km/h (0 Bft) O-NO 57 0 min 0,000 mm 0,0 UV-I 0 W/m 1,3 C 2,3 C 1,6 km/h (1 Bft) 98,00 %
06.02.2017 02:54 2,3 C 93 % 1004,5 hPa 0,0 l/m 0,0 km/h (0 Bft) O-NO 57 0 min 0,000 mm 0,0 UV-I 0 W/m 1,3 C 2,3 C 0,0 km/h (0 Bft) 93,62 %
06.02.2017 02:56 2,3 C 93 % 1004,5 hPa 0,0 l/m 0,0 km/h (0 Bft) O-NO 57 0 min 0,000 mm 0,0 UV-I 0 W/m 1,3 C 2,3 C 1,6 km/h (1 Bft) 97,87 %
06.02.2017 02:58 2,3 C 93 % 1004,5 hPa 0,0 l/m 0,0 km/h (0 Bft) O-NO 57 0 min 0,000 mm 0,0 UV-I 0 W/m 1,3 C 2,3 C 0,0 km/h (0 Bft) 98,00 %
06.02.2017 03:00 2,2 C 93 % 1004,5 hPa 0,0 l/m 0,0 km/h (0 Bft) O-NO 57 0 min 0,000 mm 0,0 UV-I 0 W/m 1,2 C 2,2 C 0,0 km/h (0 Bft) 97,56 %
06.02.2017 03:02 2,2 C 93 % 1004,6 hPa 0,0 l/m 0,0 km/h (0 Bft) O-NO 57 0 min 0,000 mm 0,0 UV-I 0 W/m 1,2 C 2,2 C 0,0 km/h (0 Bft) 98,00 %
06.02.2017 03:04 2,3 C 93 % 1004,7 hPa 0,0 l/m 0,0 km/h (0 Bft) O-NO 57 0 min 0,000 mm 0,0 UV-I 0 W/m 1,3 C 2,3 C 0,0 km/h (0 Bft) 95,74 %
06.02.2017 03:06 2,2 C 93 % 1004,8 hPa 0,0 l/m 0,0 km/h (0 Bft) O-NO 57 0 min 0,000 mm 0,0 UV-I 0 W/m 1,2 C 2,2 C 0,0 km/h (0 Bft) 97,87 %
06.02.2017 03:08 2,3 C 93 % 1004,8 hPa 0,0 l/m 0,0 km/h (0 Bft) O-NO 57 0 min 0,000 mm 0,0 UV-I 0 W/m 1,3 C 2,3 C 0,0 km/h (0 Bft) 95,74 %
06.02.2017 03:10 2,3 C 93 % 1004,9 hPa 0,0 l/m 0,0 km/h (0 Bft) O-NO 57 0 min 0,000 mm 0,0 UV-I 0 W/m 1,3 C 2,3 C 0,0 km/h (0 Bft) 95,74 %
06.02.2017 03:12 2,3 C 93 % 1004,9 hPa 0,0 l/m 0,0 km/h (0 Bft) O-NO 57 0 min 0,000 mm 0,0 UV-I 0 W/m 1,3 C 2,3 C 0,0 km/h (0 Bft) 100,00 %
06.02.2017 03:14 2,3 C 93 % 1004,8 hPa 0,0 l/m 0,0 km/h (0 Bft) O-NO 57 0 min 0,000 mm 0,0 UV-I 0 W/m 1,3 C 2,3 C 0,0 km/h (0 Bft) 95,74 %
06.02.2017 03:16 2,3 C 93 % 1004,8 hPa 0,0 l/m 0,0 km/h (0 Bft) O-NO 57 0 min 0,000 mm 0,0 UV-I 0 W/m 1,3 C 2,3 C 0,0 km/h (0 Bft) 96,00 %
06.02.2017 03:18 2,2 C 93 % 1004,9 hPa 0,0 l/m 0,0 km/h (0 Bft) O-NO 57 0 min 0,000 mm 0,0 UV-I 0 W/m 1,2 C 2,2 C 0,0 km/h (0 Bft) 100,00 %
06.02.2017 03:20 2,1 C 93 % 1004,9 hPa 0,0 l/m 0,0 km/h (0 Bft) O-NO 57 0 min 0,000 mm 0,0 UV-I 0 W/m 1,1 C 2,1 C 0,0 km/h (0 Bft) 100,00 %
06.02.2017 03:22 2,1 C 93 % 1005,0 hPa 0,0 l/m 0,0 km/h (0 Bft) O-NO 57 0 min 0,000 mm 0,0 UV-I 0 W/m 1,1 C 2,1 C 0,0 km/h (0 Bft) 100,00 %
06.02.2017 03:24 2,0 C 93 % 1005,0 hPa 0,0 l/m 0,0 km/h (0 Bft) O-NO 57 0 min 0,000 mm 0,0 UV-I 0 W/m 1,0 C 2,0 C 0,0 km/h (0 Bft) 97,87 %
06.02.2017 03:26 2,1 C 93 % 1005,1 hPa 0,0 l/m 0,0 km/h (0 Bft) O-NO 57 0 min 0,000 mm 0,0 UV-I 0 W/m 1,1 C 2,1 C 0,0 km/h (0 Bft) 98,11 %
06.02.2017 03:28 2,0 C 93 % 1005,1 hPa 0,0 l/m 0,0 km/h (0 Bft) O-NO 57 0 min 0,000 mm 0,0 UV-I 0 W/m 1,0 C 2,0 C 0,0 km/h (0 Bft) 100,00 %
06.02.2017 03:30 1,9 C 93 % 1005,1 hPa 0,0 l/m 0,0 km/h (0 Bft) O-NO 57 0 min 0,000 mm 0,0 UV-I 0 W/m 0,9 C 1,9 C 0,0 km/h (0 Bft) 97,87 %
06.02.2017 03:32 1,8 C 93 % 1005,1 hPa 0,0 l/m 0,1 km/h (0 Bft) O-NO 57 0 min 0,000 mm 0,0 UV-I 0 W/m 0,8 C 1,8 C 1,6 km/h (1 Bft) 100,00 %
06.02.2017 03:34 1,8 C 93 % 1005,2 hPa 0,0 l/m 0,0 km/h (0 Bft) O-NO 57 0 min 0,000 mm 0,0 UV-I 0 W/m 0,8 C 1,8 C 0,0 km/h (0 Bft) 100,00 %
06.02.2017 03:36 1,8 C 94 % 1005,2 hPa 0,0 l/m 0,9 km/h (0 Bft) O-NO 57 0 min 0,000 mm 0,0 UV-I 0 W/m 0,9 C 1,8 C 3,2 km/h (1 Bft) 100,00 %
06.02.2017 03:38 1,8 C 93 % 1005,2 hPa 0,0 l/m 1,8 km/h (1 Bft) O-NO 57 0 min 0,000 mm 0,0 UV-I 0 W/m 0,8 C 1,8 C 3,2 km/h (1 Bft) 94,74 %
06.02.2017 03:40 1,8 C 93 % 1005,3 hPa 0,0 l/m 2,4 km/h (1 Bft) O-NO 57 0 min 0,000 mm 0,0 UV-I 0 W/m 0,8 C 1,8 C 3,2 km/h (1 Bft) 100,00 %
06.02.2017 03:42 1,8 C 94 % 1005,3 hPa 0,0 l/m 2,2 km/h (1 Bft) NO 40 0 min 0,000 mm 0,0 UV-I 0 W/m 0,9 C 1,8 C 3,2 km/h (1 Bft) 100,00 %
06.02.2017 03:44 1,8 C 94 % 1005,4 hPa 0,0 l/m 1,2 km/h (1 Bft) NO 40 0 min 0,000 mm 0,0 UV-I 0 W/m 0,9 C 1,8 C 3,2 km/h (1 Bft) 100,00 %
06.02.2017 03:46 1,8 C 94 % 1005,4 hPa 0,0 l/m 0,0 km/h (0 Bft) NO 40 0 min 0,000 mm 0,0 UV-I 0 W/m 0,9 C 1,8 C 0,0 km/h (0 Bft) 100,00 %
06.02.2017 03:48 1,8 C 94 % 1005,4 hPa 0,0 l/m 0,5 km/h (0 Bft) NO 40 0 min 0,000 mm 0,0 UV-I 0 W/m 0,9 C 1,8 C 1,6 km/h (1 Bft) 100,00 %
06.02.2017 03:50 1,8 C 94 % 1005,4 hPa 0,0 l/m 0,8 km/h (0 Bft) NO 40 0 min 0,000 mm 0,0 UV-I 0 W/m 0,9 C 1,8 C 1,6 km/h (1 Bft) 100,00 %
06.02.2017 03:52 1,8 C 93 % 1005,5 hPa 0,0 l/m 1,3 km/h (1 Bft) NO 40 0 min 0,000 mm 0,0 UV-I 0 W/m 0,8 C 1,8 C 3,2 km/h (1 Bft) 100,00 %
06.02.2017 03:54 1,8 C 93 % 1005,5 hPa 0,0 l/m 0,6 km/h (0 Bft) NO 40 0 min 0,000 mm 0,0 UV-I 0 W/m 0,8 C 1,8 C 1,6 km/h (1 Bft) 97,87 %
06.02.2017 03:56 1,7 C 93 % 1005,5 hPa 0,0 l/m 0,7 km/h (0 Bft) NO 40 0 min 0,000 mm 0,0 UV-I 0 W/m 0,7 C 1,7 C 3,2 km/h (1 Bft) 100,00 %
06.02.2017 03:58 1,7 C 93 % 1005,5 hPa 0,0 l/m 1,4 km/h (1 Bft) NO 40 0 min 0,000 mm 0,0 UV-I 0 W/m 0,7 C 1,7 C 3,2 km/h (1 Bft) 100,00 %
06.02.2017 04:00 1,7 C 93 % 1005,5 hPa 0,0 l/m 1,9 km/h (1 Bft) NO 40 0 min 0,000 mm 0,0 UV-I 0 W/m 0,7 C 1,7 C 3,2 km/h (1 Bft) 100,00 %
06.02.2017 04:02 1,7 C 93 % 1005,6 hPa 0,0 l/m 1,0 km/h (0 Bft) NO 40 0 min 0,000 mm 0,0 UV-I 0 W/m 0,7 C 1,7 C 1,6 km/h (1 Bft) 96,15 %
06.02.2017 04:04 1,7 C 93 % 1005,6 hPa 0,0 l/m 0,6 km/h (0 Bft) NO 40 0 min 0,000 mm 0,0 UV-I 0 W/m 0,7 C 1,7 C 1,6 km/h (1 Bft) 100,00 %
06.02.2017 04:06 1,7 C 93 % 1005,6 hPa 0,0 l/m 0,1 km/h (0 Bft) NO 40 0 min 0,000 mm 0,0 UV-I 0 W/m 0,7 C 1,7 C 1,6 km/h (1 Bft) 100,00 %
06.02.2017 04:08 1,7 C 93 % 1005,7 hPa 0,0 l/m 1,6 km/h (1 Bft) NO 39 0 min 0,000 mm 0,0 UV-I 0 W/m 0,7 C 1,7 C 3,2 km/h (1 Bft) 100,00 %
06.02.2017 04:10 1,7 C 93 % 1005,7 hPa 0,0 l/m 2,7 km/h (1 Bft) NW 325 0 min 0,000 mm 0,0 UV-I 0 W/m 0,7 C 1,7 C 4,8 km/h (1 Bft) 100,00 %
06.02.2017 04:12 1,7 C 93 % 1005,8 hPa 0,0 l/m 1,5 km/h (1 Bft) NW 325 0 min 0,000 mm 0,0 UV-I 0 W/m 0,7 C 1,7 C 3,2 km/h (1 Bft) 100,00 %
06.02.2017 04:14 1,7 C 93 % 1005,7 hPa 0,0 l/m 2,9 km/h (1 Bft) W 274 0 min 0,000 mm 0,0 UV-I 0 W/m 0,7 C 1,7 C 4,8 km/h (1 Bft) 100,00 %
06.02.2017 04:16 1,7 C 93 % 1005,8 hPa 0,0 l/m 2,4 km/h (1 Bft) W 274 0 min 0,000 mm 0,0 UV-I 0 W/m 0,7 C 1,7 C 3,2 km/h (1 Bft) 100,00 %
06.02.2017 04:18 1,7 C 93 % 1005,9 hPa 0,0 l/m 1,9 km/h (1 Bft) W 274 0 min 0,000 mm 0,0 UV-I 0 W/m 0,7 C 1,7 C 3,2 km/h (1 Bft) 97,87 %
06.02.2017 04:20 1,7 C 93 % 1005,9 hPa 0,0 l/m 1,1 km/h (1 Bft) W 274 0 min 0,000 mm 0,0 UV-I 0 W/m 0,7 C 1,7 C 3,2 km/h (1 Bft) 100,00 %
06.02.2017 04:22 1,7 C 93 % 1005,9 hPa 0,0 l/m 1,0 km/h (0 Bft) W 274 0 min 0,000 mm 0,0 UV-I 0 W/m 0,7 C 1,7 C 3,2 km/h (1 Bft) 100,00 %
06.02.2017 04:24 1,7 C 93 % 1005,9 hPa 0,0 l/m 0,0 km/h (0 Bft) W 274 0 min 0,000 mm 0,0 UV-I 0 W/m 0,7 C 1,7 C 0,0 km/h (0 Bft) 100,00 %
06.02.2017 04:26 1,6 C 93 % 1005,9 hPa 0,0 l/m 0,0 km/h (0 Bft) W 274 0 min 0,000 mm 0,0 UV-I 0 W/m 0,6 C 1,6 C 0,0 km/h (0 Bft) 100,00 %
06.02.2017 04:28 1,6 C 93 % 1005,9 hPa 0,0 l/m 0,1 km/h (0 Bft) W 274 0 min 0,000 mm 0,0 UV-I 0 W/m 0,6 C 1,6 C 1,6 km/h (1 Bft) 100,00 %
06.02.2017 04:30 1,6 C 93 % 1006,0 hPa 0,0 l/m 0,1 km/h (0 Bft) W 274 0 min 0,000 mm 0,0 UV-I 0 W/m 0,6 C 1,6 C 1,6 km/h (1 Bft) 100,00 %
06.02.2017 04:32 1,6 C 93 % 1006,0 hPa 0,0 l/m 1,0 km/h (0 Bft) W 274 0 min 0,000 mm 0,0 UV-I 0 W/m 0,6 C 1,6 C 3,2 km/h (1 Bft) 100,00 %
06.02.2017 04:34 1,6 C 93 % 1006,0 hPa 0,0 l/m 1,5 km/h (1 Bft) W 274 0 min 0,000 mm 0,0 UV-I 0 W/m 0,6 C 1,6 C 3,2 km/h (1 Bft) 98,00 %
06.02.2017 04:36 1,7 C 93 % 1006,1 hPa 0,0 l/m 1,4 km/h (1 Bft) W 274 0 min 0,000 mm 0,0 UV-I 0 W/m 0,7 C 1,7 C 3,2 km/h (1 Bft) 98,11 %
06.02.2017 04:38 1,7 C 93 % 1006,2 hPa 0,0 l/m 1,0 km/h (0 Bft) W 274 0 min 0,000 mm 0,0 UV-I 0 W/m 0,7 C 1,7 C 1,6 km/h (1 Bft) 100,00 %
06.02.2017 04:40 1,7 C 93 % 1006,2 hPa 0,0 l/m 0,1 km/h (0 Bft) W 274 0 min 0,000 mm 0,0 UV-I 0 W/m 0,7 C 1,7 C 1,6 km/h (1 Bft) 100,00 %
06.02.2017 04:42 1,6 C 93 % 1006,2 hPa 0,0 l/m 0,0 km/h (0 Bft) W 274 0 min 0,000 mm 0,0 UV-I 0 W/m 0,6 C 1,6 C 0,0 km/h (0 Bft) 97,87 %
06.02.2017 04:44 1,6 C 93 % 1006,2 hPa 0,0 l/m 0,1 km/h (0 Bft) W 274 0 min 0,000 mm 0,0 UV-I 0 W/m 0,6 C 1,6 C 1,6 km/h (1 Bft) 100,00 %
06.02.2017 04:46 1,6 C 93 % 1006,2 hPa 0,0 l/m 0,0 km/h (0 Bft) W 274 0 min 0,000 mm 0,0 UV-I 0 W/m 0,6 C 1,6 C 1,6 km/h (1 Bft) 97,87 %
06.02.2017 04:48 1,6 C 93 % 1006,3 hPa 0,0 l/m 0,7 km/h (0 Bft) W 274 0 min 0,000 mm 0,0 UV-I 0 W/m 0,6 C 1,6 C 1,6 km/h (1 Bft) 97,56 %
06.02.2017 04:50 1,6 C 93 % 1006,3 hPa 0,0 l/m 0,1 km/h (0 Bft) W 274 0 min 0,000 mm 0,0 UV-I 0 W/m 0,6 C 1,6 C 1,6 km/h (1 Bft) 96,61 %
06.02.2017 04:52 1,5 C 93 % 1006,3 hPa 0,0 l/m 0,1 km/h (0 Bft) W 274 0 min 0,000 mm 0,0 UV-I 0 W/m 0,5 C 1,5 C 1,6 km/h (1 Bft) 97,44 %
06.02.2017 04:54 1,4 C 93 % 1006,3 hPa 0,0 l/m 0,7 km/h (0 Bft) W 274 0 min 0,000 mm 0,0 UV-I 0 W/m 0,4 C 1,4 C 1,6 km/h (1 Bft) 97,73 %
06.02.2017 04:56 1,4 C 93 % 1006,3 hPa 0,0 l/m 0,2 km/h (0 Bft) W 274 0 min 0,000 mm 0,0 UV-I 0 W/m 0,4 C 1,4 C 1,6 km/h (1 Bft) 97,87 %
06.02.2017 04:58 1,4 C 93 % 1006,3 hPa 0,0 l/m 0,8 km/h (0 Bft) W 274 0 min 0,000 mm 0,0 UV-I 0 W/m 0,4 C 1,4 C 1,6 km/h (1 Bft) 96,00 %
06.02.2017 05:00 1,4 C 93 % 1006,3 hPa 0,0 l/m 0,2 km/h (0 Bft) W 274 0 min 0,000 mm 0,0 UV-I 0 W/m 0,4 C 1,4 C 1,6 km/h (1 Bft) 98,00 %
06.02.2017 05:02 1,4 C 93 % 1006,4 hPa 0,0 l/m 0,3 km/h (0 Bft) W 274 0 min 0,000 mm 0,0 UV-I 0 W/m 0,4 C 1,4 C 1,6 km/h (1 Bft) 97,87 %
06.02.2017 05:04 1,4 C 94 % 1006,5 hPa 0,0 l/m 0,0 km/h (0 Bft) W 274 0 min 0,000 mm 0,0 UV-I 0 W/m 0,5 C 1,4 C 0,0 km/h (0 Bft) 97,87 %
06.02.2017 05:06 1,4 C 94 % 1006,6 hPa 0,2 l/m 0,0 km/h (0 Bft) W 274 0 min 0,000 mm 0,0 UV-I 0 W/m 0,5 C 1,4 C 0,0 km/h (0 Bft) 97,37 %
06.02.2017 05:08 1,4 C 94 % 1006,5 hPa 0,0 l/m 1,2 km/h (1 Bft) W 274 0 min 0,000 mm 0,0 UV-I 0 W/m 0,5 C 1,4 C 3,2 km/h (1 Bft) 96,23 %
06.02.2017 05:10 1,4 C 94 % 1006,6 hPa 0,0 l/m 2,0 km/h (1 Bft) W 274 0 min 0,000 mm 0,0 UV-I 0 W/m 0,5 C 1,4 C 3,2 km/h (1 Bft) 97,87 %
06.02.2017 05:12 1,4 C 94 % 1006,6 hPa 0,0 l/m 1,4 km/h (1 Bft) W 274 0 min 0,000 mm 0,0 UV-I 0 W/m 0,5 C 1,4 C 3,2 km/h (1 Bft) 97,56 %
06.02.2017 05:14 1,4 C 94 % 1006,6 hPa 0,0 l/m 1,6 km/h (1 Bft) W 274 0 min 0,000 mm 0,0 UV-I 0 W/m 0,5 C 1,4 C 3,2 km/h (1 Bft) 94,00 %
06.02.2017 05:16 1,4 C 94 % 1006,7 hPa 0,0 l/m 1,2 km/h (1 Bft) W 274 0 min 0,000 mm 0,0 UV-I 0 W/m 0,5 C 1,4 C 3,2 km/h (1 Bft) 95,74 %
06.02.2017 05:18 1,4 C 94 % 1006,7 hPa 0,0 l/m 0,9 km/h (0 Bft) W 274 0 min 0,000 mm 0,0 UV-I 0 W/m 0,5 C 1,4 C 1,6 km/h (1 Bft) 95,74 %
06.02.2017 05:20 1,4 C 94 % 1006,8 hPa 0,0 l/m 0,8 km/h (0 Bft) W 274 0 min 0,000 mm 0,0 UV-I 0 W/m 0,5 C 1,4 C 1,6 km/h (1 Bft) 98,11 %
06.02.2017 05:22 1,4 C 94 % 1006,8 hPa 0,0 l/m 0,9 km/h (0 Bft) W 274 0 min 0,000 mm 0,0 UV-I 0 W/m 0,5 C 1,4 C 3,2 km/h (1 Bft) 97,62 %
06.02.2017 05:24 1,3 C 94 % 1006,8 hPa 0,0 l/m 1,7 km/h (1 Bft) W 274 0 min 0,000 mm 0,0 UV-I 0 W/m 0,4 C 1,3 C 3,2 km/h (1 Bft) 97,87 %
06.02.2017 05:26 1,3 C 94 % 1006,8 hPa 0,0 l/m 1,2 km/h (1 Bft) W 274 0 min 0,000 mm 0,0 UV-I 0 W/m 0,4 C 1,3 C 3,2 km/h (1 Bft) 97,37 %
06.02.2017 05:28 1,3 C 95 % 1006,9 hPa 0,0 l/m 0,6 km/h (0 Bft) W 274 0 min 0,000 mm 0,0 UV-I 0 W/m 0,6 C 1,3 C 1,6 km/h (1 Bft) 96,77 %
06.02.2017 05:30 1,3 C 95 % 1006,9 hPa 0,0 l/m 0,4 km/h (0 Bft) W 274 0 min 0,000 mm 0,0 UV-I 0 W/m 0,6 C 1,3 C 1,6 km/h (1 Bft) 100,00 %
06.02.2017 05:32 1,3 C 95 % 1006,9 hPa 0,0 l/m 1,3 km/h (1 Bft) W 274 0 min 0,000 mm 0,0 UV-I 0 W/m 0,6 C 1,3 C 3,2 km/h (1 Bft) 100,00 %
06.02.2017 05:34 1,3 C 95 % 1006,9 hPa 0,0 l/m 2,1 km/h (1 Bft) SW 215 0 min 0,000 mm 0,0 UV-I 0 W/m 0,6 C 1,3 C 6,4 km/h (2 Bft) 100,00 %
06.02.2017 05:36 1,4 C 95 % 1007,0 hPa 0,0 l/m 2,1 km/h (1 Bft) S-SW 194 0 min 0,000 mm 0,0 UV-I 0 W/m 0,7 C 1,4 C 4,8 km/h (1 Bft) 100,00 %
06.02.2017 05:38 1,4 C 95 % 1007,0 hPa 0,0 l/m 2,0 km/h (1 Bft) S-SW 194 0 min 0,000 mm 0,0 UV-I 0 W/m 0,7 C 1,4 C 3,2 km/h (1 Bft) 98,00 %
06.02.2017 05:40 1,4 C 95 % 1007,0 hPa 0,0 l/m 1,6 km/h (1 Bft) S-SW 194 0 min 0,000 mm 0,0 UV-I 0 W/m 0,7 C 1,4 C 3,2 km/h (1 Bft) 97,37 %
06.02.2017 05:42 1,4 C 95 % 1007,0 hPa 0,0 l/m 2,0 km/h (1 Bft) S-SW 194 0 min 0,000 mm 0,0 UV-I 0 W/m 0,7 C 1,4 C 3,2 km/h (1 Bft) 100,00 %
06.02.2017 05:44 1,4 C 95 % 1007,1 hPa 0,0 l/m 0,8 km/h (0 Bft) S-SW 194 0 min 0,000 mm 0,0 UV-I 0 W/m 0,7 C 1,4 C 3,2 km/h (1 Bft) 97,87 %
06.02.2017 05:46 1,4 C 95 % 1007,1 hPa 0,0 l/m 1,3 km/h (1 Bft) S-SW 194 0 min 0,000 mm 0,0 UV-I 0 W/m 0,7 C 1,4 C 3,2 km/h (1 Bft) 96,00 %
06.02.2017 05:48 1,4 C 95 % 1007,2 hPa 0,0 l/m 2,0 km/h (1 Bft) S-SW 195 0 min 0,000 mm 0,0 UV-I 0 W/m 0,7 C 1,4 C 3,2 km/h (1 Bft) 100,00 %
06.02.2017 05:50 1,4 C 95 % 1007,2 hPa 0,0 l/m 1,6 km/h (1 Bft) S-SW 194 0 min 0,000 mm 0,0 UV-I 0 W/m 0,7 C 1,4 C 3,2 km/h (1 Bft) 100,00 %
06.02.2017 05:52 1,4 C 95 % 1007,2 hPa 0,0 l/m 0,0 km/h (0 Bft) S-SW 194 0 min 0,000 mm 0,0 UV-I 0 W/m 0,7 C 1,4 C 1,6 km/h (1 Bft) 100,00 %
06.02.2017 05:54 1,4 C 95 % 1007,2 hPa 0,0 l/m 1,2 km/h (1 Bft) S-SW 195 0 min 0,000 mm 0,0 UV-I 0 W/m 0,7 C 1,4 C 3,2 km/h (1 Bft) 97,37 %
06.02.2017 05:56 1,4 C 95 % 1007,3 hPa 0,0 l/m 1,1 km/h (1 Bft) S-SW 194 0 min 0,000 mm 0,0 UV-I 0 W/m 0,7 C 1,4 C 3,2 km/h (1 Bft) 100,00 %
06.02.2017 05:58 1,4 C 95 % 1007,3 hPa 0,0 l/m 1,4 km/h (1 Bft) S-SW 194 0 min 0,000 mm 0,0 UV-I 0 W/m 0,7 C 1,4 C 3,2 km/h (1 Bft) 100,00 %
06.02.2017 06:00 1,4 C 95 % 1007,4 hPa 0,2 l/m 1,6 km/h (1 Bft) S-SW 194 0 min 0,000 mm 0,0 UV-I 0 W/m 0,7 C 1,4 C 3,2 km/h (1 Bft) 98,00 %
06.02.2017 06:02 1,4 C 95 % 1007,4 hPa 0,0 l/m 1,5 km/h (1 Bft) S-SW 194 0 min 0,000 mm 0,0 UV-I 0 W/m 0,7 C 1,4 C 3,2 km/h (1 Bft) 100,00 %
06.02.2017 06:04 1,4 C 95 % 1007,5 hPa 0,0 l/m 2,4 km/h (1 Bft) S-SW 195 0 min 0,000 mm 0,0 UV-I 0 W/m 0,7 C 1,4 C 3,2 km/h (1 Bft) 98,00 %
06.02.2017 06:06 1,4 C 95 % 1007,4 hPa 0,0 l/m 3,1 km/h (1 Bft) W-SW 246 0 min 0,000 mm 0,0 UV-I 0 W/m 0,7 C 1,4 C 4,8 km/h (1 Bft) 100,00 %
06.02.2017 06:08 1,4 C 95 % 1007,5 hPa 0,0 l/m 3,0 km/h (1 Bft) W-SW 252 0 min 0,000 mm 0,0 UV-I 0 W/m 0,7 C 1,4 C 4,8 km/h (1 Bft) 100,00 %
06.02.2017 06:10 1,5 C 96 % 1007,5 hPa 0,0 l/m 3,8 km/h (1 Bft) W-SW 238 0 min 0,000 mm 0,0 UV-I 0 W/m 0,9 C 1,5 C 6,4 km/h (2 Bft) 100,00 %
06.02.2017 06:12 1,6 C 96 % 1007,6 hPa 0,0 l/m 2,8 km/h (1 Bft) W-SW 241 0 min 0,000 mm 0,0 UV-I 0 W/m 1,0 C 1,6 C 4,8 km/h (1 Bft) 97,87 %
06.02.2017 06:14 1,6 C 96 % 1007,6 hPa 0,0 l/m 2,6 km/h (1 Bft) W-SW 241 0 min 0,000 mm 0,0 UV-I 0 W/m 1,0 C 1,6 C 3,2 km/h (1 Bft) 97,56 %
06.02.2017 06:16 1,6 C 96 % 1007,7 hPa 0,0 l/m 2,2 km/h (1 Bft) W-SW 241 0 min 0,000 mm 0,0 UV-I 0 W/m 1,0 C 1,6 C 4,8 km/h (1 Bft) 100,00 %
06.02.2017 06:18 1,5 C 96 % 1007,7 hPa 0,0 l/m 2,5 km/h (1 Bft) W-SW 241 0 min 0,000 mm 0,0 UV-I 0 W/m 0,9 C 1,5 C 4,8 km/h (1 Bft) 94,00 %
06.02.2017 06:20 1,5 C 96 % 1007,7 hPa 0,0 l/m 1,5 km/h (1 Bft) W-SW 241 0 min 0,000 mm 0,0 UV-I 0 W/m 0,9 C 1,5 C 3,2 km/h (1 Bft) 100,00 %
06.02.2017 06:22 1,5 C 96 % 1007,7 hPa 0,0 l/m 0,4 km/h (0 Bft) W-SW 241 0 min 0,000 mm 0,0 UV-I 0 W/m 0,9 C 1,5 C 3,2 km/h (1 Bft) 100,00 %
06.02.2017 06:24 1,6 C 96 % 1007,9 hPa 0,0 l/m 0,9 km/h (0 Bft) W-SW 241 0 min 0,000 mm 0,0 UV-I 0 W/m 1,0 C 1,6 C 3,2 km/h (1 Bft) 100,00 %
06.02.2017 06:26 1,5 C 96 % 1007,9 hPa 0,2 l/m 0,9 km/h (0 Bft) W-SW 241 0 min 0,000 mm 0,0 UV-I 0 W/m 0,9 C 1,5 C 3,2 km/h (1 Bft) 97,56 %
06.02.2017 06:28 1,5 C 96 % 1007,9 hPa 0,0 l/m 1,2 km/h (1 Bft) W-SW 241 0 min 0,000 mm 0,0 UV-I 0 W/m 0,9 C 1,5 C 3,2 km/h (1 Bft) 100,00 %
06.02.2017 06:30 1,5 C 96 % 1007,9 hPa 0,0 l/m 1,7 km/h (1 Bft) W-SW 241 0 min 0,000 mm 0,0 UV-I 0 W/m 0,9 C 1,5 C 3,2 km/h (1 Bft) 100,00 %
06.02.2017 06:33 1,5 C 96 % 1008,0 hPa 0,0 l/m 1,2 km/h (1 Bft) W-SW 241 0 min 0,000 mm 0,0 UV-I 0 W/m 0,9 C 1,5 C 3,2 km/h (1 Bft) 100,00 %
06.02.2017 06:34 1,5 C 96 % 1008,0 hPa 0,0 l/m 1,1 km/h (1 Bft) W-SW 241 0 min 0,000 mm 0,0 UV-I 0 W/m 0,9 C 1,5 C 1,6 km/h (1 Bft) 100,00 %
06.02.2017 06:36 1,5 C 96 % 1008,1 hPa 0,0 l/m 0,8 km/h (0 Bft) W-SW 241 0 min 0,000 mm 0,0 UV-I 0 W/m 0,9 C 1,5 C 1,6 km/h (1 Bft) 100,00 %
06.02.2017 06:38 1,5 C 96 % 1008,1 hPa 0,0 l/m 0,0 km/h (0 Bft) W-SW 241 0 min 0,000 mm 0,0 UV-I 0 W/m 0,9 C 1,5 C 0,0 km/h (0 Bft) 100,00 %
06.02.2017 06:40 1,5 C 96 % 1008,1 hPa 0,0 l/m 0,0 km/h (0 Bft) W-SW 241 0 min 0,000 mm 0,0 UV-I 0 W/m 0,9 C 1,5 C 0,0 km/h (0 Bft) 98,44 %
06.02.2017 06:42 1,6 C 96 % 1008,2 hPa 0,0 l/m 0,0 km/h (0 Bft) W-SW 241 0 min 0,000 mm 0,0 UV-I 0 W/m 1,0 C 1,6 C 0,0 km/h (0 Bft) 97,87 %
06.02.2017 06:44 1,6 C 96 % 1008,3 hPa 0,0 l/m 0,0 km/h (0 Bft) W-SW 241 0 min 0,000 mm 0,0 UV-I 0 W/m 1,0 C 1,6 C 0,0 km/h (0 Bft) 97,87 %
06.02.2017 06:46 1,6 C 96 % 1008,3 hPa 0,0 l/m 0,0 km/h (0 Bft) W-SW 241 0 min 0,000 mm 0,0 UV-I 0 W/m 1,0 C 1,6 C 0,0 km/h (0 Bft) 100,00 %
06.02.2017 06:48 1,6 C 96 % 1008,3 hPa 0,0 l/m 0,0 km/h (0 Bft) W-SW 241 0 min 0,000 mm 0,0 UV-I 0 W/m 1,0 C 1,6 C 0,0 km/h (0 Bft) 100,00 %
06.02.2017 06:50 1,6 C 96 % 1008,4 hPa 0,0 l/m 0,0 km/h (0 Bft) W-SW 241 0 min 0,000 mm 0,0 UV-I 0 W/m 1,0 C 1,6 C 0,0 km/h (0 Bft) 100,00 %
06.02.2017 06:52 1,6 C 96 % 1008,4 hPa 0,0 l/m 0,6 km/h (0 Bft) W-SW 241 0 min 0,000 mm 0,0 UV-I 0 W/m 1,0 C 1,6 C 3,2 km/h (1 Bft) 100,00 %
06.02.2017 06:54 1,6 C 96 % 1008,5 hPa 0,0 l/m 1,6 km/h (1 Bft) W-SW 241 0 min 0,000 mm 0,0 UV-I 0 W/m 1,0 C 1,6 C 3,2 km/h (1 Bft) 100,00 %
06.02.2017 06:56 1,6 C 96 % 1008,4 hPa 0,0 l/m 0,2 km/h (0 Bft) W-SW 241 0 min 0,000 mm 0,0 UV-I 0 W/m 1,0 C 1,6 C 1,6 km/h (1 Bft) 100,00 %
06.02.2017 06:58 1,5 C 96 % 1008,5 hPa 0,2 l/m 1,1 km/h (1 Bft) W-SW 241 0 min 0,000 mm 0,0 UV-I 0 W/m 0,9 C 1,5 C 3,2 km/h (1 Bft) 97,87 %
06.02.2017 07:00 1,5 C 96 % 1008,5 hPa 0,0 l/m 0,1 km/h (0 Bft) W-SW 241 0 min 0,000 mm 0,0 UV-I 0 W/m 0,9 C 1,5 C 1,6 km/h (1 Bft) 95,74 %
06.02.2017 07:02 1,5 C 96 % 1008,6 hPa 0,0 l/m 0,0 km/h (0 Bft) W-SW 241 0 min 0,000 mm 0,0 UV-I 0 W/m 0,9 C 1,5 C 0,0 km/h (0 Bft) 97,87 %
06.02.2017 07:04 1,4 C 96 % 1008,6 hPa 0,0 l/m 0,0 km/h (0 Bft) W-SW 241 0 min 0,000 mm 0,0 UV-I 0 W/m 0,8 C 1,4 C 0,0 km/h (0 Bft) 97,87 %
06.02.2017 07:06 1,5 C 96 % 1008,6 hPa 0,0 l/m 0,0 km/h (0 Bft) W-SW 241 0 min 0,000 mm 0,0 UV-I 0 W/m 0,9 C 1,5 C 0,0 km/h (0 Bft) 97,14 %
06.02.2017 07:08 1,4 C 96 % 1008,7 hPa 0,0 l/m 0,6 km/h (0 Bft) W-SW 241 0 min 0,000 mm 0,0 UV-I 0 W/m 0,8 C 1,4 C 3,2 km/h (1 Bft) 98,21 %
06.02.2017 07:10 1,4 C 96 % 1008,7 hPa 0,0 l/m 1,4 km/h (1 Bft) W-SW 241 0 min 0,000 mm 0,0 UV-I 0 W/m 0,8 C 1,4 C 3,2 km/h (1 Bft) 98,00 %
06.02.2017 07:12 1,4 C 96 % 1008,8 hPa 0,2 l/m 1,5 km/h (1 Bft) W-SW 241 0 min 0,000 mm 0,0 UV-I 0 W/m 0,8 C 1,4 C 3,2 km/h (1 Bft) 94,29 %
06.02.2017 07:14 1,4 C 96 % 1008,8 hPa 0,0 l/m 1,4 km/h (1 Bft) W-SW 241 0 min 0,000 mm 0,0 UV-I 0 W/m 0,8 C 1,4 C 3,2 km/h (1 Bft) 98,11 %
06.02.2017 07:16 1,4 C 96 % 1008,9 hPa 0,0 l/m 1,0 km/h (0 Bft) W-SW 241 0 min 0,000 mm 0,0 UV-I 0 W/m 0,8 C 1,4 C 1,6 km/h (1 Bft) 93,62 %
06.02.2017 07:18 1,4 C 96 % 1008,9 hPa 0,0 l/m 1,8 km/h (1 Bft) W-SW 241 0 min 0,000 mm 0,0 UV-I 0 W/m 0,8 C 1,4 C 3,2 km/h (1 Bft) 98,00 %
06.02.2017 07:20 1,4 C 96 % 1008,9 hPa 0,0 l/m 1,3 km/h (1 Bft) W-SW 241 0 min 0,000 mm 0,0 UV-I 0 W/m 0,8 C 1,4 C 3,2 km/h (1 Bft) 95,45 %
06.02.2017 07:22 1,4 C 96 % 1008,9 hPa 0,0 l/m 1,2 km/h (1 Bft) W-SW 241 0 min 0,000 mm 0,0 UV-I 0 W/m 0,8 C 1,4 C 1,6 km/h (1 Bft) 98,00 %
06.02.2017 07:24 1,4 C 96 % 1009,0 hPa 0,0 l/m 0,4 km/h (0 Bft) W-SW 241 0 min 0,000 mm 0,0 UV-I 0 W/m 0,8 C 1,4 C 3,2 km/h (1 Bft) 97,37 %
06.02.2017 07:26 1,4 C 96 % 1009,1 hPa 0,0 l/m 0,9 km/h (0 Bft) W-SW 241 0 min 0,000 mm 0,0 UV-I 0 W/m 0,8 C 1,4 C 1,6 km/h (1 Bft) 97,87 %
06.02.2017 07:28 1,4 C 96 % 1009,1 hPa 0,2 l/m 1,7 km/h (1 Bft) W-SW 241 0 min 0,000 mm 0,0 UV-I 0 W/m 0,8 C 1,4 C 3,2 km/h (1 Bft) 98,00 %
06.02.2017 07:30 1,3 C 96 % 1009,1 hPa 0,0 l/m 1,8 km/h (1 Bft) W-SW 241 0 min 0,000 mm 0,0 UV-I 5 W/m 0,7 C 1,3 C 3,2 km/h (1 Bft) 97,87 %
06.02.2017 07:32 1,3 C 96 % 1009,1 hPa 0,0 l/m 1,2 km/h (1 Bft) W-SW 241 0 min 0,000 mm 0,0 UV-I 5 W/m 0,7 C 1,3 C 3,2 km/h (1 Bft) 97,87 %
06.02.2017 07:34 1,3 C 96 % 1009,2 hPa 0,0 l/m 1,9 km/h (1 Bft) W-SW 241 0 min 0,000 mm 0,0 UV-I 5 W/m 0,7 C 1,3 C 3,2 km/h (1 Bft) 95,12 %
06.02.2017 07:36 1,3 C 96 % 1009,2 hPa 0,2 l/m 2,1 km/h (1 Bft) W-SW 241 0 min 0,000 mm 0,0 UV-I 6 W/m 0,7 C 1,3 C 4,8 km/h (1 Bft) 98,11 %
06.02.2017 07:38 1,3 C 96 % 1009,3 hPa 0,0 l/m 1,4 km/h (1 Bft) W-SW 241 0 min 0,000 mm 0,0 UV-I 7 W/m 0,7 C 1,3 C 3,2 km/h (1 Bft) 96,23 %
06.02.2017 07:40 1,3 C 96 % 1009,2 hPa 0,0 l/m 1,6 km/h (1 Bft) W-SW 241 0 min 0,000 mm 0,0 UV-I 7 W/m 0,7 C 1,3 C 3,2 km/h (1 Bft) 95,74 %
06.02.2017 07:42 1,3 C 96 % 1009,3 hPa 0,0 l/m 1,5 km/h (1 Bft) W-SW 241 0 min 0,000 mm 0,0 UV-I 7 W/m 0,7 C 1,3 C 3,2 km/h (1 Bft) 97,87 %
06.02.2017 07:44 1,3 C 97 % 1009,4 hPa 0,0 l/m 1,4 km/h (1 Bft) W-SW 241 0 min 0,000 mm 0,0 UV-I 9 W/m 0,9 C 1,3 C 3,2 km/h (1 Bft) 97,87 %
06.02.2017 07:46 1,3 C 97 % 1009,4 hPa 0,0 l/m 2,2 km/h (1 Bft) W-SW 241 0 min 0,000 mm 0,0 UV-I 9 W/m 0,9 C 1,3 C 4,8 km/h (1 Bft) 100,00 %
06.02.2017 07:48 1,3 C 97 % 1009,4 hPa 0,0 l/m 2,3 km/h (1 Bft) W-SW 241 0 min 0,000 mm 0,0 UV-I 11 W/m 0,9 C 1,3 C 4,8 km/h (1 Bft) 100,00 %
06.02.2017 07:50 1,3 C 97 % 1009,5 hPa 0,0 l/m 2,1 km/h (1 Bft) W-SW 241 0 min 0,000 mm 0,0 UV-I 11 W/m 0,9 C 1,3 C 3,2 km/h (1 Bft) 98,11 %
06.02.2017 07:52 1,3 C 97 % 1009,5 hPa 0,0 l/m 2,8 km/h (1 Bft) W-SW 241 0 min 0,000 mm 0,0 UV-I 11 W/m 0,9 C 1,3 C 3,2 km/h (1 Bft) 97,37 %
06.02.2017 07:54 1,3 C 97 % 1009,5 hPa 0,2 l/m 2,3 km/h (1 Bft) W-SW 241 0 min 0,000 mm 0,0 UV-I 11 W/m 0,9 C 1,3 C 3,2 km/h (1 Bft) 97,87 %
06.02.2017 07:56 1,3 C 97 % 1009,5 hPa 0,0 l/m 2,7 km/h (1 Bft) W-SW 241 0 min 0,000 mm 0,0 UV-I 12 W/m 0,9 C 1,3 C 4,8 km/h (1 Bft) 100,00 %
06.02.2017 07:58 1,3 C 97 % 1009,6 hPa 0,0 l/m 2,3 km/h (1 Bft) W-SW 241 0 min 0,000 mm 0,0 UV-I 12 W/m 0,9 C 1,3 C 3,2 km/h (1 Bft) 100,00 %
06.02.2017 08:00 1,3 C 97 % 1009,7 hPa 0,0 l/m 3,0 km/h (1 Bft) W-SW 241 0 min 0,000 mm 0,0 UV-I 12 W/m 0,9 C 1,3 C 4,8 km/h (1 Bft) 95,83 %
06.02.2017 08:02 1,3 C 97 % 1009,7 hPa 0,0 l/m 2,5 km/h (1 Bft) W-SW 241 0 min 0,000 mm 0,0 UV-I 14 W/m 0,9 C 1,3 C 4,8 km/h (1 Bft) 98,00 %
06.02.2017 08:04 1,3 C 97 % 1009,8 hPa 0,2 l/m 1,2 km/h (1 Bft) W-SW 241 0 min 0,000 mm 0,0 UV-I 14 W/m 0,9 C 1,3 C 3,2 km/h (1 Bft) 100,00 %
06.02.2017 08:06 1,3 C 97 % 1009,8 hPa 0,0 l/m 1,7 km/h (1 Bft) W-SW 241 0 min 0,000 mm 0,0 UV-I 16 W/m 0,9 C 1,3 C 3,2 km/h (1 Bft) 97,92 %
06.02.2017 08:08 1,3 C 97 % 1009,8 hPa 0,0 l/m 1,6 km/h (1 Bft) W-SW 241 0 min 0,000 mm 0,0 UV-I 19 W/m 0,9 C 1,3 C 3,2 km/h (1 Bft) 100,00 %
06.02.2017 08:10 1,3 C 97 % 1009,8 hPa 0,0 l/m 2,4 km/h (1 Bft) W-SW 241 0 min 0,000 mm 0,0 UV-I 22 W/m 0,9 C 1,3 C 3,2 km/h (1 Bft) 98,11 %
06.02.2017 08:12 1,3 C 97 % 1009,9 hPa 0,0 l/m 3,0 km/h (1 Bft) W-SW 241 0 min 0,000 mm 0,0 UV-I 25 W/m 0,9 C 1,3 C 4,8 km/h (1 Bft) 94,00 %
06.02.2017 08:14 1,3 C 97 % 1009,9 hPa 0,0 l/m 3,3 km/h (1 Bft) W-SW 241 0 min 0,000 mm 0,0 UV-I 27 W/m 0,9 C 1,3 C 4,8 km/h (1 Bft) 97,87 %
06.02.2017 08:16 1,3 C 97 % 1009,9 hPa 0,0 l/m 2,0 km/h (1 Bft) W-SW 241 0 min 0,000 mm 0,0 UV-I 28 W/m 0,9 C 1,3 C 3,2 km/h (1 Bft) 97,37 %
06.02.2017 08:18 1,3 C 97 % 1009,9 hPa 0,0 l/m 2,8 km/h (1 Bft) W-SW 241 0 min 0,000 mm 0,0 UV-I 30 W/m 0,9 C 1,3 C 4,8 km/h (1 Bft) 100,00 %
06.02.2017 08:20 1,3 C 97 % 1009,9 hPa 0,2 l/m 1,0 km/h (0 Bft) W-SW 241 0 min 0,000 mm 0,0 UV-I 31 W/m 0,9 C 1,3 C 3,2 km/h (1 Bft) 100,00 %
06.02.2017 08:22 1,3 C 97 % 1010,0 hPa 0,0 l/m 1,3 km/h (1 Bft) W-SW 241 0 min 0,000 mm 0,0 UV-I 32 W/m 0,9 C 1,3 C 3,2 km/h (1 Bft) 93,62 %
06.02.2017 08:24 1,3 C 97 % 1010,0 hPa 0,0 l/m 0,6 km/h (0 Bft) W-SW 241 0 min 0,000 mm 0,0 UV-I 32 W/m 0,9 C 1,3 C 1,6 km/h (1 Bft) 100,00 %
06.02.2017 08:26 1,3 C 97 % 1010,0 hPa 0,0 l/m 1,0 km/h (0 Bft) W-SW 241 0 min 0,000 mm 0,0 UV-I 34 W/m 0,9 C 1,3 C 3,2 km/h (1 Bft) 97,87 %
06.02.2017 08:28 1,3 C 97 % 1010,1 hPa 0,0 l/m 0,0 km/h (0 Bft) W-SW 241 0 min 0,000 mm 0,0 UV-I 36 W/m 0,9 C 1,3 C 0,0 km/h (0 Bft) 97,87 %
06.02.2017 08:30 1,3 C 97 % 1010,1 hPa 0,0 l/m 0,0 km/h (0 Bft) W-SW 241 0 min 0,000 mm 0,0 UV-I 38 W/m 0,9 C 1,3 C 1,6 km/h (1 Bft) 98,00 %
06.02.2017 08:32 1,3 C 97 % 1010,1 hPa 0,0 l/m 0,2 km/h (0 Bft) W-SW 241 0 min 0,000 mm 0,0 UV-I 39 W/m 0,9 C 1,3 C 1,6 km/h (1 Bft) 100,00 %
06.02.2017 08:34 1,4 C 97 % 1010,2 hPa 0,2 l/m 0,0 km/h (0 Bft) W-SW 241 0 min 0,000 mm 0,0 UV-I 40 W/m 1,0 C 1,4 C 0,0 km/h (0 Bft) 98,00 %
06.02.2017 08:36 1,4 C 97 % 1010,3 hPa 0,0 l/m 0,0 km/h (0 Bft) W-SW 241 0 min 0,000 mm 0,0 UV-I 41 W/m 1,0 C 1,4 C 0,0 km/h (0 Bft) 100,00 %
06.02.2017 08:38 1,4 C 97 % 1010,3 hPa 0,0 l/m 0,4 km/h (0 Bft) W-SW 241 0 min 0,000 mm 0,0 UV-I 44 W/m 1,0 C 1,4 C 1,6 km/h (1 Bft) 98,00 %
06.02.2017 08:40 1,4 C 97 % 1010,3 hPa 0,0 l/m 0,1 km/h (0 Bft) W-SW 241 0 min 0,000 mm 0,0 UV-I 48 W/m 1,0 C 1,4 C 1,6 km/h (1 Bft) 100,00 %
06.02.2017 08:42 1,4 C 97 % 1010,4 hPa 0,0 l/m 0,5 km/h (0 Bft) W-SW 241 0 min 0,000 mm 0,0 UV-I 54 W/m 1,0 C 1,4 C 3,2 km/h (1 Bft) 100,00 %
06.02.2017 08:44 1,3 C 97 % 1010,4 hPa 0,0 l/m 0,5 km/h (0 Bft) W-SW 241 0 min 0,000 mm 0,0 UV-I 63 W/m 0,9 C 1,3 C 1,6 km/h (1 Bft) 98,00 %
06.02.2017 08:46 1,4 C 97 % 1010,5 hPa 0,0 l/m 0,0 km/h (0 Bft) W-SW 241 0 min 0,000 mm 0,0 UV-I 68 W/m 1,0 C 1,4 C 0,0 km/h (0 Bft) 100,00 %
06.02.2017 08:48 1,4 C 97 % 1010,5 hPa 0,2 l/m 0,0 km/h (0 Bft) W-SW 241 0 min 0,000 mm 0,0 UV-I 73 W/m 1,0 C 1,4 C 0,0 km/h (0 Bft) 97,73 %
06.02.2017 08:50 1,4 C 97 % 1010,4 hPa 0,0 l/m 0,4 km/h (0 Bft) W-SW 241 0 min 0,000 mm 0,0 UV-I 78 W/m 1,0 C 1,4 C 1,6 km/h (1 Bft) 100,00 %
06.02.2017 08:52 1,4 C 97 % 1010,5 hPa 0,0 l/m 0,1 km/h (0 Bft) W-SW 241 0 min 0,000 mm 0,0 UV-I 81 W/m 1,0 C 1,4 C 1,6 km/h (1 Bft) 97,73 %
06.02.2017 08:54 1,4 C 97 % 1010,5 hPa 0,0 l/m 1,5 km/h (1 Bft) W-SW 241 0 min 0,000 mm 0,0 UV-I 81 W/m 1,0 C 1,4 C 3,2 km/h (1 Bft) 97,87 %
06.02.2017 08:56 1,4 C 97 % 1010,5 hPa 0,0 l/m 1,3 km/h (1 Bft) W-SW 241 0 min 0,000 mm 0,0 UV-I 83 W/m 1,0 C 1,4 C 3,2 km/h (1 Bft) 97,87 %
06.02.2017 08:58 1,5 C 97 % 1010,5 hPa 0,0 l/m 0,6 km/h (0 Bft) W-SW 241 0 min 0,000 mm 0,0 UV-I 84 W/m 1,1 C 1,5 C 3,2 km/h (1 Bft) 98,00 %
06.02.2017 09:00 1,6 C 97 % 1010,6 hPa 0,0 l/m 1,2 km/h (1 Bft) W-SW 241 0 min 0,026 mm 0,0 UV-I 87 W/m 1,2 C 1,6 C 3,2 km/h (1 Bft) 100,00 %
06.02.2017 09:02 1,6 C 97 % 1010,6 hPa 0,0 l/m 1,3 km/h (1 Bft) W-SW 241 0 min 0,000 mm 0,0 UV-I 93 W/m 1,2 C 1,6 C 3,2 km/h (1 Bft) 100,00 %
06.02.2017 09:04 1,6 C 97 % 1010,6 hPa 0,0 l/m 1,0 km/h (0 Bft) W-SW 241 0 min 0,000 mm 0,0 UV-I 99 W/m 1,2 C 1,6 C 3,2 km/h (1 Bft) 100,00 %
06.02.2017 09:06 1,6 C 97 % 1010,6 hPa 0,2 l/m 1,0 km/h (0 Bft) W-SW 241 0 min 0,000 mm 0,0 UV-I 100 W/m 1,2 C 1,6 C 1,6 km/h (1 Bft) 94,74 %
06.02.2017 09:08 1,6 C 97 % 1010,7 hPa 0,0 l/m 0,4 km/h (0 Bft) W-SW 241 0 min 0,000 mm 0,0 UV-I 98 W/m 1,2 C 1,6 C 1,6 km/h (1 Bft) 98,28 %
06.02.2017 09:10 1,6 C 97 % 1010,7 hPa 0,0 l/m 0,5 km/h (0 Bft) W-SW 241 0 min 0,000 mm 0,0 UV-I 96 W/m 1,2 C 1,6 C 3,2 km/h (1 Bft) 93,62 %
06.02.2017 09:12 1,6 C 97 % 1010,7 hPa 0,0 l/m 0,5 km/h (0 Bft) W-SW 241 0 min 0,000 mm 0,0 UV-I 96 W/m 1,2 C 1,6 C 3,2 km/h (1 Bft) 98,00 %
06.02.2017 09:14 1,6 C 97 % 1010,7 hPa 0,0 l/m 1,6 km/h (1 Bft) W-SW 241 0 min 0,000 mm 0,0 UV-I 96 W/m 1,2 C 1,6 C 3,2 km/h (1 Bft) 94,87 %
06.02.2017 09:16 1,6 C 97 % 1010,8 hPa 0,0 l/m 1,1 km/h (1 Bft) W-SW 241 0 min 0,000 mm 0,0 UV-I 90 W/m 1,2 C 1,6 C 3,2 km/h (1 Bft) 97,87 %
06.02.2017 09:18 1,6 C 97 % 1010,9 hPa 0,0 l/m 0,2 km/h (0 Bft) W-SW 241 0 min 0,000 mm 0,0 UV-I 80 W/m 1,2 C 1,6 C 1,6 km/h (1 Bft) 91,49 %
06.02.2017 09:20 1,6 C 97 % 1010,9 hPa 0,0 l/m 0,0 km/h (0 Bft) W-SW 241 0 min 0,000 mm 0,0 UV-I 72 W/m 1,2 C 1,6 C 0,0 km/h (0 Bft) 96,00 %
06.02.2017 09:22 1,7 C 97 % 1010,9 hPa 0,0 l/m 0,7 km/h (0 Bft) W-SW 241 0 min 0,000 mm 0,0 UV-I 64 W/m 1,3 C 1,7 C 1,6 km/h (1 Bft) 94,87 %
06.02.2017 09:24 1,7 C 97 % 1011,0 hPa 0,0 l/m 0,5 km/h (0 Bft) W-SW 241 0 min 0,000 mm 0,0 UV-I 59 W/m 1,3 C 1,7 C 1,6 km/h (1 Bft) 98,00 %
06.02.2017 09:26 1,7 C 97 % 1011,0 hPa 0,0 l/m 1,6 km/h (1 Bft) W-SW 241 0 min 0,000 mm 0,0 UV-I 53 W/m 1,3 C 1,7 C 3,2 km/h (1 Bft) 96,23 %
06.02.2017 09:28 1,6 C 97 % 1011,0 hPa 0,0 l/m 1,1 km/h (1 Bft) W-SW 241 0 min 0,000 mm 0,0 UV-I 47 W/m 1,2 C 1,6 C 3,2 km/h (1 Bft) 96,00 %
06.02.2017 09:30 1,6 C 97 % 1011,0 hPa 0,0 l/m 0,1 km/h (0 Bft) W-SW 241 0 min 0,000 mm 0,0 UV-I 45 W/m 1,2 C 1,6 C 1,6 km/h (1 Bft) 95,74 %
06.02.2017 09:32 1,6 C 97 % 1011,0 hPa 0,0 l/m 0,7 km/h (0 Bft) W-SW 241 0 min 0,000 mm 0,0 UV-I 46 W/m 1,2 C 1,6 C 1,6 km/h (1 Bft) 97,37 %
06.02.2017 09:34 1,6 C 97 % 1011,1 hPa 0,0 l/m 2,3 km/h (1 Bft) W-SW 241 0 min 0,000 mm 0,0 UV-I 47 W/m 1,2 C 1,6 C 4,8 km/h (1 Bft) 94,34 %
06.02.2017 09:36 1,6 C 97 % 1011,1 hPa 0,0 l/m 0,7 km/h (0 Bft) W-SW 241 0 min 0,000 mm 0,0 UV-I 49 W/m 1,2 C 1,6 C 3,2 km/h (1 Bft) 97,56 %
06.02.2017 09:38 1,6 C 97 % 1011,1 hPa 0,0 l/m 0,2 km/h (0 Bft) W-SW 241 0 min 0,000 mm 0,0 UV-I 52 W/m 1,2 C 1,6 C 1,6 km/h (1 Bft) 96,00 %
06.02.2017 09:40 1,6 C 97 % 1011,2 hPa 0,0 l/m 0,0 km/h (0 Bft) W-SW 241 0 min 0,000 mm 0,0 UV-I 56 W/m 1,2 C 1,6 C 0,0 km/h (0 Bft) 97,87 %
06.02.2017 09:42 1,6 C 97 % 1011,2 hPa 0,0 l/m 0,1 km/h (0 Bft) W-SW 241 0 min 0,000 mm 0,0 UV-I 63 W/m 1,2 C 1,6 C 1,6 km/h (1 Bft) 100,00 %
06.02.2017 09:44 1,6 C 97 % 1011,3 hPa 0,0 l/m 0,3 km/h (0 Bft) W-SW 241 0 min 0,000 mm 0,0 UV-I 71 W/m 1,2 C 1,6 C 1,6 km/h (1 Bft) 100,00 %
06.02.2017 09:46 1,6 C 97 % 1011,3 hPa 0,0 l/m 0,0 km/h (0 Bft) W-SW 241 0 min 0,000 mm 0,0 UV-I 74 W/m 1,2 C 1,6 C 0,0 km/h (0 Bft) 100,00 %
06.02.2017 09:48 1,7 C 97 % 1011,3 hPa 0,0 l/m 0,0 km/h (0 Bft) W-SW 241 0 min 0,000 mm 0,0 UV-I 74 W/m 1,3 C 1,7 C 0,0 km/h (0 Bft) 97,22 %
06.02.2017 09:50 1,7 C 97 % 1011,3 hPa 0,0 l/m 0,0 km/h (0 Bft) W-SW 241 0 min 0,000 mm 0,0 UV-I 74 W/m 1,3 C 1,7 C 0,0 km/h (0 Bft) 95,31 %
06.02.2017 09:52 1,7 C 97 % 1011,4 hPa 0,0 l/m 0,0 km/h (0 Bft) W-SW 241 0 min 0,000 mm 0,0 UV-I 72 W/m 1,3 C 1,7 C 1,6 km/h (1 Bft) 100,00 %
06.02.2017 09:54 1,7 C 97 % 1011,4 hPa 0,0 l/m 0,9 km/h (0 Bft) W-SW 241 0 min 0,000 mm 0,0 UV-I 70 W/m 1,3 C 1,7 C 1,6 km/h (1 Bft) 97,87 %
06.02.2017 09:56 1,8 C 97 % 1011,5 hPa 0,0 l/m 2,0 km/h (1 Bft) W-SW 241 0 min 0,000 mm 0,0 UV-I 72 W/m 1,4 C 1,8 C 4,8 km/h (1 Bft) 97,37 %
06.02.2017 09:58 1,8 C 97 % 1011,5 hPa 0,0 l/m 2,6 km/h (1 Bft) W-SW 241 0 min 0,000 mm 0,0 UV-I 68 W/m 1,4 C 1,8 C 3,2 km/h (1 Bft) 98,21 %
06.02.2017 10:00 1,8 C 97 % 1011,5 hPa 0,0 l/m 1,3 km/h (1 Bft) W-SW 241 0 min 0,025 mm 0,0 UV-I 64 W/m 1,4 C 1,8 C 3,2 km/h (1 Bft) 100,00 %
06.02.2017 10:02 1,8 C 97 % 1011,6 hPa 0,0 l/m 2,6 km/h (1 Bft) W-SW 241 0 min 0,000 mm 0,0 UV-I 63 W/m 1,4 C 1,8 C 4,8 km/h (1 Bft) 97,44 %
06.02.2017 10:04 1,8 C 97 % 1011,5 hPa 0,0 l/m 2,7 km/h (1 Bft) W-SW 241 0 min 0,000 mm 0,0 UV-I 64 W/m 1,4 C 1,8 C 4,8 km/h (1 Bft) 100,00 %
06.02.2017 10:06 1,8 C 97 % 1011,6 hPa 0,0 l/m 3,9 km/h (1 Bft) W-SW 241 0 min 0,000 mm 0,0 UV-I 71 W/m 1,4 C 1,8 C 6,4 km/h (2 Bft) 100,00 %
06.02.2017 10:08 1,8 C 97 % 1011,6 hPa 0,0 l/m 3,3 km/h (1 Bft) W-SW 241 0 min 0,000 mm 0,0 UV-I 77 W/m 1,4 C 1,8 C 6,4 km/h (2 Bft) 93,62 %
06.02.2017 10:10 1,8 C 97 % 1011,7 hPa 0,0 l/m 5,7 km/h (1 Bft) W 263 0 min 0,000 mm 0,0 UV-I 83 W/m 1,4 C 1,8 C 8,0 km/h (2 Bft) 100,00 %
06.02.2017 10:12 1,8 C 97 % 1011,7 hPa 0,0 l/m 6,7 km/h (2 Bft) SW 235 0 min 0,000 mm 0,0 UV-I 92 W/m 1,4 C 1,5 C 11,3 km/h (2 Bft) 97,56 %
06.02.2017 10:14 1,8 C 97 % 1011,8 hPa 0,0 l/m 4,0 km/h (1 Bft) W-SW 249 0 min 0,000 mm 0,0 UV-I 102 W/m 1,4 C 1,8 C 6,4 km/h (2 Bft) 98,11 %
06.02.2017 10:16 1,8 C 97 % 1011,8 hPa 0,0 l/m 3,9 km/h (1 Bft) W-SW 257 0 min 0,000 mm 0,0 UV-I 104 W/m 1,4 C 1,8 C 9,7 km/h (2 Bft) 100,00 %
06.02.2017 10:18 1,8 C 97 % 1011,8 hPa 0,0 l/m 4,8 km/h (1 Bft) W-SW 246 0 min 0,000 mm 0,0 UV-I 108 W/m 1,4 C 1,8 C 11,3 km/h (2 Bft) 98,11 %
06.02.2017 10:20 1,8 C 97 % 1011,8 hPa 0,0 l/m 3,2 km/h (1 Bft) W-SW 247 0 min 0,000 mm 0,0 UV-I 108 W/m 1,4 C 1,8 C 6,4 km/h (2 Bft) 100,00 %
06.02.2017 10:22 1,8 C 97 % 1011,8 hPa 0,0 l/m 3,1 km/h (1 Bft) W-SW 246 0 min 0,000 mm 0,0 UV-I 117 W/m 1,4 C 1,8 C 6,4 km/h (2 Bft) 98,00 %
06.02.2017 10:24 1,8 C 97 % 1011,8 hPa 0,0 l/m 6,0 km/h (2 Bft) SW 236 0 min 0,000 mm 0,0 UV-I 124 W/m 1,4 C 1,8 C 11,3 km/h (2 Bft) 97,56 %
06.02.2017 10:26 1,8 C 97 % 1011,9 hPa 0,0 l/m 5,3 km/h (1 Bft) W-SW 240 0 min 0,000 mm 0,0 UV-I 125 W/m 1,4 C 1,8 C 8,0 km/h (2 Bft) 100,00 %
06.02.2017 10:28 1,8 C 97 % 1012,0 hPa 0,0 l/m 6,6 km/h (2 Bft) SW 215 0 min 0,000 mm 0,0 UV-I 128 W/m 1,4 C 1,6 C 9,7 km/h (2 Bft) 97,56 %
06.02.2017 10:30 1,8 C 97 % 1012,0 hPa 0,0 l/m 5,4 km/h (1 Bft) W 261 0 min 0,000 mm 0,0 UV-I 134 W/m 1,4 C 1,8 C 8,0 km/h (2 Bft) 96,23 %
06.02.2017 10:32 1,8 C 97 % 1012,0 hPa 0,0 l/m 5,5 km/h (1 Bft) SW 236 0 min 0,000 mm 0,0 UV-I 142 W/m 1,4 C 1,8 C 9,7 km/h (2 Bft) 97,56 %
06.02.2017 10:34 1,8 C 97 % 1012,1 hPa 0,0 l/m 4,0 km/h (1 Bft) W-SW 255 0 min 0,000 mm 0,0 UV-I 148 W/m 1,4 C 1,8 C 8,0 km/h (2 Bft) 94,00 %
06.02.2017 10:36 1,8 C 97 % 1012,1 hPa 0,0 l/m 3,3 km/h (1 Bft) W-SW 251 0 min 0,000 mm 0,0 UV-I 152 W/m 1,4 C 1,8 C 4,8 km/h (1 Bft) 97,87 %
06.02.2017 10:38 1,9 C 97 % 1012,1 hPa 0,0 l/m 4,6 km/h (1 Bft) W-SW 247 0 min 0,000 mm 0,0 UV-I 154 W/m 1,5 C 1,9 C 6,4 km/h (2 Bft) 100,00 %
06.02.2017 10:40 1,9 C 97 % 1012,1 hPa 0,0 l/m 5,3 km/h (1 Bft) SW 227 0 min 0,000 mm 0,0 UV-I 149 W/m 1,5 C 1,9 C 8,0 km/h (2 Bft) 100,00 %
06.02.2017 10:42 1,9 C 97 % 1012,1 hPa 0,0 l/m 4,4 km/h (1 Bft) SW 227 0 min 0,000 mm 0,0 UV-I 149 W/m 1,5 C 1,9 C 4,8 km/h (1 Bft) 100,00 %
06.02.2017 10:44 1,9 C 97 % 1012,2 hPa 0,0 l/m 4,7 km/h (1 Bft) W-SW 243 0 min 0,000 mm 0,0 UV-I 148 W/m 1,5 C 1,9 C 8,0 km/h (2 Bft) 97,22 %
06.02.2017 10:46 1,9 C 97 % 1012,2 hPa 0,2 l/m 4,9 km/h (1 Bft) W-SW 244 0 min 0,000 mm 0,0 UV-I 142 W/m 1,5 C 1,9 C 8,0 km/h (2 Bft) 100,00 %
06.02.2017 10:48 1,9 C 97 % 1012,3 hPa 0,0 l/m 6,2 km/h (2 Bft) W-SW 254 0 min 0,000 mm 0,0 UV-I 140 W/m 1,5 C 1,9 C 12,9 km/h (3 Bft) 97,37 %
06.02.2017 10:50 1,9 C 97 % 1012,3 hPa 0,0 l/m 5,6 km/h (1 Bft) W 261 0 min 0,000 mm 0,0 UV-I 138 W/m 1,5 C 1,9 C 11,3 km/h (2 Bft) 98,00 %
06.02.2017 10:52 1,9 C 97 % 1012,3 hPa 0,0 l/m 4,5 km/h (1 Bft) W-SW 254 0 min 0,000 mm 0,0 UV-I 141 W/m 1,5 C 1,9 C 11,3 km/h (2 Bft) 100,00 %
06.02.2017 10:54 1,9 C 97 % 1012,4 hPa 0,0 l/m 6,4 km/h (2 Bft) W 264 0 min 0,000 mm 0,0 UV-I 143 W/m 1,5 C 1,9 C 11,3 km/h (2 Bft) 97,87 %
06.02.2017 10:56 1,9 C 97 % 1012,4 hPa 0,0 l/m 5,3 km/h (1 Bft) W-SW 254 0 min 0,000 mm 0,0 UV-I 144 W/m 1,5 C 1,9 C 8,0 km/h (2 Bft) 100,00 %
06.02.2017 10:58 1,9 C 97 % 1012,4 hPa 0,0 l/m 5,1 km/h (1 Bft) W-SW 255 0 min 0,000 mm 0,0 UV-I 141 W/m 1,5 C 1,9 C 11,3 km/h (2 Bft) 97,56 %
06.02.2017 11:00 2,0 C 97 % 1012,5 hPa 0,0 l/m 5,3 km/h (1 Bft) W 262 0 min 0,051 mm 0,0 UV-I 136 W/m 1,6 C 2,0 C 8,0 km/h (2 Bft) 98,11 %
06.02.2017 11:02 2,0 C 97 % 1012,5 hPa 0,0 l/m 3,6 km/h (1 Bft) W 262 0 min 0,000 mm 0,0 UV-I 131 W/m 1,6 C 2,0 C 4,8 km/h (1 Bft) 100,00 %
06.02.2017 11:04 2,1 C 97 % 1012,5 hPa 0,0 l/m 6,0 km/h (2 Bft) W-SW 252 0 min 0,000 mm 0,0 UV-I 127 W/m 1,7 C 2,1 C 11,3 km/h (2 Bft) 100,00 %
06.02.2017 11:06 2,0 C 96 % 1012,6 hPa 0,0 l/m 6,8 km/h (2 Bft) W 262 0 min 0,000 mm 0,0 UV-I 124 W/m 1,4 C 1,6 C 11,3 km/h (2 Bft) 100,00 %
06.02.2017 11:08 2,0 C 96 % 1012,6 hPa 0,0 l/m 5,6 km/h (1 Bft) W 270 0 min 0,000 mm 0,0 UV-I 122 W/m 1,4 C 2,0 C 9,7 km/h (2 Bft) 95,74 %
06.02.2017 11:10 2,0 C 97 % 1012,7 hPa 0,0 l/m 7,3 km/h (2 Bft) W-SW 251 0 min 0,000 mm 0,0 UV-I 119 W/m 1,6 C 1,1 C 12,9 km/h (3 Bft) 100,00 %
06.02.2017 11:12 2,0 C 96 % 1012,7 hPa 0,0 l/m 7,5 km/h (2 Bft) W-SW 250 0 min 0,000 mm 0,0 UV-I 115 W/m 1,4 C 0,9 C 11,3 km/h (2 Bft) 95,12 %
06.02.2017 11:14 2,0 C 96 % 1012,8 hPa 0,0 l/m 5,3 km/h (1 Bft) W 261 0 min 0,000 mm 0,0 UV-I 110 W/m 1,4 C 2,0 C 6,4 km/h (2 Bft) 87,80 %
06.02.2017 11:16 2,0 C 97 % 1012,8 hPa 0,0 l/m 5,0 km/h (1 Bft) W 263 0 min 0,000 mm 0,0 UV-I 103 W/m 1,6 C 2,0 C 9,7 km/h (2 Bft) 96,23 %
06.02.2017 11:18 2,0 C 97 % 1012,8 hPa 0,0 l/m 6,8 km/h (2 Bft) W 261 0 min 0,000 mm 0,0 UV-I 101 W/m 1,6 C 1,6 C 11,3 km/h (2 Bft) 94,00 %
06.02.2017 11:20 2,0 C 96 % 1012,8 hPa 0,0 l/m 6,2 km/h (2 Bft) W 262 0 min 0,000 mm 0,0 UV-I 98 W/m 1,4 C 2,0 C 9,7 km/h (2 Bft) 94,87 %
06.02.2017 11:22 2,0 C 96 % 1012,8 hPa 0,0 l/m 5,1 km/h (1 Bft) W 271 0 min 0,000 mm 0,0 UV-I 98 W/m 1,4 C 2,0 C 11,3 km/h (2 Bft) 97,87 %
06.02.2017 11:24 2,0 C 96 % 1012,9 hPa 0,0 l/m 7,6 km/h (2 Bft) W 261 0 min 0,000 mm 0,0 UV-I 98 W/m 1,4 C 0,8 C 11,3 km/h (2 Bft) 92,00 %
06.02.2017 11:26 1,9 C 97 % 1012,9 hPa 0,0 l/m 5,1 km/h (1 Bft) W 269 0 min 0,000 mm 0,0 UV-I 96 W/m 1,5 C 1,9 C 9,7 km/h (2 Bft) 96,23 %
06.02.2017 11:28 1,9 C 97 % 1012,9 hPa 0,0 l/m 8,2 km/h (2 Bft) W 271 0 min 0,000 mm 0,0 UV-I 92 W/m 1,5 C 0,2 C 12,9 km/h (3 Bft) 95,12 %
06.02.2017 11:30 1,9 C 97 % 1012,9 hPa 0,0 l/m 6,7 km/h (2 Bft) W 265 0 min 0,000 mm 0,0 UV-I 89 W/m 1,5 C 1,6 C 9,7 km/h (2 Bft) 92,00 %
06.02.2017 11:32 1,9 C 97 % 1012,9 hPa 0,0 l/m 7,1 km/h (2 Bft) W-SW 244 0 min 0,000 mm 0,0 UV-I 85 W/m 1,5 C 1,2 C 11,3 km/h (2 Bft) 97,56 %
06.02.2017 11:34 1,9 C 97 % 1012,9 hPa 0,0 l/m 7,1 km/h (2 Bft) W 277 0 min 0,000 mm 0,0 UV-I 83 W/m 1,5 C 1,2 C 12,9 km/h (3 Bft) 92,45 %
06.02.2017 11:36 1,9 C 97 % 1012,9 hPa 0,0 l/m 8,3 km/h (2 Bft) SW 225 0 min 0,000 mm 0,0 UV-I 83 W/m 1,5 C 0,1 C 12,9 km/h (3 Bft) 93,62 %
06.02.2017 11:38 1,9 C 97 % 1012,9 hPa 0,0 l/m 9,8 km/h (2 Bft) W-SW 251 0 min 0,000 mm 0,0 UV-I 81 W/m 1,5 C -1,2 C 12,9 km/h (3 Bft) 96,00 %
06.02.2017 11:40 1,9 C 97 % 1013,0 hPa 0,0 l/m 7,5 km/h (2 Bft) W-SW 254 0 min 0,000 mm 0,0 UV-I 77 W/m 1,5 C 0,8 C 12,9 km/h (3 Bft) 94,74 %
06.02.2017 11:42 1,9 C 97 % 1013,0 hPa 0,0 l/m 6,5 km/h (2 Bft) W-SW 254 0 min 0,000 mm 0,0 UV-I 73 W/m 1,5 C 1,8 C 11,3 km/h (2 Bft) 92,00 %
06.02.2017 11:44 1,9 C 97 % 1013,1 hPa 0,0 l/m 5,1 km/h (1 Bft) W-SW 250 0 min 0,000 mm 0,0 UV-I 73 W/m 1,5 C 1,9 C 8,0 km/h (2 Bft) 95,12 %
06.02.2017 11:46 1,9 C 97 % 1013,1 hPa 0,0 l/m 5,0 km/h (1 Bft) W-NW 283 0 min 0,000 mm 0,0 UV-I 76 W/m 1,5 C 1,9 C 6,4 km/h (2 Bft) 100,00 %
06.02.2017 11:48 1,9 C 97 % 1013,1 hPa 0,0 l/m 3,7 km/h (1 Bft) W-SW 248 0 min 0,000 mm 0,0 UV-I 71 W/m 1,5 C 1,9 C 9,7 km/h (2 Bft) 97,56 %
06.02.2017 11:50 1,9 C 97 % 1013,1 hPa 0,0 l/m 6,5 km/h (2 Bft) W-SW 247 0 min 0,000 mm 0,0 UV-I 69 W/m 1,5 C 1,8 C 9,7 km/h (2 Bft) 98,21 %
06.02.2017 11:52 1,9 C 97 % 1013,2 hPa 0,0 l/m 6,8 km/h (2 Bft) W-SW 248 0 min 0,000 mm 0,0 UV-I 66 W/m 1,5 C 1,5 C 11,3 km/h (2 Bft) 92,68 %
06.02.2017 11:54 1,9 C 97 % 1013,2 hPa 0,0 l/m 7,7 km/h (2 Bft) W 277 0 min 0,000 mm 0,0 UV-I 64 W/m 1,5 C 0,6 C 11,3 km/h (2 Bft) 98,00 %
06.02.2017 11:56 1,8 C 97 % 1013,2 hPa 0,0 l/m 6,6 km/h (2 Bft) SW 234 0 min 0,000 mm 0,0 UV-I 62 W/m 1,4 C 1,6 C 12,9 km/h (3 Bft) 96,23 %
06.02.2017 11:58 1,8 C 97 % 1013,2 hPa 0,0 l/m 4,8 km/h (1 Bft) W-SW 255 0 min 0,000 mm 0,0 UV-I 62 W/m 1,4 C 1,8 C 6,4 km/h (2 Bft) 95,45 %
06.02.2017 12:00 1,8 C 97 % 1013,2 hPa 0,0 l/m 5,7 km/h (1 Bft) W 266 0 min 0,025 mm 0,0 UV-I 66 W/m 1,4 C 1,8 C 11,3 km/h (2 Bft) 97,62 %
06.02.2017 12:03 1,8 C 97 % 1013,2 hPa 0,0 l/m 6,1 km/h (2 Bft) W-SW 254 0 min 0,000 mm 0,0 UV-I 69 W/m 1,4 C 1,8 C 9,7 km/h (2 Bft) 97,47 %
06.02.2017 12:04 1,8 C 97 % 1013,2 hPa 0,0 l/m 5,3 km/h (1 Bft) W-SW 246 0 min 0,000 mm 0,0 UV-I 70 W/m 1,4 C 1,8 C 6,4 km/h (2 Bft) 91,67 %
06.02.2017 12:06 1,8 C 97 % 1013,2 hPa 0,0 l/m 5,5 km/h (1 Bft) W 277 0 min 0,000 mm 0,0 UV-I 75 W/m 1,4 C 1,8 C 6,4 km/h (2 Bft) 94,34 %
06.02.2017 12:09 1,9 C 97 % 1013,3 hPa 0,0 l/m 4,8 km/h (1 Bft) W-SW 258 0 min 0,000 mm 0,0 UV-I 79 W/m 1,5 C 1,9 C 6,4 km/h (2 Bft) 95,71 %
06.02.2017 12:10 1,9 C 97 % 1013,3 hPa 0,0 l/m 6,3 km/h (2 Bft) W 261 0 min 0,000 mm 0,0 UV-I 88 W/m 1,5 C 1,9 C 8,0 km/h (2 Bft) 91,67 %
06.02.2017 12:12 1,9 C 97 % 1013,3 hPa 0,0 l/m 7,1 km/h (2 Bft) W-SW 251 0 min 0,000 mm 0,0 UV-I 92 W/m 1,5 C 1,2 C 11,3 km/h (2 Bft) 95,12 %
06.02.2017 12:14 1,9 C 97 % 1013,3 hPa 0,0 l/m 5,9 km/h (2 Bft) W-SW 243 0 min 0,000 mm 0,0 UV-I 96 W/m 1,5 C 1,9 C 9,7 km/h (2 Bft) 100,00 %
06.02.2017 12:16 1,9 C 97 % 1013,3 hPa 0,0 l/m 5,1 km/h (1 Bft) W 267 0 min 0,000 mm 0,0 UV-I 97 W/m 1,5 C 1,9 C 6,4 km/h (2 Bft) 96,00 %
06.02.2017 12:18 2,0 C 97 % 1013,4 hPa 0,0 l/m 4,6 km/h (1 Bft) W 268 0 min 0,000 mm 0,0 UV-I 96 W/m 1,6 C 2,0 C 6,4 km/h (2 Bft) 96,61 %
06.02.2017 12:20 2,0 C 97 % 1013,4 hPa 0,0 l/m 3,3 km/h (1 Bft) W 267 0 min 0,000 mm 0,0 UV-I 96 W/m 1,6 C 2,0 C 6,4 km/h (2 Bft) 100,00 %
06.02.2017 12:22 2,0 C 97 % 1013,4 hPa 0,0 l/m 3,3 km/h (1 Bft) W-SW 252 0 min 0,000 mm 0,0 UV-I 104 W/m 1,6 C 2,0 C 4,8 km/h (1 Bft) 95,74 %
06.02.2017 12:24 2,1 C 97 % 1013,4 hPa 0,0 l/m 4,7 km/h (1 Bft) W-SW 246 0 min 0,000 mm 0,0 UV-I 106 W/m 1,7 C 2,1 C 6,4 km/h (2 Bft) 100,00 %
06.02.2017 12:26 2,0 C 97 % 1013,5 hPa 0,0 l/m 4,4 km/h (1 Bft) W-SW 254 0 min 0,000 mm 0,0 UV-I 103 W/m 1,6 C 2,0 C 8,0 km/h (2 Bft) 95,83 %
06.02.2017 12:28 2,0 C 97 % 1013,5 hPa 0,0 l/m 5,2 km/h (1 Bft) SW 233 0 min 0,000 mm 0,0 UV-I 105 W/m 1,6 C 2,0 C 6,4 km/h (2 Bft) 97,01 %
06.02.2017 12:30 2,1 C 97 % 1013,5 hPa 0,0 l/m 4,2 km/h (1 Bft) SW 236 0 min 0,000 mm 0,0 UV-I 108 W/m 1,7 C 2,1 C 6,4 km/h (2 Bft) 98,00 %
06.02.2017 12:32 2,1 C 97 % 1013,5 hPa 0,0 l/m 6,0 km/h (2 Bft) W 279 0 min 0,000 mm 0,0 UV-I 112 W/m 1,7 C 2,1 C 11,3 km/h (2 Bft) 97,37 %
06.02.2017 12:34 2,1 C 97 % 1013,5 hPa 0,0 l/m 7,6 km/h (2 Bft) W 261 0 min 0,000 mm 0,0 UV-I 118 W/m 1,7 C 0,9 C 11,3 km/h (2 Bft) 98,00 %
06.02.2017 12:36 2,1 C 97 % 1013,5 hPa 0,2 l/m 5,4 km/h (1 Bft) W-SW 250 0 min 0,000 mm 0,0 UV-I 120 W/m 1,7 C 2,1 C 11,3 km/h (2 Bft) 98,00 %
06.02.2017 12:38 2,1 C 97 % 1013,5 hPa 0,0 l/m 3,5 km/h (1 Bft) W-SW 250 0 min 0,000 mm 0,0 UV-I 123 W/m 1,7 C 2,1 C 4,8 km/h (1 Bft) 95,24 %
06.02.2017 12:40 2,1 C 97 % 1013,5 hPa 0,0 l/m 6,2 km/h (2 Bft) W 260 0 min 0,000 mm 0,0 UV-I 129 W/m 1,7 C 2,1 C 9,7 km/h (2 Bft) 98,08 %
06.02.2017 12:42 2,1 C 97 % 1013,5 hPa 0,0 l/m 3,2 km/h (1 Bft) W 260 0 min 0,000 mm 0,1 UV-I 132 W/m 1,7 C 2,1 C 6,4 km/h (2 Bft) 97,62 %
06.02.2017 12:44 2,1 C 97 % 1013,5 hPa 0,0 l/m 3,9 km/h (1 Bft) W-SW 251 0 min 0,000 mm 0,5 UV-I 141 W/m 1,7 C 2,1 C 6,4 km/h (2 Bft) 98,18 %
06.02.2017 12:46 2,2 C 97 % 1013,5 hPa 0,0 l/m 3,6 km/h (1 Bft) W-SW 250 0 min 0,000 mm 0,3 UV-I 137 W/m 1,8 C 2,2 C 6,4 km/h (2 Bft) 97,22 %
06.02.2017 12:48 2,2 C 97 % 1013,5 hPa 0,0 l/m 4,2 km/h (1 Bft) W-SW 243 0 min 0,000 mm 0,0 UV-I 134 W/m 1,8 C 2,2 C 8,0 km/h (2 Bft) 100,00 %
06.02.2017 12:50 2,2 C 97 % 1013,6 hPa 0,0 l/m 5,6 km/h (1 Bft) W-SW 258 0 min 0,000 mm 0,0 UV-I 129 W/m 1,8 C 2,2 C 8,0 km/h (2 Bft) 98,00 %
06.02.2017 12:52 2,2 C 97 % 1013,6 hPa 0,0 l/m 5,1 km/h (1 Bft) W-SW 250 0 min 0,000 mm 0,0 UV-I 126 W/m 1,8 C 2,2 C 8,0 km/h (2 Bft) 94,34 %
06.02.2017 12:54 2,2 C 97 % 1013,6 hPa 0,0 l/m 7,0 km/h (2 Bft) SW 214 0 min 0,000 mm 0,0 UV-I 126 W/m 1,8 C 1,6 C 11,3 km/h (2 Bft) 94,29 %
06.02.2017 12:56 2,2 C 97 % 1013,6 hPa 0,0 l/m 3,3 km/h (1 Bft) SW 215 0 min 0,000 mm 0,0 UV-I 127 W/m 1,8 C 2,2 C 4,8 km/h (1 Bft) 98,11 %
06.02.2017 12:58 2,2 C 97 % 1013,6 hPa 0,0 l/m 4,4 km/h (1 Bft) W 260 0 min 0,000 mm 0,0 UV-I 125 W/m 1,8 C 2,2 C 9,7 km/h (2 Bft) 98,11 %
06.02.2017 13:00 2,2 C 97 % 1013,7 hPa 0,0 l/m 6,2 km/h (2 Bft) W-SW 245 0 min 0,051 mm 0,0 UV-I 121 W/m 1,8 C 2,2 C 11,3 km/h (2 Bft) 97,56 %
06.02.2017 13:02 2,1 C 96 % 1013,7 hPa 0,0 l/m 4,8 km/h (1 Bft) SW 223 0 min 0,000 mm 0,0 UV-I 118 W/m 1,5 C 2,1 C 9,7 km/h (2 Bft) 100,00 %
06.02.2017 13:04 2,1 C 96 % 1013,7 hPa 0,0 l/m 4,3 km/h (1 Bft) W-SW 249 0 min 0,000 mm 0,0 UV-I 117 W/m 1,5 C 2,1 C 9,7 km/h (2 Bft) 100,00 %
06.02.2017 13:06 2,2 C 97 % 1013,7 hPa 0,0 l/m 5,8 km/h (2 Bft) W-SW 245 0 min 0,000 mm 0,0 UV-I 114 W/m 1,8 C 2,2 C 11,3 km/h (2 Bft) 100,00 %
06.02.2017 13:08 2,2 C 97 % 1013,8 hPa 0,0 l/m 5,1 km/h (1 Bft) W-SW 248 0 min 0,000 mm 0,0 UV-I 110 W/m 1,8 C 2,2 C 8,0 km/h (2 Bft) 95,74 %
06.02.2017 13:10 2,1 C 96 % 1013,8 hPa 0,0 l/m 5,6 km/h (1 Bft) SW 221 0 min 0,000 mm 0,0 UV-I 109 W/m 1,5 C 2,1 C 11,3 km/h (2 Bft) 100,00 %
06.02.2017 13:12 2,1 C 96 % 1013,8 hPa 0,0 l/m 5,4 km/h (1 Bft) W-SW 251 0 min 0,000 mm 0,0 UV-I 108 W/m 1,5 C 2,1 C 8,0 km/h (2 Bft) 95,12 %
06.02.2017 13:14 2,2 C 96 % 1013,8 hPa 0,0 l/m 7,7 km/h (2 Bft) W-SW 258 0 min 0,000 mm 0,0 UV-I 108 W/m 1,6 C 0,9 C 11,3 km/h (2 Bft) 97,62 %
06.02.2017 13:16 2,1 C 96 % 1013,9 hPa 0,0 l/m 6,4 km/h (2 Bft) W-SW 244 0 min 0,000 mm 0,0 UV-I 106 W/m 1,5 C 2,1 C 9,7 km/h (2 Bft) 95,12 %
06.02.2017 13:18 2,1 C 96 % 1013,9 hPa 0,0 l/m 7,6 km/h (2 Bft) W-SW 258 0 min 0,000 mm 0,0 UV-I 102 W/m 1,5 C 0,9 C 11,3 km/h (2 Bft) 96,43 %
06.02.2017 13:20 2,2 C 96 % 1013,9 hPa 0,0 l/m 5,5 km/h (1 Bft) W-SW 241 0 min 0,000 mm 0,0 UV-I 98 W/m 1,6 C 2,2 C 8,0 km/h (2 Bft) 94,00 %
06.02.2017 13:22 2,2 C 96 % 1014,0 hPa 0,0 l/m 4,7 km/h (1 Bft) SW 234 0 min 0,000 mm 0,0 UV-I 95 W/m 1,6 C 2,2 C 8,0 km/h (2 Bft) 94,00 %
06.02.2017 13:24 2,2 C 96 % 1014,0 hPa 0,0 l/m 7,6 km/h (2 Bft) W-SW 249 0 min 0,000 mm 0,0 UV-I 94 W/m 1,6 C 1,0 C 12,9 km/h (3 Bft) 96,00 %
06.02.2017 13:26 2,1 C 96 % 1014,0 hPa 0,0 l/m 5,9 km/h (2 Bft) W-SW 254 0 min 0,000 mm 0,0 UV-I 94 W/m 1,5 C 2,1 C 11,3 km/h (2 Bft) 94,29 %
06.02.2017 13:28 2,2 C 96 % 1014,1 hPa 0,0 l/m 5,9 km/h (2 Bft) W 263 0 min 0,000 mm 0,0 UV-I 92 W/m 1,6 C 2,2 C 9,7 km/h (2 Bft) 98,21 %
06.02.2017 13:30 2,1 C 96 % 1014,1 hPa 0,0 l/m 5,3 km/h (1 Bft) W-SW 257 0 min 0,000 mm 0,0 UV-I 91 W/m 1,5 C 2,1 C 9,7 km/h (2 Bft) 97,87 %
06.02.2017 13:32 2,1 C 96 % 1014,2 hPa 0,0 l/m 7,2 km/h (2 Bft) W-SW 249 0 min 0,000 mm 0,0 UV-I 87 W/m 1,5 C 1,3 C 11,3 km/h (2 Bft) 97,56 %
06.02.2017 13:34 2,1 C 96 % 1014,1 hPa 0,0 l/m 4,9 km/h (1 Bft) W-SW 249 0 min 0,000 mm 0,0 UV-I 85 W/m 1,5 C 2,1 C 8,0 km/h (2 Bft) 94,34 %
06.02.2017 13:36 2,1 C 96 % 1014,2 hPa 0,0 l/m 5,2 km/h (1 Bft) W 279 0 min 0,000 mm 0,0 UV-I 82 W/m 1,5 C 2,1 C 8,0 km/h (2 Bft) 87,23 %
06.02.2017 13:38 2,1 C 96 % 1014,2 hPa 0,0 l/m 4,5 km/h (1 Bft) W-SW 255 0 min 0,000 mm 0,0 UV-I 78 W/m 1,5 C 2,1 C 6,4 km/h (2 Bft) 96,00 %
06.02.2017 13:40 2,1 C 96 % 1014,2 hPa 0,0 l/m 4,6 km/h (1 Bft) W 265 0 min 0,000 mm 0,0 UV-I 78 W/m 1,5 C 2,1 C 6,4 km/h (2 Bft) 95,12 %
06.02.2017 13:42 2,1 C 96 % 1014,3 hPa 0,0 l/m 5,3 km/h (1 Bft) SW 228 0 min 0,000 mm 0,0 UV-I 82 W/m 1,5 C 2,1 C 8,0 km/h (2 Bft) 94,00 %
06.02.2017 13:44 2,0 C 96 % 1014,3 hPa 0,0 l/m 6,2 km/h (2 Bft) SW 229 0 min 0,000 mm 0,0 UV-I 86 W/m 1,4 C 2,0 C 8,0 km/h (2 Bft) 94,74 %
06.02.2017 13:46 2,0 C 96 % 1014,3 hPa 0,2 l/m 6,0 km/h (2 Bft) SW 221 0 min 0,000 mm 0,0 UV-I 83 W/m 1,4 C 2,0 C 9,7 km/h (2 Bft) 96,00 %
06.02.2017 13:48 1,9 C 96 % 1014,3 hPa 0,0 l/m 6,0 km/h (2 Bft) W-SW 249 0 min 0,000 mm 0,0 UV-I 81 W/m 1,3 C 1,9 C 11,3 km/h (2 Bft) 90,91 %
06.02.2017 13:50 1,9 C 96 % 1014,2 hPa 0,0 l/m 6,8 km/h (2 Bft) SW 224 0 min 0,000 mm 0,0 UV-I 82 W/m 1,3 C 1,5 C 9,7 km/h (2 Bft) 96,00 %
06.02.2017 13:52 1,9 C 96 % 1014,3 hPa 0,0 l/m 6,4 km/h (2 Bft) S-SW 209 0 min 0,000 mm 0,0 UV-I 84 W/m 1,3 C 1,9 C 9,7 km/h (2 Bft) 93,62 %
06.02.2017 13:54 1,8 C 96 % 1014,3 hPa 0,0 l/m 7,1 km/h (2 Bft) W-SW 248 0 min 0,000 mm 0,0 UV-I 86 W/m 1,2 C 1,1 C 9,7 km/h (2 Bft) 100,00 %
06.02.2017 13:56 1,8 C 96 % 1014,3 hPa 0,2 l/m 7,0 km/h (2 Bft) SW 236 0 min 0,000 mm 0,0 UV-I 86 W/m 1,2 C 1,2 C 11,3 km/h (2 Bft) 97,56 %
06.02.2017 13:58 1,8 C 96 % 1014,3 hPa 0,0 l/m 6,2 km/h (2 Bft) S-SW 209 0 min 0,000 mm 0,0 UV-I 83 W/m 1,2 C 1,8 C 8,0 km/h (2 Bft) 94,34 %
06.02.2017 14:00 1,7 C 96 % 1014,3 hPa 0,0 l/m 6,4 km/h (2 Bft) W-SW 248 0 min 0,000 mm 0,0 UV-I 82 W/m 1,1 C 1,7 C 9,7 km/h (2 Bft) 100,00 %
06.02.2017 14:02 1,7 C 96 % 1014,4 hPa 0,0 l/m 7,1 km/h (2 Bft) S-SW 196 0 min 0,026 mm 0,0 UV-I 83 W/m 1,1 C 1,0 C 9,7 km/h (2 Bft) 98,00 %
06.02.2017 14:04 1,6 C 96 % 1014,4 hPa 0,0 l/m 7,3 km/h (2 Bft) S-SW 197 0 min 0,000 mm 0,0 UV-I 84 W/m 1,0 C 0,7 C 12,9 km/h (3 Bft) 95,12 %
06.02.2017 14:06 1,6 C 96 % 1014,4 hPa 0,0 l/m 8,2 km/h (2 Bft) W-SW 254 0 min 0,000 mm 0,0 UV-I 84 W/m 1,0 C -0,2 C 14,5 km/h (3 Bft) 95,74 %
06.02.2017 14:08 1,6 C 96 % 1014,5 hPa 0,0 l/m 6,2 km/h (2 Bft) W-SW 253 0 min 0,000 mm 0,0 UV-I 83 W/m 1,0 C 1,6 C 11,3 km/h (2 Bft) 95,74 %
06.02.2017 14:10 1,5 C 96 % 1014,5 hPa 0,0 l/m 8,6 km/h (2 Bft) SW 218 0 min 0,000 mm 0,0 UV-I 83 W/m 0,9 C -0,6 C 14,5 km/h (3 Bft) 97,73 %
06.02.2017 14:12 1,5 C 96 % 1014,5 hPa 0,0 l/m 6,8 km/h (2 Bft) SW 221 0 min 0,000 mm 0,0 UV-I 81 W/m 0,9 C 1,1 C 11,3 km/h (2 Bft) 92,45 %
06.02.2017 14:14 1,5 C 97 % 1014,5 hPa 0,2 l/m 6,6 km/h (2 Bft) W-SW 244 0 min 0,000 mm 0,0 UV-I 81 W/m 1,1 C 1,3 C 12,9 km/h (3 Bft) 100,00 %
06.02.2017 14:16 1,4 C 97 % 1014,5 hPa 0,0 l/m 6,1 km/h (2 Bft) W-NW 282 0 min 0,000 mm 0,0 UV-I 83 W/m 1,0 C 1,4 C 12,9 km/h (3 Bft) 98,11 %
06.02.2017 14:18 1,4 C 96 % 1014,5 hPa 0,0 l/m 6,5 km/h (2 Bft) W-SW 242 0 min 0,000 mm 0,0 UV-I 83 W/m 0,8 C 1,3 C 12,9 km/h (3 Bft) 97,56 %
06.02.2017 14:20 1,4 C 97 % 1014,5 hPa 0,0 l/m 8,4 km/h (2 Bft) W-SW 240 0 min 0,000 mm 0,0 UV-I 84 W/m 1,0 C -0,5 C 12,9 km/h (3 Bft) 100,00 %
06.02.2017 14:22 1,4 C 96 % 1014,6 hPa 0,0 l/m 6,7 km/h (2 Bft) W-SW 252 0 min 0,000 mm 0,0 UV-I 84 W/m 0,8 C 1,1 C 11,3 km/h (2 Bft) 95,74 %
06.02.2017 14:24 1,4 C 97 % 1014,6 hPa 0,0 l/m 8,4 km/h (2 Bft) SW 222 0 min 0,000 mm 0,0 UV-I 85 W/m 1,0 C -0,5 C 11,3 km/h (2 Bft) 97,73 %
06.02.2017 14:26 1,4 C 97 % 1014,6 hPa 0,0 l/m 6,8 km/h (2 Bft) W-SW 238 0 min 0,000 mm 0,0 UV-I 83 W/m 1,0 C 1,0 C 9,7 km/h (2 Bft) 98,31 %
06.02.2017 14:28 1,4 C 96 % 1014,7 hPa 0,2 l/m 5,7 km/h (1 Bft) W-SW 237 0 min 0,000 mm 0,0 UV-I 83 W/m 0,8 C 1,4 C 8,0 km/h (2 Bft) 95,74 %
06.02.2017 14:30 1,4 C 96 % 1014,7 hPa 0,0 l/m 5,6 km/h (1 Bft) W-SW 243 0 min 0,000 mm 0,0 UV-I 81 W/m 0,8 C 1,4 C 11,3 km/h (2 Bft) 97,56 %
06.02.2017 14:32 1,4 C 97 % 1014,7 hPa 0,0 l/m 6,0 km/h (2 Bft) SW 229 0 min 0,000 mm 0,0 UV-I 79 W/m 1,0 C 1,4 C 8,0 km/h (2 Bft) 92,45 %
06.02.2017 14:34 1,4 C 97 % 1014,8 hPa 0,0 l/m 6,0 km/h (2 Bft) W-SW 237 0 min 0,000 mm 0,0 UV-I 76 W/m 1,0 C 1,4 C 8,0 km/h (2 Bft) 97,87 %
06.02.2017 14:36 1,4 C 97 % 1014,8 hPa 0,0 l/m 5,3 km/h (1 Bft) SW 225 0 min 0,000 mm 0,0 UV-I 77 W/m 1,0 C 1,4 C 8,0 km/h (2 Bft) 97,56 %
06.02.2017 14:38 1,4 C 97 % 1014,8 hPa 0,0 l/m 5,7 km/h (1 Bft) W 276 0 min 0,000 mm 0,0 UV-I 77 W/m 1,0 C 1,4 C 9,7 km/h (2 Bft) 97,62 %
06.02.2017 14:40 1,4 C 97 % 1014,7 hPa 0,0 l/m 7,8 km/h (2 Bft) W-SW 244 0 min 0,000 mm 0,0 UV-I 80 W/m 1,0 C 0,0 C 12,9 km/h (3 Bft) 98,18 %
06.02.2017 14:42 1,4 C 97 % 1014,7 hPa 0,0 l/m 6,6 km/h (2 Bft) W-SW 256 0 min 0,000 mm 0,0 UV-I 81 W/m 1,0 C 1,2 C 11,3 km/h (2 Bft) 97,44 %
06.02.2017 14:44 1,4 C 97 % 1014,8 hPa 0,0 l/m 8,4 km/h (2 Bft) SW 230 0 min 0,000 mm 0,0 UV-I 82 W/m 1,0 C -0,5 C 14,5 km/h (3 Bft) 96,23 %
06.02.2017 14:46 1,4 C 97 % 1014,8 hPa 0,2 l/m 8,3 km/h (2 Bft) SW 231 0 min 0,000 mm 0,0 UV-I 83 W/m 1,0 C -0,5 C 12,9 km/h (3 Bft) 100,00 %
06.02.2017 14:48 1,4 C 97 % 1014,8 hPa 0,0 l/m 7,1 km/h (2 Bft) W-SW 242 0 min 0,000 mm 0,0 UV-I 83 W/m 1,0 C 0,7 C 12,9 km/h (3 Bft) 100,00 %
06.02.2017 14:50 1,4 C 97 % 1014,8 hPa 0,0 l/m 7,5 km/h (2 Bft) SW 227 0 min 0,000 mm 0,0 UV-I 83 W/m 1,0 C 0,3 C 9,7 km/h (2 Bft) 98,00 %
06.02.2017 14:52 1,4 C 97 % 1014,9 hPa 0,0 l/m 8,3 km/h (2 Bft) W-SW 246 0 min 0,000 mm 0,0 UV-I 81 W/m 1,0 C -0,5 C 12,9 km/h (3 Bft) 100,00 %
06.02.2017 14:54 1,4 C 97 % 1014,9 hPa 0,0 l/m 7,0 km/h (2 Bft) SW 221 0 min 0,000 mm 0,0 UV-I 81 W/m 1,0 C 0,8 C 8,0 km/h (2 Bft) 100,00 %
06.02.2017 14:56 1,4 C 97 % 1014,9 hPa 0,0 l/m 7,9 km/h (2 Bft) SW 218 0 min 0,000 mm 0,0 UV-I 81 W/m 1,0 C -0,1 C 11,3 km/h (2 Bft) 100,00 %
06.02.2017 14:58 1,4 C 97 % 1014,9 hPa 0,0 l/m 8,0 km/h (2 Bft) W-SW 240 0 min 0,000 mm 0,0 UV-I 80 W/m 1,0 C -0,2 C 12,9 km/h (3 Bft) 100,00 %
06.02.2017 15:00 1,4 C 97 % 1014,9 hPa 0,0 l/m 7,6 km/h (2 Bft) SW 229 0 min 0,025 mm 0,0 UV-I 78 W/m 1,0 C 0,2 C 9,7 km/h (2 Bft) 94,74 %
06.02.2017 15:02 1,4 C 97 % 1014,9 hPa 0,2 l/m 7,4 km/h (2 Bft) W-SW 246 0 min 0,000 mm 0,0 UV-I 78 W/m 1,0 C 0,4 C 11,3 km/h (2 Bft) 96,00 %
06.02.2017 15:04 1,4 C 97 % 1015,0 hPa 0,0 l/m 7,8 km/h (2 Bft) SW 225 0 min 0,000 mm 0,0 UV-I 77 W/m 1,0 C 0,0 C 11,3 km/h (2 Bft) 100,00 %
06.02.2017 15:06 1,4 C 97 % 1015,0 hPa 0,0 l/m 7,3 km/h (2 Bft) W-SW 246 0 min 0,000 mm 0,0 UV-I 76 W/m 1,0 C 0,5 C 11,3 km/h (2 Bft) 96,43 %
06.02.2017 15:08 1,4 C 97 % 1015,0 hPa 0,0 l/m 6,8 km/h (2 Bft) SW 236 0 min 0,000 mm 0,0 UV-I 76 W/m 1,0 C 1,0 C 11,3 km/h (2 Bft) 94,74 %
06.02.2017 15:10 1,4 C 97 % 1015,1 hPa 0,0 l/m 6,9 km/h (2 Bft) SW 232 0 min 0,000 mm 0,0 UV-I 73 W/m 1,0 C 0,9 C 11,3 km/h (2 Bft) 98,21 %
06.02.2017 15:12 1,4 C 97 % 1015,1 hPa 0,0 l/m 6,4 km/h (2 Bft) SW 227 0 min 0,000 mm 0,0 UV-I 70 W/m 1,0 C 1,4 C 9,7 km/h (2 Bft) 97,56 %
06.02.2017 15:14 1,4 C 97 % 1015,1 hPa 0,0 l/m 6,1 km/h (2 Bft) SW 223 0 min 0,000 mm 0,0 UV-I 69 W/m 1,0 C 1,4 C 8,0 km/h (2 Bft) 100,00 %
06.02.2017 15:16 1,4 C 97 % 1015,1 hPa 0,0 l/m 7,2 km/h (2 Bft) SW 236 0 min 0,000 mm 0,0 UV-I 67 W/m 1,0 C 0,6 C 11,3 km/h (2 Bft) 98,28 %
06.02.2017 15:18 1,4 C 97 % 1015,1 hPa 0,0 l/m 6,5 km/h (2 Bft) W-SW 249 0 min 0,000 mm 0,0 UV-I 67 W/m 1,0 C 1,3 C 11,3 km/h (2 Bft) 94,00 %
06.02.2017 15:20 1,4 C 97 % 1015,1 hPa 0,0 l/m 6,2 km/h (2 Bft) W-SW 251 0 min 0,000 mm 0,0 UV-I 67 W/m 1,0 C 1,4 C 11,3 km/h (2 Bft) 97,62 %
06.02.2017 15:22 1,4 C 97 % 1015,1 hPa 0,0 l/m 7,7 km/h (2 Bft) SW 219 0 min 0,000 mm 0,0 UV-I 65 W/m 1,0 C 0,1 C 12,9 km/h (3 Bft) 97,56 %
06.02.2017 15:24 1,4 C 97 % 1015,1 hPa 0,0 l/m 6,7 km/h (2 Bft) SW 234 0 min 0,000 mm 0,0 UV-I 64 W/m 1,0 C 1,1 C 9,7 km/h (2 Bft) 94,92 %
06.02.2017 15:26 1,3 C 97 % 1015,2 hPa 0,0 l/m 8,0 km/h (2 Bft) W-SW 248 0 min 0,000 mm 0,0 UV-I 63 W/m 0,9 C -0,3 C 12,9 km/h (3 Bft) 95,12 %
06.02.2017 15:28 1,3 C 97 % 1015,2 hPa 0,2 l/m 9,2 km/h (2 Bft) W 259 0 min 0,000 mm 0,0 UV-I 61 W/m 0,9 C -1,4 C 14,5 km/h (3 Bft) 92,11 %
06.02.2017 15:30 1,3 C 97 % 1015,3 hPa 0,0 l/m 9,7 km/h (2 Bft) SW 236 0 min 0,000 mm 0,0 UV-I 59 W/m 0,9 C -1,8 C 14,5 km/h (3 Bft) 96,49 %
06.02.2017 15:32 1,3 C 97 % 1015,3 hPa 0,0 l/m 8,4 km/h (2 Bft) W-SW 238 0 min 0,000 mm 0,0 UV-I 58 W/m 0,9 C -0,7 C 12,9 km/h (3 Bft) 96,00 %
06.02.2017 15:34 1,3 C 97 % 1015,3 hPa 0,0 l/m 8,4 km/h (2 Bft) W-SW 252 0 min 0,000 mm 0,0 UV-I 60 W/m 0,9 C -0,7 C 12,9 km/h (3 Bft) 97,56 %
06.02.2017 15:36 1,3 C 97 % 1015,4 hPa 0,0 l/m 6,1 km/h (2 Bft) W 260 0 min 0,000 mm 0,0 UV-I 60 W/m 0,9 C 1,3 C 11,3 km/h (2 Bft) 98,00 %
06.02.2017 15:38 1,3 C 97 % 1015,3 hPa 0,0 l/m 8,7 km/h (2 Bft) SW 225 0 min 0,000 mm 0,0 UV-I 62 W/m 0,9 C -0,9 C 12,9 km/h (3 Bft) 94,00 %
06.02.2017 15:40 1,3 C 97 % 1015,3 hPa 0,0 l/m 8,3 km/h (2 Bft) W-SW 249 0 min 0,000 mm 0,0 UV-I 62 W/m 0,9 C -0,6 C 11,3 km/h (2 Bft) 95,12 %
06.02.2017 15:42 1,3 C 97 % 1015,4 hPa 0,2 l/m 6,6 km/h (2 Bft) W-SW 242 0 min 0,000 mm 0,0 UV-I 59 W/m 0,9 C 1,1 C 9,7 km/h (2 Bft) 97,73 %
06.02.2017 15:44 1,3 C 97 % 1015,4 hPa 0,0 l/m 7,6 km/h (2 Bft) W-SW 240 0 min 0,000 mm 0,0 UV-I 56 W/m 0,9 C 0,1 C 11,3 km/h (2 Bft) 96,23 %
06.02.2017 15:46 1,3 C 97 % 1015,4 hPa 0,0 l/m 6,4 km/h (2 Bft) W-SW 242 0 min 0,000 mm 0,0 UV-I 54 W/m 0,9 C 1,3 C 8,0 km/h (2 Bft) 97,56 %
06.02.2017 15:48 1,2 C 97 % 1015,4 hPa 0,0 l/m 8,1 km/h (2 Bft) SW 232 0 min 0,000 mm 0,0 UV-I 53 W/m 0,8 C -0,5 C 14,5 km/h (3 Bft) 98,21 %
06.02.2017 15:50 1,3 C 97 % 1015,4 hPa 0,0 l/m 7,5 km/h (2 Bft) SW 233 0 min 0,000 mm 0,0 UV-I 51 W/m 0,9 C 0,2 C 11,3 km/h (2 Bft) 97,78 %
06.02.2017 15:52 1,3 C 97 % 1015,4 hPa 0,0 l/m 6,8 km/h (2 Bft) W-SW 257 0 min 0,000 mm 0,0 UV-I 49 W/m 0,9 C 0,9 C 11,3 km/h (2 Bft) 100,00 %
06.02.2017 15:54 1,2 C 97 % 1015,4 hPa 0,0 l/m 6,8 km/h (2 Bft) W-SW 243 0 min 0,000 mm 0,0 UV-I 49 W/m 0,8 C 0,8 C 11,3 km/h (2 Bft) 94,34 %
06.02.2017 15:56 1,2 C 97 % 1015,5 hPa 0,0 l/m 8,8 km/h (2 Bft) SW 234 0 min 0,000 mm 0,0 UV-I 48 W/m 0,8 C -1,1 C 12,9 km/h (3 Bft) 90,91 %
06.02.2017 15:58 1,2 C 97 % 1015,4 hPa 0,0 l/m 6,3 km/h (2 Bft) S-SW 212 0 min 0,000 mm 0,0 UV-I 47 W/m 0,8 C 1,2 C 9,7 km/h (2 Bft) 96,23 %
06.02.2017 16:00 1,2 C 97 % 1015,4 hPa 0,0 l/m 6,6 km/h (2 Bft) W-SW 238 0 min 0,025 mm 0,0 UV-I 47 W/m 0,8 C 1,0 C 9,7 km/h (2 Bft) 97,44 %
06.02.2017 16:02 1,2 C 97 % 1015,5 hPa 0,0 l/m 7,4 km/h (2 Bft) SW 236 0 min 0,000 mm 0,0 UV-I 47 W/m 0,8 C 0,2 C 12,9 km/h (3 Bft) 100,00 %
06.02.2017 16:04 1,2 C 97 % 1015,5 hPa 0,0 l/m 7,2 km/h (2 Bft) W-SW 238 0 min 0,000 mm 0,0 UV-I 46 W/m 0,8 C 0,4 C 12,9 km/h (3 Bft) 98,11 %
06.02.2017 16:06 1,2 C 97 % 1015,5 hPa 0,0 l/m 7,2 km/h (2 Bft) W-SW 251 0 min 0,000 mm 0,0 UV-I 46 W/m 0,8 C 0,4 C 12,9 km/h (3 Bft) 98,00 %
06.02.2017 16:08 1,2 C 97 % 1015,6 hPa 0,2 l/m 6,6 km/h (2 Bft) W-SW 247 0 min 0,000 mm 0,0 UV-I 44 W/m 0,8 C 1,0 C 11,3 km/h (2 Bft) 100,00 %
06.02.2017 16:10 1,2 C 97 % 1015,6 hPa 0,0 l/m 6,6 km/h (2 Bft) W-SW 252 0 min 0,000 mm 0,0 UV-I 43 W/m 0,8 C 1,0 C 9,7 km/h (2 Bft) 100,00 %
06.02.2017 16:12 1,2 C 97 % 1015,6 hPa 0,0 l/m 7,4 km/h (2 Bft) SW 215 0 min 0,000 mm 0,0 UV-I 42 W/m 0,8 C 0,2 C 11,3 km/h (2 Bft) 94,64 %
06.02.2017 16:14 1,2 C 97 % 1015,7 hPa 0,0 l/m 6,4 km/h (2 Bft) W-SW 249 0 min 0,000 mm 0,0 UV-I 42 W/m 0,8 C 1,2 C 8,0 km/h (2 Bft) 97,56 %
06.02.2017 16:16 1,2 C 97 % 1015,6 hPa 0,0 l/m 8,6 km/h (2 Bft) W-SW 239 0 min 0,000 mm 0,0 UV-I 40 W/m 0,8 C -0,9 C 16,1 km/h (3 Bft) 97,87 %
06.02.2017 16:18 1,2 C 97 % 1015,6 hPa 0,0 l/m 8,4 km/h (2 Bft) SW 232 0 min 0,000 mm 0,0 UV-I 40 W/m 0,8 C -0,8 C 12,9 km/h (3 Bft) 97,87 %
06.02.2017 16:20 1,2 C 97 % 1015,7 hPa 0,2 l/m 7,8 km/h (2 Bft) SW 232 0 min 0,000 mm 0,0 UV-I 40 W/m 0,8 C -0,2 C 14,5 km/h (3 Bft) 100,00 %
06.02.2017 16:22 1,2 C 97 % 1015,7 hPa 0,0 l/m 9,8 km/h (2 Bft) SW 221 0 min 0,000 mm 0,0 UV-I 39 W/m 0,8 C -2,0 C 12,9 km/h (3 Bft) 100,00 %
06.02.2017 16:24 1,2 C 97 % 1015,7 hPa 0,0 l/m 8,4 km/h (2 Bft) W-SW 255 0 min 0,000 mm 0,0 UV-I 38 W/m 0,8 C -0,8 C 12,9 km/h (3 Bft) 98,31 %
06.02.2017 16:26 1,2 C 97 % 1015,7 hPa 0,0 l/m 8,4 km/h (2 Bft) SW 232 0 min 0,000 mm 0,0 UV-I 36 W/m 0,8 C -0,8 C 11,3 km/h (2 Bft) 100,00 %
06.02.2017 16:28 1,2 C 97 % 1015,8 hPa 0,0 l/m 7,8 km/h (2 Bft) SW 234 0 min 0,000 mm 0,0 UV-I 34 W/m 0,8 C -0,2 C 11,3 km/h (2 Bft) 97,67 %
06.02.2017 16:30 1,2 C 97 % 1015,8 hPa 0,0 l/m 9,3 km/h (2 Bft) SW 235 0 min 0,000 mm 0,0 UV-I 33 W/m 0,8 C -1,5 C 16,1 km/h (3 Bft) 98,00 %
06.02.2017 16:32 1,2 C 97 % 1015,8 hPa 0,0 l/m 9,9 km/h (2 Bft) SW 224 0 min 0,000 mm 0,0 UV-I 33 W/m 0,8 C -2,0 C 14,5 km/h (3 Bft) 97,87 %
06.02.2017 16:34 1,2 C 97 % 1015,8 hPa 0,0 l/m 9,9 km/h (2 Bft) SW 234 0 min 0,000 mm 0,0 UV-I 32 W/m 0,8 C -2,0 C 16,1 km/h (3 Bft) 100,00 %
06.02.2017 16:36 1,2 C 97 % 1015,9 hPa 0,0 l/m 6,1 km/h (2 Bft) SW 219 0 min 0,000 mm 0,0 UV-I 32 W/m 0,8 C 1,2 C 9,7 km/h (2 Bft) 97,62 %
06.02.2017 16:38 1,2 C 97 % 1015,9 hPa 0,2 l/m 7,0 km/h (2 Bft) S 186 0 min 0,000 mm 0,0 UV-I 30 W/m 0,8 C 0,6 C 11,3 km/h (2 Bft) 100,00 %
06.02.2017 16:40 1,2 C 97 % 1015,9 hPa 0,0 l/m 6,7 km/h (2 Bft) S-SW 211 0 min 0,000 mm 0,0 UV-I 29 W/m 0,8 C 0,9 C 9,7 km/h (2 Bft) 97,62 %
06.02.2017 16:42 1,1 C 97 % 1015,9 hPa 0,0 l/m 7,0 km/h (2 Bft) S-SW 200 0 min 0,000 mm 0,0 UV-I 27 W/m 0,7 C 0,5 C 9,7 km/h (2 Bft) 97,73 %
06.02.2017 16:44 1,2 C 97 % 1015,9 hPa 0,0 l/m 6,3 km/h (2 Bft) SW 225 0 min 0,000 mm 0,0 UV-I 26 W/m 0,8 C 1,2 C 8,0 km/h (2 Bft) 95,74 %
06.02.2017 16:46 1,2 C 97 % 1015,9 hPa 0,0 l/m 6,3 km/h (2 Bft) S-SW 211 0 min 0,000 mm 0,0 UV-I 25 W/m 0,8 C 1,2 C 8,0 km/h (2 Bft) 98,00 %
06.02.2017 16:48 1,1 C 97 % 1015,9 hPa 0,0 l/m 5,4 km/h (1 Bft) SW 226 0 min 0,000 mm 0,0 UV-I 22 W/m 0,7 C 1,1 C 9,7 km/h (2 Bft) 98,00 %
06.02.2017 16:50 1,2 C 97 % 1016,1 hPa 0,0 l/m 5,0 km/h (1 Bft) SW 220 0 min 0,000 mm 0,0 UV-I 20 W/m 0,8 C 1,2 C 9,7 km/h (2 Bft) 94,00 %
06.02.2017 16:52 1,2 C 97 % 1016,1 hPa 0,0 l/m 6,6 km/h (2 Bft) W-SW 244 0 min 0,000 mm 0,0 UV-I 18 W/m 0,8 C 1,0 C 11,3 km/h (2 Bft) 100,00 %
06.02.2017 16:54 1,2 C 97 % 1016,1 hPa 0,0 l/m 5,8 km/h (2 Bft) S-SW 208 0 min 0,000 mm 0,0 UV-I 17 W/m 0,8 C 1,2 C 9,7 km/h (2 Bft) 100,00 %
06.02.2017 16:56 1,2 C 97 % 1016,1 hPa 0,2 l/m 5,2 km/h (1 Bft) SW 221 0 min 0,000 mm 0,0 UV-I 14 W/m 0,8 C 1,2 C 9,7 km/h (2 Bft) 95,16 %
06.02.2017 16:58 1,2 C 97 % 1016,1 hPa 0,0 l/m 6,4 km/h (2 Bft) S-SW 209 2 min 0,000 mm 0,0 UV-I 12 W/m 0,8 C 1,2 C 9,7 km/h (2 Bft) 100,00 %
06.02.2017 17:00 1,2 C 97 % 1016,2 hPa 0,0 l/m 8,3 km/h (2 Bft) S-SW 211 2 min 0,000 mm 0,0 UV-I 10 W/m 0,8 C -0,7 C 11,3 km/h (2 Bft) 97,87 %
06.02.2017 17:02 1,2 C 97 % 1016,1 hPa 0,0 l/m 8,2 km/h (2 Bft) SW 224 0 min 0,000 mm 0,0 UV-I 9 W/m 0,8 C -0,6 C 11,3 km/h (2 Bft) 94,74 %
06.02.2017 17:04 1,2 C 97 % 1016,2 hPa 0,0 l/m 7,2 km/h (2 Bft) S-SW 213 0 min 0,000 mm 0,0 UV-I 7 W/m 0,8 C 0,4 C 9,7 km/h (2 Bft) 100,00 %
06.02.2017 17:06 1,1 C 97 % 1016,2 hPa 0,0 l/m 7,0 km/h (2 Bft) S 180 0 min 0,000 mm 0,0 UV-I 6 W/m 0,7 C 0,5 C 9,7 km/h (2 Bft) 88,64 %
06.02.2017 17:08 1,1 C 97 % 1016,2 hPa 0,0 l/m 7,5 km/h (2 Bft) W-SW 238 0 min 0,000 mm 0,0 UV-I 5 W/m 0,7 C -0,0 C 12,9 km/h (3 Bft) 98,00 %
06.02.2017 17:10 1,1 C 97 % 1016,3 hPa 0,0 l/m 7,2 km/h (2 Bft) SW 232 0 min 0,000 mm 0,0 UV-I 5 W/m 0,7 C 0,3 C 9,7 km/h (2 Bft) 93,18 %
06.02.2017 17:12 1,1 C 97 % 1016,3 hPa 0,0 l/m 8,0 km/h (2 Bft) SW 235 0 min 0,000 mm 0,0 UV-I 5 W/m 0,7 C -0,5 C 12,9 km/h (3 Bft) 100,00 %
06.02.2017 17:14 1,1 C 97 % 1016,3 hPa 0,0 l/m 7,4 km/h (2 Bft) W-SW 248 0 min 0,000 mm 0,0 UV-I 5 W/m 0,7 C 0,1 C 11,3 km/h (2 Bft) 100,00 %
06.02.2017 17:16 1,1 C 97 % 1016,5 hPa 0,0 l/m 8,6 km/h (2 Bft) W-SW 242 0 min 0,000 mm 0,0 UV-I 0 W/m 0,7 C -1,0 C 11,3 km/h (2 Bft) 97,44 %
06.02.2017 17:18 1,1 C 97 % 1016,5 hPa 0,0 l/m 6,0 km/h (2 Bft) SW 219 0 min 0,000 mm 0,0 UV-I 0 W/m 0,7 C 1,1 C 9,7 km/h (2 Bft) 96,15 %
06.02.2017 17:20 1,1 C 97 % 1016,5 hPa 0,0 l/m 6,5 km/h (2 Bft) SW 221 0 min 0,000 mm 0,0 UV-I 0 W/m 0,7 C 1,0 C 11,3 km/h (2 Bft) 92,00 %
06.02.2017 17:22 1,1 C 97 % 1016,6 hPa 0,0 l/m 8,4 km/h (2 Bft) SW 225 0 min 0,000 mm 0,0 UV-I 0 W/m 0,7 C -0,9 C 11,3 km/h (2 Bft) 100,00 %
06.02.2017 17:24 1,1 C 97 % 1016,6 hPa 0,0 l/m 7,5 km/h (2 Bft) W-SW 248 0 min 0,000 mm 0,0 UV-I 0 W/m 0,7 C -0,0 C 11,3 km/h (2 Bft) 90,91 %
06.02.2017 17:26 1,1 C 97 % 1016,7 hPa 0,0 l/m 7,6 km/h (2 Bft) W-SW 247 0 min 0,000 mm 0,0 UV-I 0 W/m 0,7 C -0,1 C 12,9 km/h (3 Bft) 96,43 %
06.02.2017 17:28 1,1 C 97 % 1016,7 hPa 0,0 l/m 7,8 km/h (2 Bft) W-SW 245 0 min 0,000 mm 0,0 UV-I 0 W/m 0,7 C -0,3 C 11,3 km/h (2 Bft) 95,74 %
06.02.2017 17:30 1,1 C 97 % 1016,7 hPa 0,0 l/m 6,2 km/h (2 Bft) W-SW 249 0 min 0,000 mm 0,0 UV-I 0 W/m 0,7 C 1,1 C 12,9 km/h (3 Bft) 94,00 %
06.02.2017 17:32 1,1 C 97 % 1016,7 hPa 0,0 l/m 7,7 km/h (2 Bft) SW 225 0 min 0,000 mm 0,0 UV-I 0 W/m 0,7 C -0,2 C 12,9 km/h (3 Bft) 97,87 %
06.02.2017 17:34 1,1 C 97 % 1016,8 hPa 0,0 l/m 7,9 km/h (2 Bft) W 261 0 min 0,000 mm 0,0 UV-I 0 W/m 0,7 C -0,4 C 11,3 km/h (2 Bft) 94,74 %
06.02.2017 17:36 1,1 C 97 % 1016,8 hPa 0,0 l/m 8,4 km/h (2 Bft) SW 214 0 min 0,000 mm 0,0 UV-I 0 W/m 0,7 C -0,9 C 12,9 km/h (3 Bft) 90,91 %
06.02.2017 17:38 1,1 C 97 % 1016,8 hPa 0,0 l/m 7,0 km/h (2 Bft) W-SW 242 0 min 0,000 mm 0,0 UV-I 0 W/m 0,7 C 0,5 C 9,7 km/h (2 Bft) 96,23 %
06.02.2017 17:40 1,1 C 97 % 1016,8 hPa 0,0 l/m 8,2 km/h (2 Bft) W-SW 242 0 min 0,000 mm 0,0 UV-I 0 W/m 0,7 C -0,7 C 14,5 km/h (3 Bft) 97,56 %
06.02.2017 17:42 1,1 C 97 % 1016,9 hPa 0,2 l/m 8,8 km/h (2 Bft) W-SW 257 0 min 0,000 mm 0,0 UV-I 0 W/m 0,7 C -1,2 C 12,9 km/h (3 Bft) 94,00 %
06.02.2017 17:44 1,0 C 97 % 1016,9 hPa 0,0 l/m 7,6 km/h (2 Bft) W-SW 240 0 min 0,000 mm 0,0 UV-I 0 W/m 0,6 C -0,2 C 12,9 km/h (3 Bft) 93,62 %
06.02.2017 17:46 1,0 C 97 % 1016,9 hPa 0,0 l/m 8,4 km/h (2 Bft) SW 220 0 min 0,000 mm 0,0 UV-I 0 W/m 0,6 C -1,0 C 12,9 km/h (3 Bft) 92,00 %
06.02.2017 17:48 1,0 C 97 % 1016,9 hPa 0,2 l/m 8,5 km/h (2 Bft) W-SW 250 0 min 0,000 mm 0,0 UV-I 0 W/m 0,6 C -1,1 C 12,9 km/h (3 Bft) 95,74 %
06.02.2017 17:50 0,9 C 97 % 1017,0 hPa 0,0 l/m 6,6 km/h (2 Bft) SW 233 0 min 0,000 mm 0,0 UV-I 0 W/m 0,5 C 0,7 C 9,7 km/h (2 Bft) 95,12 %
06.02.2017 17:52 0,9 C 97 % 1017,1 hPa 0,0 l/m 5,6 km/h (1 Bft) W-SW 254 0 min 0,000 mm 0,0 UV-I 0 W/m 0,5 C 0,9 C 8,0 km/h (2 Bft) 94,00 %
06.02.2017 17:54 0,9 C 97 % 1017,1 hPa 0,0 l/m 6,7 km/h (2 Bft) W-SW 238 0 min 0,000 mm 0,0 UV-I 0 W/m 0,5 C 0,6 C 9,7 km/h (2 Bft) 95,56 %
06.02.2017 17:56 0,9 C 97 % 1017,1 hPa 0,0 l/m 6,9 km/h (2 Bft) W-SW 240 0 min 0,000 mm 0,0 UV-I 0 W/m 0,5 C 0,4 C 11,3 km/h (2 Bft) 100,00 %
06.02.2017 17:58 0,9 C 97 % 1017,1 hPa 0,0 l/m 7,1 km/h (2 Bft) SW 234 0 min 0,000 mm 0,0 UV-I 0 W/m 0,5 C 0,2 C 9,7 km/h (2 Bft) 95,74 %
06.02.2017 18:00 0,9 C 97 % 1017,1 hPa 0,0 l/m 7,2 km/h (2 Bft) SW 229 0 min 0,000 mm 0,0 UV-I 0 W/m 0,5 C 0,1 C 12,9 km/h (3 Bft) 100,00 %
06.02.2017 18:02 0,9 C 97 % 1017,1 hPa 0,0 l/m 7,3 km/h (2 Bft) SW 222 0 min 0,000 mm 0,0 UV-I 0 W/m 0,5 C -0,0 C 9,7 km/h (2 Bft) 100,00 %
06.02.2017 18:04 0,9 C 97 % 1017,2 hPa 0,0 l/m 7,1 km/h (2 Bft) SW 229 0 min 0,000 mm 0,0 UV-I 0 W/m 0,5 C 0,2 C 9,7 km/h (2 Bft) 94,92 %
06.02.2017 18:06 0,9 C 97 % 1017,2 hPa 0,0 l/m 7,2 km/h (2 Bft) SW 233 0 min 0,000 mm 0,0 UV-I 0 W/m 0,5 C 0,1 C 9,7 km/h (2 Bft) 100,00 %
06.02.2017 18:08 0,9 C 97 % 1017,2 hPa 0,2 l/m 6,0 km/h (2 Bft) W-SW 248 0 min 0,000 mm 0,0 UV-I 0 W/m 0,5 C 0,9 C 9,7 km/h (2 Bft) 94,12 %
06.02.2017 18:10 1,0 C 97 % 1017,2 hPa 0,0 l/m 7,4 km/h (2 Bft) SW 232 0 min 0,000 mm 0,0 UV-I 0 W/m 0,6 C -0,0 C 9,7 km/h (2 Bft) 93,18 %
06.02.2017 18:12 1,0 C 97 % 1017,2 hPa 0,0 l/m 7,1 km/h (2 Bft) W-SW 252 0 min 0,000 mm 0,0 UV-I 0 W/m 0,6 C 0,3 C 11,3 km/h (2 Bft) 100,00 %
06.02.2017 18:14 1,0 C 97 % 1017,2 hPa 0,0 l/m 8,5 km/h (2 Bft) SW 229 0 min 0,000 mm 0,0 UV-I 0 W/m 0,6 C -1,1 C 12,9 km/h (3 Bft) 98,11 %
06.02.2017 18:16 1,0 C 97 % 1017,3 hPa 0,0 l/m 8,8 km/h (2 Bft) S-SW 213 0 min 0,000 mm 0,0 UV-I 0 W/m 0,6 C -1,3 C 14,5 km/h (3 Bft) 90,24 %
06.02.2017 18:18 1,0 C 97 % 1017,3 hPa 0,0 l/m 8,9 km/h (2 Bft) SW 234 0 min 0,000 mm 0,0 UV-I 0 W/m 0,6 C -1,4 C 12,9 km/h (3 Bft) 100,00 %
06.02.2017 18:20 1,0 C 97 % 1017,3 hPa 0,0 l/m 7,1 km/h (2 Bft) W-SW 238 0 min 0,000 mm 0,0 UV-I 0 W/m 0,6 C 0,3 C 9,7 km/h (2 Bft) 97,14 %
06.02.2017 18:22 1,0 C 97 % 1017,4 hPa 0,0 l/m 8,0 km/h (2 Bft) SW 223 0 min 0,000 mm 0,0 UV-I 0 W/m 0,6 C -0,6 C 11,3 km/h (2 Bft) 95,56 %
06.02.2017 18:24 1,0 C 97 % 1017,4 hPa 0,0 l/m 8,9 km/h (2 Bft) S-SW 211 0 min 0,000 mm 0,0 UV-I 0 W/m 0,6 C -1,4 C 12,9 km/h (3 Bft) 98,11 %
06.02.2017 18:26 1,0 C 97 % 1017,4 hPa 0,0 l/m 7,6 km/h (2 Bft) SW 232 0 min 0,000 mm 0,0 UV-I 0 W/m 0,6 C -0,2 C 11,3 km/h (2 Bft) 96,00 %
06.02.2017 18:28 1,0 C 97 % 1017,4 hPa 0,2 l/m 7,4 km/h (2 Bft) SW 216 0 min 0,000 mm 0,0 UV-I 0 W/m 0,6 C -0,0 C 12,9 km/h (3 Bft) 94,74 %
06.02.2017 18:30 1,0 C 97 % 1017,4 hPa 0,0 l/m 8,6 km/h (2 Bft) W-SW 248 0 min 0,000 mm 0,0 UV-I 0 W/m 0,6 C -1,2 C 11,3 km/h (2 Bft) 100,00 %
06.02.2017 18:32 1,0 C 97 % 1017,4 hPa 0,0 l/m 7,1 km/h (2 Bft) SW 216 0 min 0,000 mm 0,0 UV-I 0 W/m 0,6 C 0,3 C 11,3 km/h (2 Bft) 90,57 %
06.02.2017 18:34 1,0 C 97 % 1017,5 hPa 0,0 l/m 9,0 km/h (2 Bft) W-SW 250 0 min 0,000 mm 0,0 UV-I 0 W/m 0,6 C -1,5 C 12,9 km/h (3 Bft) 97,56 %
06.02.2017 18:36 1,0 C 97 % 1017,5 hPa 0,0 l/m 7,1 km/h (2 Bft) W-SW 238 0 min 0,000 mm 0,0 UV-I 0 W/m 0,6 C 0,3 C 9,7 km/h (2 Bft) 100,00 %
06.02.2017 18:38 1,0 C 97 % 1017,5 hPa 0,0 l/m 7,3 km/h (2 Bft) W-SW 243 0 min 0,000 mm 0,0 UV-I 0 W/m 0,6 C 0,1 C 11,3 km/h (2 Bft) 96,15 %
06.02.2017 18:40 1,0 C 97 % 1017,6 hPa 0,0 l/m 7,5 km/h (2 Bft) SW 235 0 min 0,000 mm 0,0 UV-I 0 W/m 0,6 C -0,1 C 11,3 km/h (2 Bft) 97,62 %
06.02.2017 18:42 1,0 C 97 % 1017,6 hPa 0,0 l/m 7,9 km/h (2 Bft) SW 217 0 min 0,000 mm 0,0 UV-I 0 W/m 0,6 C -0,5 C 11,3 km/h (2 Bft) 95,74 %
06.02.2017 18:44 1,0 C 97 % 1017,6 hPa 0,0 l/m 9,1 km/h (2 Bft) SW 233 0 min 0,000 mm 0,0 UV-I 0 W/m 0,6 C -1,6 C 12,9 km/h (3 Bft) 100,00 %
06.02.2017 18:46 1,0 C 97 % 1017,6 hPa 0,0 l/m 6,9 km/h (2 Bft) SW 230 0 min 0,000 mm 0,0 UV-I 0 W/m 0,6 C 0,5 C 11,3 km/h (2 Bft) 98,00 %
06.02.2017 18:48 1,0 C 97 % 1017,7 hPa 0,0 l/m 7,4 km/h (2 Bft) SW 236 0 min 0,000 mm 0,0 UV-I 0 W/m 0,6 C -0,0 C 12,9 km/h (3 Bft) 95,45 %
06.02.2017 18:50 1,0 C 97 % 1017,6 hPa 0,0 l/m 8,3 km/h (2 Bft) SW 229 0 min 0,000 mm 0,0 UV-I 0 W/m 0,6 C -0,9 C 11,3 km/h (2 Bft) 97,56 %
06.02.2017 18:52 1,0 C 97 % 1017,6 hPa 0,0 l/m 6,9 km/h (2 Bft) SW 231 0 min 0,000 mm 0,0 UV-I 0 W/m 0,6 C 0,5 C 11,3 km/h (2 Bft) 94,34 %
06.02.2017 18:54 1,0 C 97 % 1017,7 hPa 0,0 l/m 7,8 km/h (2 Bft) SW 227 0 min 0,000 mm 0,0 UV-I 0 W/m 0,6 C -0,4 C 11,3 km/h (2 Bft) 92,11 %
06.02.2017 18:56 1,0 C 97 % 1017,7 hPa 0,0 l/m 7,2 km/h (2 Bft) SW 224 0 min 0,000 mm 0,0 UV-I 0 W/m 0,6 C 0,2 C 11,3 km/h (2 Bft) 100,00 %
06.02.2017 18:58 1,0 C 97 % 1017,7 hPa 0,0 l/m 7,4 km/h (2 Bft) W-SW 248 0 min 0,000 mm 0,0 UV-I 0 W/m 0,6 C -0,0 C 12,9 km/h (3 Bft) 95,74 %
06.02.2017 19:00 1,0 C 97 % 1017,7 hPa 0,0 l/m 8,1 km/h (2 Bft) SW 221 0 min 0,000 mm 0,0 UV-I 0 W/m 0,6 C -0,7 C 11,3 km/h (2 Bft) 94,64 %
06.02.2017 19:02 1,0 C 97 % 1017,8 hPa 0,0 l/m 8,0 km/h (2 Bft) SW 227 0 min 0,000 mm 0,0 UV-I 0 W/m 0,6 C -0,6 C 11,3 km/h (2 Bft) 97,37 %
06.02.2017 19:04 1,0 C 97 % 1017,8 hPa 0,0 l/m 7,2 km/h (2 Bft) SW 231 0 min 0,000 mm 0,0 UV-I 0 W/m 0,6 C 0,2 C 9,7 km/h (2 Bft) 96,43 %
06.02.2017 19:06 1,0 C 97 % 1017,8 hPa 0,0 l/m 6,9 km/h (2 Bft) W-SW 252 0 min 0,000 mm 0,0 UV-I 0 W/m 0,6 C 0,5 C 12,9 km/h (3 Bft) 94,00 %
06.02.2017 19:08 1,0 C 97 % 1017,9 hPa 0,0 l/m 6,9 km/h (2 Bft) SW 232 0 min 0,000 mm 0,0 UV-I 0 W/m 0,6 C 0,5 C 9,7 km/h (2 Bft) 97,56 %
06.02.2017 19:10 1,0 C 97 % 1017,8 hPa 0,0 l/m 6,7 km/h (2 Bft) SW 223 0 min 0,000 mm 0,0 UV-I 0 W/m 0,6 C 0,7 C 9,7 km/h (2 Bft) 96,00 %
06.02.2017 19:12 1,0 C 97 % 1017,9 hPa 0,0 l/m 6,4 km/h (2 Bft) SW 228 0 min 0,000 mm 0,0 UV-I 0 W/m 0,6 C 1,0 C 9,7 km/h (2 Bft) 97,87 %
06.02.2017 19:14 1,0 C 97 % 1017,9 hPa 0,0 l/m 7,9 km/h (2 Bft) SW 216 0 min 0,000 mm 0,0 UV-I 0 W/m 0,6 C -0,5 C 11,3 km/h (2 Bft) 94,00 %
06.02.2017 19:16 1,0 C 97 % 1017,9 hPa 0,0 l/m 8,6 km/h (2 Bft) W-SW 240 0 min 0,000 mm 0,0 UV-I 0 W/m 0,6 C -1,2 C 14,5 km/h (3 Bft) 95,12 %
06.02.2017 19:18 1,0 C 97 % 1017,8 hPa 0,2 l/m 6,8 km/h (2 Bft) W-SW 243 0 min 0,000 mm 0,0 UV-I 0 W/m 0,6 C 0,6 C 9,7 km/h (2 Bft) 97,44 %
06.02.2017 19:20 1,0 C 97 % 1017,8 hPa 0,0 l/m 7,6 km/h (2 Bft) SW 232 0 min 0,000 mm 0,0 UV-I 0 W/m 0,6 C -0,2 C 11,3 km/h (2 Bft) 92,86 %
06.02.2017 19:22 1,0 C 97 % 1017,8 hPa 0,0 l/m 7,6 km/h (2 Bft) SW 226 0 min 0,000 mm 0,0 UV-I 0 W/m 0,6 C -0,2 C 11,3 km/h (2 Bft) 97,56 %
06.02.2017 19:24 0,9 C 97 % 1017,8 hPa 0,0 l/m 9,0 km/h (2 Bft) W-SW 248 0 min 0,000 mm 0,0 UV-I 0 W/m 0,5 C -1,6 C 12,9 km/h (3 Bft) 94,34 %
06.02.2017 19:26 0,9 C 97 % 1017,8 hPa 0,0 l/m 6,5 km/h (2 Bft) W 261 0 min 0,000 mm 0,0 UV-I 0 W/m 0,5 C 0,8 C 11,3 km/h (2 Bft) 97,87 %
06.02.2017 19:28 0,9 C 97 % 1017,8 hPa 0,0 l/m 7,2 km/h (2 Bft) SW 215 0 min 0,000 mm 0,0 UV-I 0 W/m 0,5 C 0,1 C 9,7 km/h (2 Bft) 94,00 %
06.02.2017 19:30 1,0 C 97 % 1017,9 hPa 0,0 l/m 7,8 km/h (2 Bft) SW 234 0 min 0,000 mm 0,0 UV-I 0 W/m 0,6 C -0,4 C 12,9 km/h (3 Bft) 95,74 %
06.02.2017 19:32 0,9 C 97 % 1017,8 hPa 0,0 l/m 9,1 km/h (2 Bft) SW 234 0 min 0,000 mm 0,0 UV-I 0 W/m 0,5 C -1,7 C 12,9 km/h (3 Bft) 94,29 %
06.02.2017 19:34 0,9 C 97 % 1017,9 hPa 0,0 l/m 8,4 km/h (2 Bft) W-SW 241 0 min 0,000 mm 0,0 UV-I 0 W/m 0,5 C -1,1 C 11,3 km/h (2 Bft) 91,07 %
06.02.2017 19:36 0,9 C 97 % 1017,8 hPa 0,0 l/m 8,6 km/h (2 Bft) W-SW 238 0 min 0,000 mm 0,0 UV-I 0 W/m 0,5 C -1,3 C 12,9 km/h (3 Bft) 95,12 %
06.02.2017 19:38 0,9 C 97 % 1017,9 hPa 0,0 l/m 9,2 km/h (2 Bft) SW 227 0 min 0,000 mm 0,0 UV-I 0 W/m 0,5 C -1,8 C 14,5 km/h (3 Bft) 98,11 %
06.02.2017 19:40 0,9 C 97 % 1017,9 hPa 0,0 l/m 11,0 km/h (2 Bft) W-SW 237 0 min 0,000 mm 0,0 UV-I 0 W/m 0,5 C -3,2 C 16,1 km/h (3 Bft) 97,56 %
06.02.2017 19:42 1,0 C 97 % 1017,8 hPa 0,0 l/m 9,7 km/h (2 Bft) SW 223 0 min 0,000 mm 0,0 UV-I 0 W/m 0,6 C -2,1 C 14,5 km/h (3 Bft) 94,00 %
06.02.2017 19:44 1,0 C 97 % 1017,9 hPa 0,0 l/m 9,6 km/h (2 Bft) W-SW 248 0 min 0,000 mm 0,0 UV-I 0 W/m 0,6 C -2,0 C 14,5 km/h (3 Bft) 95,74 %
06.02.2017 19:46 0,9 C 97 % 1017,8 hPa 0,0 l/m 10,2 km/h (2 Bft) W 262 0 min 0,000 mm 0,0 UV-I 0 W/m 0,5 C -2,6 C 14,5 km/h (3 Bft) 95,74 %
06.02.2017 19:48 0,9 C 97 % 1017,8 hPa 0,0 l/m 9,5 km/h (2 Bft) S-SW 213 0 min 0,000 mm 0,0 UV-I 0 W/m 0,5 C -2,0 C 14,5 km/h (3 Bft) 98,00 %
06.02.2017 19:50 1,0 C 97 % 1017,8 hPa 0,0 l/m 8,3 km/h (2 Bft) W-SW 244 0 min 0,000 mm 0,0 UV-I 0 W/m 0,6 C -0,9 C 14,5 km/h (3 Bft) 94,59 %
06.02.2017 19:52 0,9 C 97 % 1017,8 hPa 0,0 l/m 8,2 km/h (2 Bft) W-SW 239 0 min 0,000 mm 0,0 UV-I 0 W/m 0,5 C -0,9 C 14,5 km/h (3 Bft) 92,86 %
06.02.2017 19:54 1,0 C 97 % 1017,8 hPa 0,0 l/m 10,0 km/h (2 Bft) SW 229 0 min 0,000 mm 0,0 UV-I 0 W/m 0,6 C -2,3 C 14,5 km/h (3 Bft) 97,73 %
06.02.2017 19:56 0,9 C 98 % 1017,8 hPa 0,0 l/m 10,3 km/h (2 Bft) W-SW 238 0 min 0,000 mm 0,0 UV-I 0 W/m 0,6 C -2,7 C 14,5 km/h (3 Bft) 93,75 %
06.02.2017 19:58 1,0 C 98 % 1017,8 hPa 0,0 l/m 8,5 km/h (2 Bft) SW 229 0 min 0,000 mm 0,0 UV-I 0 W/m 0,7 C -1,1 C 12,9 km/h (3 Bft) 95,74 %
06.02.2017 20:00 1,0 C 98 % 1017,9 hPa 0,0 l/m 10,3 km/h (2 Bft) W-SW 238 0 min 0,000 mm 0,0 UV-I 0 W/m 0,7 C -2,6 C 14,5 km/h (3 Bft) 94,74 %
06.02.2017 20:02 1,0 C 98 % 1017,9 hPa 0,0 l/m 9,0 km/h (2 Bft) SW 231 0 min 0,000 mm 0,0 UV-I 0 W/m 0,7 C -1,5 C 12,9 km/h (3 Bft) 96,61 %
06.02.2017 20:04 1,0 C 98 % 1017,9 hPa 0,0 l/m 9,2 km/h (2 Bft) SW 229 0 min 0,000 mm 0,0 UV-I 0 W/m 0,7 C -1,7 C 12,9 km/h (3 Bft) 97,56 %
06.02.2017 20:06 1,0 C 98 % 1017,9 hPa 0,0 l/m 8,8 km/h (2 Bft) W-SW 254 0 min 0,000 mm 0,0 UV-I 0 W/m 0,7 C -1,3 C 12,9 km/h (3 Bft) 98,11 %
06.02.2017 20:08 1,0 C 98 % 1018,0 hPa 0,0 l/m 9,2 km/h (2 Bft) W-SW 252 0 min 0,000 mm 0,0 UV-I 0 W/m 0,7 C -1,7 C 12,9 km/h (3 Bft) 95,12 %
06.02.2017 20:10 1,1 C 97 % 1018,0 hPa 0,0 l/m 9,3 km/h (2 Bft) SW 229 0 min 0,000 mm 0,0 UV-I 0 W/m 0,7 C -1,7 C 12,9 km/h (3 Bft) 96,00 %
06.02.2017 20:12 1,1 C 97 % 1018,0 hPa 0,2 l/m 8,5 km/h (2 Bft) SW 225 0 min 0,000 mm 0,0 UV-I 0 W/m 0,7 C -1,0 C 11,3 km/h (2 Bft) 93,62 %
06.02.2017 20:14 1,1 C 97 % 1017,9 hPa 0,0 l/m 7,9 km/h (2 Bft) SW 225 0 min 0,000 mm 0,0 UV-I 0 W/m 0,7 C -0,4 C 11,3 km/h (2 Bft) 98,00 %
06.02.2017 20:16 1,1 C 97 % 1017,9 hPa 0,0 l/m 6,7 km/h (2 Bft) SW 232 0 min 0,000 mm 0,0 UV-I 0 W/m 0,7 C 0,8 C 11,3 km/h (2 Bft) 97,73 %
06.02.2017 20:18 1,1 C 97 % 1017,9 hPa 0,0 l/m 5,6 km/h (1 Bft) SW 235 0 min 0,000 mm 0,0 UV-I 0 W/m 0,7 C 1,1 C 8,0 km/h (2 Bft) 97,56 %
06.02.2017 20:20 1,1 C 97 % 1017,9 hPa 0,0 l/m 6,1 km/h (2 Bft) SW 227 0 min 0,000 mm 0,0 UV-I 0 W/m 0,7 C 1,1 C 8,0 km/h (2 Bft) 94,74 %
06.02.2017 20:22 1,1 C 97 % 1017,9 hPa 0,0 l/m 6,2 km/h (2 Bft) SW 227 0 min 0,000 mm 0,0 UV-I 0 W/m 0,7 C 1,1 C 9,7 km/h (2 Bft) 94,34 %
06.02.2017 20:24 1,1 C 97 % 1017,9 hPa 0,0 l/m 6,7 km/h (2 Bft) W-SW 242 0 min 0,000 mm 0,0 UV-I 0 W/m 0,7 C 0,8 C 12,9 km/h (3 Bft) 98,00 %
06.02.2017 20:26 1,1 C 97 % 1017,9 hPa 0,0 l/m 7,6 km/h (2 Bft) SW 231 0 min 0,000 mm 0,0 UV-I 0 W/m 0,7 C -0,1 C 9,7 km/h (2 Bft) 95,74 %
06.02.2017 20:28 1,1 C 97 % 1017,9 hPa 0,0 l/m 8,5 km/h (2 Bft) SW 229 0 min 0,000 mm 0,0 UV-I 0 W/m 0,7 C -1,0 C 11,3 km/h (2 Bft) 100,00 %
06.02.2017 20:30 1,1 C 97 % 1018,0 hPa 0,0 l/m 7,2 km/h (2 Bft) S-SW 212 0 min 0,000 mm 0,0 UV-I 0 W/m 0,7 C 0,3 C 9,7 km/h (2 Bft) 98,21 %
06.02.2017 20:32 1,1 C 98 % 1018,0 hPa 0,0 l/m 7,1 km/h (2 Bft) W-SW 238 0 min 0,000 mm 0,0 UV-I 0 W/m 0,8 C 0,4 C 9,7 km/h (2 Bft) 100,00 %
06.02.2017 20:34 1,1 C 98 % 1018,0 hPa 0,0 l/m 5,3 km/h (1 Bft) W 267 0 min 0,000 mm 0,0 UV-I 0 W/m 0,8 C 1,1 C 6,4 km/h (2 Bft) 98,00 %
06.02.2017 20:36 1,1 C 97 % 1017,9 hPa 0,0 l/m 7,7 km/h (2 Bft) SW 225 0 min 0,000 mm 0,0 UV-I 0 W/m 0,7 C -0,2 C 11,3 km/h (2 Bft) 100,00 %
06.02.2017 20:38 1,1 C 98 % 1018,0 hPa 0,0 l/m 6,3 km/h (2 Bft) W-SW 238 0 min 0,000 mm 0,0 UV-I 0 W/m 0,8 C 1,1 C 8,0 km/h (2 Bft) 100,00 %
06.02.2017 20:40 1,2 C 98 % 1018,0 hPa 0,0 l/m 7,2 km/h (2 Bft) W-SW 238 0 min 0,000 mm 0,0 UV-I 0 W/m 0,9 C 0,4 C 9,7 km/h (2 Bft) 96,00 %
06.02.2017 20:42 1,2 C 98 % 1018,0 hPa 0,0 l/m 7,0 km/h (2 Bft) SW 230 0 min 0,000 mm 0,0 UV-I 0 W/m 0,9 C 0,6 C 9,7 km/h (2 Bft) 98,00 %
06.02.2017 20:44 1,2 C 98 % 1018,0 hPa 0,0 l/m 6,8 km/h (2 Bft) W-SW 238 0 min 0,000 mm 0,0 UV-I 0 W/m 0,9 C 0,8 C 9,7 km/h (2 Bft) 100,00 %
06.02.2017 20:46 1,2 C 98 % 1018,0 hPa 0,0 l/m 6,1 km/h (2 Bft) SW 234 0 min 0,000 mm 0,0 UV-I 0 W/m 0,9 C 1,2 C 9,7 km/h (2 Bft) 100,00 %
06.02.2017 20:48 1,2 C 98 % 1018,0 hPa 0,0 l/m 5,7 km/h (1 Bft) W-SW 238 0 min 0,000 mm 0,0 UV-I 0 W/m 0,9 C 1,2 C 9,7 km/h (2 Bft) 94,34 %
06.02.2017 20:50 1,2 C 98 % 1018,0 hPa 0,0 l/m 6,3 km/h (2 Bft) SW 227 0 min 0,000 mm 0,0 UV-I 0 W/m 0,9 C 1,2 C 9,7 km/h (2 Bft) 100,00 %
06.02.2017 20:52 1,2 C 98 % 1018,1 hPa 0,0 l/m 5,7 km/h (1 Bft) W-SW 240 0 min 0,000 mm 0,0 UV-I 0 W/m 0,9 C 1,2 C 8,0 km/h (2 Bft) 98,11 %
06.02.2017 20:54 1,2 C 98 % 1018,1 hPa 0,0 l/m 6,3 km/h (2 Bft) SW 234 0 min 0,000 mm 0,0 UV-I 0 W/m 0,9 C 1,2 C 9,7 km/h (2 Bft) 100,00 %
06.02.2017 20:56 1,2 C 98 % 1018,0 hPa 0,0 l/m 4,6 km/h (1 Bft) W-SW 242 0 min 0,000 mm 0,0 UV-I 0 W/m 0,9 C 1,2 C 6,4 km/h (2 Bft) 97,56 %
06.02.2017 20:58 1,2 C 98 % 1018,0 hPa 0,0 l/m 5,3 km/h (1 Bft) SW 233 0 min 0,000 mm 0,0 UV-I 0 W/m 0,9 C 1,2 C 8,0 km/h (2 Bft) 95,74 %
06.02.2017 21:00 1,2 C 98 % 1018,1 hPa 0,0 l/m 5,5 km/h (1 Bft) W 259 0 min 0,000 mm 0,0 UV-I 0 W/m 0,9 C 1,2 C 9,7 km/h (2 Bft) 98,11 %
06.02.2017 21:02 1,2 C 98 % 1018,1 hPa 0,0 l/m 5,9 km/h (2 Bft) W-SW 252 0 min 0,000 mm 0,0 UV-I 0 W/m 0,9 C 1,2 C 11,3 km/h (2 Bft) 100,00 %
06.02.2017 21:04 1,2 C 98 % 1018,2 hPa 0,0 l/m 6,8 km/h (2 Bft) W-SW 238 0 min 0,000 mm 0,0 UV-I 0 W/m 0,9 C 0,8 C 11,3 km/h (2 Bft) 96,61 %
06.02.2017 21:06 1,2 C 98 % 1018,2 hPa 0,0 l/m 7,1 km/h (2 Bft) W-SW 241 0 min 0,000 mm 0,0 UV-I 0 W/m 0,9 C 0,5 C 11,3 km/h (2 Bft) 97,56 %
06.02.2017 21:08 1,2 C 98 % 1018,2 hPa 0,0 l/m 6,7 km/h (2 Bft) SW 234 0 min 0,000 mm 0,0 UV-I 0 W/m 0,9 C 0,9 C 12,9 km/h (3 Bft) 100,00 %
06.02.2017 21:10 1,3 C 98 % 1018,2 hPa 0,0 l/m 7,0 km/h (2 Bft) SW 235 0 min 0,000 mm 0,0 UV-I 0 W/m 1,0 C 0,7 C 11,3 km/h (2 Bft) 97,87 %
06.02.2017 21:12 1,3 C 98 % 1018,2 hPa 0,0 l/m 5,6 km/h (1 Bft) W-SW 248 0 min 0,000 mm 0,0 UV-I 0 W/m 1,0 C 1,3 C 8,0 km/h (2 Bft) 100,00 %
06.02.2017 21:14 1,3 C 98 % 1018,2 hPa 0,0 l/m 6,3 km/h (2 Bft) W-SW 241 0 min 0,000 mm 0,0 UV-I 0 W/m 1,0 C 1,3 C 9,7 km/h (2 Bft) 96,30 %
06.02.2017 21:16 1,3 C 98 % 1018,2 hPa 0,0 l/m 6,2 km/h (2 Bft) W-SW 248 0 min 0,000 mm 0,0 UV-I 0 W/m 1,0 C 1,3 C 8,0 km/h (2 Bft) 95,52 %
06.02.2017 21:18 1,3 C 98 % 1018,2 hPa 0,2 l/m 5,5 km/h (1 Bft) W-SW 240 0 min 0,000 mm 0,0 UV-I 0 W/m 1,0 C 1,3 C 8,0 km/h (2 Bft) 100,00 %
06.02.2017 21:20 1,3 C 98 % 1018,1 hPa 0,0 l/m 6,4 km/h (2 Bft) W-SW 257 0 min 0,000 mm 0,0 UV-I 0 W/m 1,0 C 1,3 C 9,7 km/h (2 Bft) 97,87 %
06.02.2017 21:22 1,3 C 98 % 1018,2 hPa 0,0 l/m 7,1 km/h (2 Bft) W-SW 255 0 min 0,000 mm 0,0 UV-I 0 W/m 1,0 C 0,6 C 11,3 km/h (2 Bft) 100,00 %
06.02.2017 21:24 1,3 C 98 % 1018,2 hPa 0,0 l/m 7,7 km/h (2 Bft) W-SW 258 0 min 0,000 mm 0,0 UV-I 0 W/m 1,0 C 0,0 C 12,9 km/h (3 Bft) 100,00 %
06.02.2017 21:26 1,2 C 98 % 1018,2 hPa 0,0 l/m 5,4 km/h (1 Bft) W-SW 252 0 min 0,000 mm 0,0 UV-I 0 W/m 0,9 C 1,2 C 8,0 km/h (2 Bft) 100,00 %
06.02.2017 21:28 1,3 C 98 % 1018,2 hPa 0,0 l/m 6,1 km/h (2 Bft) W 263 0 min 0,000 mm 0,0 UV-I 0 W/m 1,0 C 1,3 C 8,0 km/h (2 Bft) 97,56 %
06.02.2017 21:30 1,3 C 98 % 1018,2 hPa 0,0 l/m 6,3 km/h (2 Bft) W-SW 257 0 min 0,000 mm 0,0 UV-I 0 W/m 1,0 C 1,3 C 11,3 km/h (2 Bft) 95,12 %
06.02.2017 21:32 1,3 C 98 % 1018,2 hPa 0,0 l/m 7,0 km/h (2 Bft) W-SW 242 0 min 0,000 mm 0,0 UV-I 0 W/m 1,0 C 0,7 C 11,3 km/h (2 Bft) 100,00 %
06.02.2017 21:34 1,2 C 98 % 1018,2 hPa 0,2 l/m 6,8 km/h (2 Bft) W 259 0 min 0,000 mm 0,0 UV-I 0 W/m 0,9 C 0,8 C 11,3 km/h (2 Bft) 96,08 %
06.02.2017 21:36 1,2 C 98 % 1018,2 hPa 0,0 l/m 8,1 km/h (2 Bft) SW 234 0 min 0,000 mm 0,0 UV-I 0 W/m 0,9 C -0,5 C 11,3 km/h (2 Bft) 96,23 %
06.02.2017 21:38 1,3 C 98 % 1018,2 hPa 0,0 l/m 7,3 km/h (2 Bft) W-SW 240 0 min 0,000 mm 0,0 UV-I 0 W/m 1,0 C 0,4 C 11,3 km/h (2 Bft) 88,57 %
06.02.2017 21:40 1,3 C 98 % 1018,1 hPa 0,0 l/m 8,2 km/h (2 Bft) W 273 0 min 0,000 mm 0,0 UV-I 0 W/m 1,0 C -0,5 C 12,9 km/h (3 Bft) 94,44 %
06.02.2017 21:42 1,3 C 98 % 1018,2 hPa 0,0 l/m 7,2 km/h (2 Bft) W-SW 244 0 min 0,000 mm 0,0 UV-I 0 W/m 1,0 C 0,5 C 11,3 km/h (2 Bft) 95,74 %
06.02.2017 21:44 1,3 C 98 % 1018,2 hPa 0,0 l/m 8,2 km/h (2 Bft) SW 223 0 min 0,000 mm 0,0 UV-I 0 W/m 1,0 C -0,5 C 12,9 km/h (3 Bft) 92,00 %
06.02.2017 21:46 1,3 C 98 % 1018,2 hPa 0,0 l/m 8,0 km/h (2 Bft) W-SW 252 0 min 0,000 mm 0,0 UV-I 0 W/m 1,0 C -0,3 C 11,3 km/h (2 Bft) 96,00 %
06.02.2017 21:48 1,3 C 98 % 1018,2 hPa 0,0 l/m 8,5 km/h (2 Bft) W 271 0 min 0,000 mm 0,0 UV-I 0 W/m 1,0 C -0,7 C 14,5 km/h (3 Bft) 97,73 %
06.02.2017 21:50 1,3 C 98 % 1018,2 hPa 0,2 l/m 8,6 km/h (2 Bft) W 260 0 min 0,000 mm 0,0 UV-I 0 W/m 1,0 C -0,8 C 12,9 km/h (3 Bft) 95,45 %
06.02.2017 21:52 1,3 C 98 % 1018,2 hPa 0,0 l/m 8,3 km/h (2 Bft) W 260 0 min 0,000 mm 0,0 UV-I 0 W/m 1,0 C -0,6 C 12,9 km/h (3 Bft) 88,00 %
06.02.2017 21:54 1,3 C 98 % 1018,2 hPa 0,0 l/m 11,3 km/h (2 Bft) W-SW 248 0 min 0,000 mm 0,0 UV-I 0 W/m 1,0 C -3,0 C 14,5 km/h (3 Bft) 93,62 %
06.02.2017 21:56 1,3 C 98 % 1018,2 hPa 0,0 l/m 8,4 km/h (2 Bft) W 263 0 min 0,000 mm 0,0 UV-I 0 W/m 1,0 C -0,7 C 12,9 km/h (3 Bft) 92,86 %
06.02.2017 21:58 1,2 C 98 % 1018,3 hPa 0,0 l/m 7,0 km/h (2 Bft) W-SW 257 0 min 0,000 mm 0,0 UV-I 0 W/m 0,9 C 0,6 C 11,3 km/h (2 Bft) 94,23 %
06.02.2017 22:00 1,2 C 98 % 1018,2 hPa 0,0 l/m 8,3 km/h (2 Bft) W-SW 251 0 min 0,000 mm 0,0 UV-I 0 W/m 0,9 C -0,7 C 14,5 km/h (3 Bft) 97,44 %
06.02.2017 22:02 1,2 C 98 % 1018,2 hPa 0,0 l/m 8,1 km/h (2 Bft) SW 227 0 min 0,000 mm 0,0 UV-I 0 W/m 0,9 C -0,5 C 12,9 km/h (3 Bft) 95,74 %
06.02.2017 22:04 1,3 C 98 % 1018,2 hPa 0,0 l/m 6,4 km/h (2 Bft) W-SW 242 0 min 0,000 mm 0,0 UV-I 0 W/m 1,0 C 1,3 C 11,3 km/h (2 Bft) 92,45 %
06.02.2017 22:06 1,3 C 98 % 1018,2 hPa 0,0 l/m 6,8 km/h (2 Bft) W-SW 242 0 min 0,000 mm 0,0 UV-I 0 W/m 1,0 C 0,9 C 11,3 km/h (2 Bft) 90,00 %
06.02.2017 22:08 1,3 C 98 % 1018,2 hPa 0,0 l/m 7,2 km/h (2 Bft) W-SW 254 0 min 0,000 mm 0,0 UV-I 0 W/m 1,0 C 0,5 C 9,7 km/h (2 Bft) 95,45 %
06.02.2017 22:10 1,3 C 98 % 1018,2 hPa 0,0 l/m 6,5 km/h (2 Bft) SW 227 0 min 0,000 mm 0,0 UV-I 0 W/m 1,0 C 1,2 C 11,3 km/h (2 Bft) 97,87 %
06.02.2017 22:12 1,3 C 98 % 1018,2 hPa 0,0 l/m 6,1 km/h (2 Bft) SW 220 0 min 0,000 mm 0,0 UV-I 0 W/m 1,0 C 1,3 C 8,0 km/h (2 Bft) 93,62 %
06.02.2017 22:14 1,3 C 98 % 1018,2 hPa 0,2 l/m 6,8 km/h (2 Bft) W-SW 248 0 min 0,000 mm 0,0 UV-I 0 W/m 1,0 C 0,9 C 9,7 km/h (2 Bft) 97,87 %
06.02.2017 22:16 1,3 C 98 % 1018,2 hPa 0,0 l/m 7,0 km/h (2 Bft) SW 231 0 min 0,000 mm 0,0 UV-I 0 W/m 1,0 C 0,7 C 9,7 km/h (2 Bft) 95,45 %
06.02.2017 22:18 1,3 C 98 % 1018,2 hPa 0,0 l/m 5,8 km/h (2 Bft) SW 236 0 min 0,000 mm 0,0 UV-I 0 W/m 1,0 C 1,3 C 11,3 km/h (2 Bft) 97,56 %
06.02.2017 22:20 1,3 C 98 % 1018,3 hPa 0,0 l/m 6,9 km/h (2 Bft) SW 235 0 min 0,000 mm 0,0 UV-I 0 W/m 1,0 C 0,8 C 9,7 km/h (2 Bft) 98,11 %
06.02.2017 22:22 1,3 C 98 % 1018,2 hPa 0,0 l/m 6,1 km/h (2 Bft) SW 226 0 min 0,000 mm 0,0 UV-I 0 W/m 1,0 C 1,3 C 8,0 km/h (2 Bft) 95,74 %
06.02.2017 22:24 1,3 C 98 % 1018,2 hPa 0,0 l/m 6,8 km/h (2 Bft) W-SW 248 0 min 0,000 mm 0,0 UV-I 0 W/m 1,0 C 0,9 C 11,3 km/h (2 Bft) 94,00 %
06.02.2017 22:26 1,3 C 98 % 1018,2 hPa 0,0 l/m 6,8 km/h (2 Bft) W-SW 241 0 min 0,000 mm 0,0 UV-I 0 W/m 1,0 C 0,9 C 11,3 km/h (2 Bft) 100,00 %
06.02.2017 22:28 1,3 C 98 % 1018,2 hPa 0,0 l/m 6,6 km/h (2 Bft) W-SW 238 0 min 0,000 mm 0,0 UV-I 0 W/m 1,0 C 1,1 C 9,7 km/h (2 Bft) 100,00 %
06.02.2017 22:30 1,3 C 98 % 1018,2 hPa 0,0 l/m 7,0 km/h (2 Bft) W-SW 254 0 min 0,000 mm 0,0 UV-I 0 W/m 1,0 C 0,7 C 11,3 km/h (2 Bft) 96,43 %
06.02.2017 22:32 1,3 C 98 % 1018,2 hPa 0,0 l/m 6,9 km/h (2 Bft) W-SW 252 0 min 0,000 mm 0,0 UV-I 0 W/m 1,0 C 0,8 C 11,3 km/h (2 Bft) 97,44 %
06.02.2017 22:34 1,3 C 98 % 1018,3 hPa 0,0 l/m 5,3 km/h (1 Bft) SW 223 0 min 0,000 mm 0,0 UV-I 0 W/m 1,0 C 1,3 C 8,0 km/h (2 Bft) 98,08 %
06.02.2017 22:36 1,3 C 98 % 1018,2 hPa 0,0 l/m 5,1 km/h (1 Bft) SW 236 0 min 0,000 mm 0,0 UV-I 0 W/m 1,0 C 1,3 C 8,0 km/h (2 Bft) 100,00 %
06.02.2017 22:38 1,3 C 98 % 1018,2 hPa 0,0 l/m 5,1 km/h (1 Bft) W-SW 241 0 min 0,000 mm 0,0 UV-I 0 W/m 1,0 C 1,3 C 6,4 km/h (2 Bft) 100,00 %
06.02.2017 22:40 1,3 C 98 % 1018,2 hPa 0,0 l/m 6,4 km/h (2 Bft) SW 216 0 min 0,000 mm 0,0 UV-I 0 W/m 1,0 C 1,3 C 11,3 km/h (2 Bft) 100,00 %
06.02.2017 22:42 1,3 C 98 % 1018,2 hPa 0,0 l/m 7,6 km/h (2 Bft) SW 228 0 min 0,000 mm 0,0 UV-I 0 W/m 1,0 C 0,1 C 11,3 km/h (2 Bft) 92,11 %
06.02.2017 22:44 1,3 C 98 % 1018,2 hPa 0,0 l/m 7,8 km/h (2 Bft) SW 236 0 min 0,000 mm 0,0 UV-I 0 W/m 1,0 C -0,1 C 14,5 km/h (3 Bft) 96,23 %
06.02.2017 22:46 1,3 C 98 % 1018,2 hPa 0,0 l/m 6,4 km/h (2 Bft) SW 236 0 min 0,000 mm 0,0 UV-I 0 W/m 1,0 C 1,3 C 8,0 km/h (2 Bft) 97,87 %
06.02.2017 22:48 1,3 C 98 % 1018,2 hPa 0,0 l/m 7,8 km/h (2 Bft) SW 216 0 min 0,000 mm 0,0 UV-I 0 W/m 1,0 C -0,1 C 11,3 km/h (2 Bft) 97,37 %
06.02.2017 22:50 1,3 C 98 % 1018,2 hPa 0,0 l/m 7,2 km/h (2 Bft) SW 228 0 min 0,000 mm 0,0 UV-I 0 W/m 1,0 C 0,5 C 9,7 km/h (2 Bft) 100,00 %
06.02.2017 22:52 1,3 C 98 % 1018,2 hPa 0,0 l/m 7,1 km/h (2 Bft) SW 229 0 min 0,000 mm 0,0 UV-I 0 W/m 1,0 C 0,6 C 11,3 km/h (2 Bft) 96,00 %
06.02.2017 22:54 1,3 C 98 % 1018,2 hPa 0,0 l/m 7,3 km/h (2 Bft) SW 232 0 min 0,000 mm 0,0 UV-I 0 W/m 1,0 C 0,4 C 11,3 km/h (2 Bft) 95,74 %
06.02.2017 22:56 1,3 C 98 % 1018,2 hPa 0,0 l/m 5,2 km/h (1 Bft) SW 235 0 min 0,000 mm 0,0 UV-I 0 W/m 1,0 C 1,3 C 9,7 km/h (2 Bft) 97,87 %
06.02.2017 22:58 1,3 C 98 % 1018,2 hPa 0,0 l/m 5,2 km/h (1 Bft) SW 226 0 min 0,000 mm 0,0 UV-I 0 W/m 1,0 C 1,3 C 8,0 km/h (2 Bft) 100,00 %
06.02.2017 23:00 1,3 C 98 % 1018,3 hPa 0,0 l/m 5,4 km/h (1 Bft) SW 229 0 min 0,000 mm 0,0 UV-I 0 W/m 1,0 C 1,3 C 8,0 km/h (2 Bft) 100,00 %
06.02.2017 23:02 1,3 C 98 % 1018,2 hPa 0,0 l/m 5,6 km/h (1 Bft) S-SW 205 0 min 0,000 mm 0,0 UV-I 0 W/m 1,0 C 1,3 C 9,7 km/h (2 Bft) 96,43 %
06.02.2017 23:04 1,3 C 98 % 1018,2 hPa 0,0 l/m 5,8 km/h (2 Bft) S-SW 206 0 min 0,000 mm 0,0 UV-I 0 W/m 1,0 C 1,3 C 8,0 km/h (2 Bft) 94,74 %
06.02.2017 23:06 1,3 C 98 % 1018,2 hPa 0,0 l/m 7,5 km/h (2 Bft) S-SW 212 0 min 0,000 mm 0,0 UV-I 0 W/m 1,0 C 0,2 C 9,7 km/h (2 Bft) 100,00 %
06.02.2017 23:08 1,3 C 98 % 1018,2 hPa 0,0 l/m 5,0 km/h (1 Bft) S-SW 207 0 min 0,000 mm 0,0 UV-I 0 W/m 1,0 C 1,3 C 9,7 km/h (2 Bft) 100,00 %
06.02.2017 23:10 1,3 C 98 % 1018,2 hPa 0,0 l/m 5,0 km/h (1 Bft) S-SW 211 0 min 0,000 mm 0,0 UV-I 0 W/m 1,0 C 1,3 C 8,0 km/h (2 Bft) 100,00 %
06.02.2017 23:12 1,3 C 98 % 1018,2 hPa 0,0 l/m 4,5 km/h (1 Bft) S-SW 209 0 min 0,000 mm 0,0 UV-I 0 W/m 1,0 C 1,3 C 6,4 km/h (2 Bft) 100,00 %
06.02.2017 23:14 1,3 C 98 % 1018,3 hPa 0,0 l/m 5,4 km/h (1 Bft) SW 225 0 min 0,000 mm 0,0 UV-I 0 W/m 1,0 C 1,3 C 8,0 km/h (2 Bft) 96,15 %
06.02.2017 23:16 1,3 C 98 % 1018,2 hPa 0,0 l/m 5,2 km/h (1 Bft) SW 229 0 min 0,000 mm 0,0 UV-I 0 W/m 1,0 C 1,3 C 8,0 km/h (2 Bft) 97,62 %
06.02.2017 23:18 1,3 C 98 % 1018,2 hPa 0,0 l/m 6,3 km/h (2 Bft) W-SW 237 0 min 0,000 mm 0,0 UV-I 0 W/m 1,0 C 1,3 C 11,3 km/h (2 Bft) 98,08 %
06.02.2017 23:20 1,3 C 98 % 1018,3 hPa 0,0 l/m 7,4 km/h (2 Bft) SW 234 0 min 0,000 mm 0,0 UV-I 0 W/m 1,0 C 0,3 C 11,3 km/h (2 Bft) 100,00 %
06.02.2017 23:22 1,3 C 98 % 1018,3 hPa 0,0 l/m 7,4 km/h (2 Bft) SW 235 0 min 0,000 mm 0,0 UV-I 0 W/m 1,0 C 0,3 C 14,5 km/h (3 Bft) 100,00 %
06.02.2017 23:24 1,3 C 98 % 1018,3 hPa 0,0 l/m 6,2 km/h (2 Bft) SW 217 0 min 0,000 mm 0,0 UV-I 0 W/m 1,0 C 1,3 C 12,9 km/h (3 Bft) 95,74 %
06.02.2017 23:26 1,3 C 98 % 1018,3 hPa 0,0 l/m 7,9 km/h (2 Bft) SW 229 0 min 0,000 mm 0,0 UV-I 0 W/m 1,0 C -0,2 C 12,9 km/h (3 Bft) 97,96 %
06.02.2017 23:28 1,3 C 98 % 1018,3 hPa 0,0 l/m 7,9 km/h (2 Bft) W-SW 242 0 min 0,000 mm 0,0 UV-I 0 W/m 1,0 C -0,2 C 14,5 km/h (3 Bft) 100,00 %
06.02.2017 23:30 1,3 C 98 % 1018,3 hPa 0,0 l/m 6,3 km/h (2 Bft) SW 233 0 min 0,000 mm 0,0 UV-I 0 W/m 1,0 C 1,3 C 11,3 km/h (2 Bft) 98,11 %
06.02.2017 23:32 1,3 C 98 % 1018,3 hPa 0,0 l/m 7,2 km/h (2 Bft) S-SW 211 0 min 0,000 mm 0,0 UV-I 0 W/m 1,0 C 0,5 C 9,7 km/h (2 Bft) 97,37 %
06.02.2017 23:34 1,3 C 98 % 1018,3 hPa 0,0 l/m 7,3 km/h (2 Bft) W-SW 246 0 min 0,000 mm 0,0 UV-I 0 W/m 1,0 C 0,4 C 11,3 km/h (2 Bft) 100,00 %
06.02.2017 23:36 1,3 C 98 % 1018,3 hPa 0,0 l/m 7,3 km/h (2 Bft) S-SW 210 0 min 0,000 mm 0,0 UV-I 0 W/m 1,0 C 0,4 C 12,9 km/h (3 Bft) 97,87 %
06.02.2017 23:38 1,3 C 98 % 1018,3 hPa 0,0 l/m 6,0 km/h (2 Bft) S-SW 212 0 min 0,000 mm 0,0 UV-I 0 W/m 1,0 C 1,3 C 11,3 km/h (2 Bft) 97,87 %
06.02.2017 23:40 1,3 C 98 % 1018,2 hPa 0,0 l/m 5,7 km/h (1 Bft) S-SW 213 0 min 0,000 mm 0,0 UV-I 0 W/m 1,0 C 1,3 C 8,0 km/h (2 Bft) 98,00 %
06.02.2017 23:42 1,3 C 98 % 1018,2 hPa 0,0 l/m 5,8 km/h (2 Bft) SW 232 0 min 0,000 mm 0,0 UV-I 0 W/m 1,0 C 1,3 C 11,3 km/h (2 Bft) 93,62 %
06.02.2017 23:44 1,3 C 98 % 1018,2 hPa 0,0 l/m 6,1 km/h (2 Bft) S-SW 207 0 min 0,000 mm 0,0 UV-I 0 W/m 1,0 C 1,3 C 11,3 km/h (2 Bft) 96,00 %
06.02.2017 23:46 1,3 C 98 % 1018,3 hPa 0,0 l/m 6,5 km/h (2 Bft) W-SW 244 0 min 0,000 mm 0,0 UV-I 0 W/m 1,0 C 1,2 C 9,7 km/h (2 Bft) 97,56 %
06.02.2017 23:48 1,3 C 98 % 1018,2 hPa 0,0 l/m 8,0 km/h (2 Bft) W-SW 254 0 min 0,000 mm 0,0 UV-I 0 W/m 1,0 C -0,3 C 14,5 km/h (3 Bft) 97,73 %
06.02.2017 23:50 1,3 C 98 % 1018,3 hPa 0,0 l/m 7,2 km/h (2 Bft) S-SW 213 0 min 0,000 mm 0,0 UV-I 0 W/m 1,0 C 0,5 C 12,9 km/h (3 Bft) 96,23 %
06.02.2017 23:52 1,3 C 98 % 1018,2 hPa 0,0 l/m 6,9 km/h (2 Bft) SW 235 0 min 0,000 mm 0,0 UV-I 0 W/m 1,0 C 0,8 C 11,3 km/h (2 Bft) 96,00 %
06.02.2017 23:54 1,3 C 98 % 1018,2 hPa 0,0 l/m 5,4 km/h (1 Bft) SW 234 0 min 0,000 mm 0,0 UV-I 0 W/m 1,0 C 1,3 C 8,0 km/h (2 Bft) 97,44 %
06.02.2017 23:56 1,3 C 98 % 1018,3 hPa 0,0 l/m 5,8 km/h (2 Bft) SW 229 0 min 0,000 mm 0,0 UV-I 0 W/m 1,0 C 1,3 C 8,0 km/h (2 Bft) 95,74 %
06.02.2017 23:58 1,3 C 98 % 1018,2 hPa 0,0 l/m 5,2 km/h (1 Bft) SW 232 0 min 0,000 mm 0,0 UV-I 0 W/m 1,0 C 1,3 C 8,0 km/h (2 Bft) 98,00 %
_ Min-Zeit 17:50 00:00 00:16 - 02:36 - - - - - - 04:54 00:32 02:36 13:36
Minimum _ 0,9 C 87 % 1002,5 hPa - 0,0 km/h (0 Bft) - - - - - - 0,4 C -5,4 C 0,0 km/h (0 Bft) 87,23 %
_ Max-Zeit 00:38 19:56 21:58 05:06 00:32 - - 16:58 11:00 12:44 10:38 12:46 02:14 00:32 00:00
Maximum _ 2,8 C 98 % 1018,3 hPa 0,2 l/m 18,3 km/h
O-NO (3 Bft)
- - 2 min 0,051 mm 0,5 UV-I 154 W/m 1,8 C 2,6 C 25,7 km/h
O-NO (4 Bft)
100,00 %
Durchschnitt _ 1,6 C 96 % 1012,0 hPa #7,4 l/m 5,5 km/h (1 Bft) W-SW - #4 min. #0,279 mm 0,3 UV-I 73 W/m 1,0 C 0,7 C 8,7 km/h (2 Bft) 97,47 %